[[{"header":{"parameterUnit":"m.s-1","parameterCategory":1,"la1":30.6,"la2":29.2853,"lo1":-89.7004,"lo2":-87.6739,"dy":0.0162,"dx":0.0183,"nx":112,"ny":82,"refTime":"2023-07-31T00:00:00:Z","depth":0,"parameterNumber":2,"parameterNumberName":"U-component_of_WINDS"},"data":[0.0,0.0,0.0,0.0,0.0,0.0,0.0,0.0,0.0,0.0,0.0,0.0,0.0,0.0,0.0,0.0,0.0,0.0,0.0,0.0,0.0,0.0,0.0,0.0,0.0,0.0,0.0,0.0,0.0,0.0,0.0,0.0,0.0,0.0,0.0,0.0,0.0,0.0,0.0,0.0,0.0,0.0,0.0,0.0,0.0,0.0,0.0,0.0,0.0,0.0,0.0,0.0,0.0,0.0,0.0,0.0,0.0,0.0,0.0,0.0,0.0,0.0,0.0,0.0,0.0,0.0,0.0,0.0,0.0,0.0,0.0,0.0,0.0,0.0,0.0,0.0,0.0,0.0,0.0,0.0,0.0,0.0,0.0,0.0,0.0,0.0,0.0,0.0,0.0,0.0,-4.0731,-4.0788,-4.0777,-4.0752,-4.0715,-4.068,-4.0623,-4.0504,0.0,0.0,0.0,0.0,0.0,0.0,0.0,0.0,0.0,0.0,0.0,0.0,0.0,0.0,0.0,0.0,0.0,0.0,0.0,0.0,0.0,0.0,0.0,0.0,0.0,0.0,0.0,0.0,0.0,0.0,0.0,0.0,0.0,0.0,0.0,0.0,0.0,0.0,0.0,0.0,0.0,0.0,0.0,0.0,0.0,0.0,0.0,0.0,0.0,0.0,0.0,0.0,0.0,0.0,0.0,0.0,0.0,0.0,0.0,0.0,0.0,0.0,0.0,0.0,0.0,0.0,0.0,0.0,0.0,0.0,0.0,0.0,0.0,0.0,0.0,0.0,0.0,0.0,0.0,0.0,0.0,0.0,0.0,0.0,0.0,0.0,0.0,0.0,0.0,0.0,0.0,0.0,0.0,0.0,0.0,0.0,0.0,0.0,0.0,0.0,0.0,0.0,0.0,0.0,-4.0761,-4.0729,-4.0718,-4.0707,-4.0703,-4.0596,-4.0534,-4.0504,0.0,0.0,0.0,0.0,0.0,0.0,0.0,0.0,0.0,0.0,0.0,0.0,0.0,0.0,0.0,0.0,0.0,0.0,0.0,0.0,0.0,0.0,0.0,0.0,0.0,0.0,0.0,0.0,0.0,0.0,0.0,0.0,0.0,0.0,0.0,0.0,0.0,0.0,0.0,0.0,0.0,0.0,0.0,0.0,0.0,0.0,0.0,0.0,0.0,0.0,0.0,0.0,0.0,0.0,0.0,0.0,0.0,0.0,0.0,0.0,0.0,0.0,0.0,0.0,0.0,0.0,0.0,0.0,0.0,0.0,0.0,0.0,0.0,0.0,0.0,0.0,0.0,0.0,0.0,0.0,0.0,0.0,0.0,0.0,0.0,0.0,0.0,0.0,0.0,0.0,0.0,0.0,0.0,0.0,0.0,0.0,0.0,0.0,0.0,0.0,0.0,0.0,0.0,-4.0623,-4.0636,-4.0596,-4.0582,-4.0582,-4.0582,-4.0549,-4.0489,-4.0489,-4.0489,0.0,0.0,0.0,0.0,0.0,0.0,0.0,0.0,0.0,0.0,0.0,0.0,0.0,0.0,0.0,0.0,0.0,0.0,0.0,0.0,0.0,0.0,0.0,0.0,0.0,0.0,0.0,0.0,0.0,0.0,0.0,0.0,0.0,0.0,0.0,0.0,0.0,0.0,0.0,0.0,0.0,0.0,0.0,0.0,0.0,0.0,0.0,0.0,0.0,0.0,0.0,0.0,0.0,0.0,0.0,0.0,0.0,0.0,0.0,0.0,0.0,0.0,0.0,0.0,0.0,0.0,0.0,0.0,0.0,0.0,0.0,0.0,0.0,0.0,0.0,0.0,0.0,0.0,0.0,0.0,0.0,0.0,0.0,0.0,0.0,0.0,0.0,0.0,0.0,0.0,0.0,0.0,0.0,0.0,0.0,0.0,0.0,0.0,0.0,0.0,0.0,0.0,-4.0519,-4.0489,-4.0489,-4.0489,-4.0489,-4.0489,-4.0489,-4.0489,-4.0489,-4.0489,0.0,0.0,0.0,0.0,0.0,0.0,0.0,0.0,0.0,0.0,0.0,0.0,0.0,0.0,0.0,0.0,0.0,0.0,0.0,0.0,0.0,0.0,0.0,0.0,0.0,0.0,0.0,0.0,0.0,0.0,0.0,0.0,0.0,0.0,0.0,0.0,0.0,0.0,0.0,0.0,0.0,0.0,0.0,0.0,0.0,0.0,0.0,0.0,0.0,0.0,0.0,0.0,0.0,0.0,0.0,0.0,0.0,0.0,0.0,0.0,0.0,0.0,0.0,0.0,0.0,0.0,0.0,0.0,0.0,0.0,0.0,0.0,0.0,0.0,0.0,0.0,0.0,0.0,0.0,0.0,0.0,0.0,0.0,0.0,0.0,0.0,0.0,0.0,0.0,0.0,0.0,0.0,0.0,0.0,0.0,0.0,0.0,0.0,0.0,0.0,0.0,0.0,-4.0588,-4.0489,-4.0489,-4.0489,-4.0489,-4.0489,-4.0489,-4.0489,-4.0489,-4.0489,0.0,0.0,0.0,0.0,0.0,0.0,0.0,0.0,0.0,0.0,0.0,0.0,0.0,0.0,0.0,0.0,0.0,0.0,0.0,0.0,0.0,0.0,0.0,0.0,0.0,0.0,0.0,0.0,0.0,0.0,0.0,0.0,0.0,0.0,0.0,0.0,0.0,0.0,0.0,0.0,0.0,0.0,0.0,0.0,0.0,0.0,0.0,0.0,0.0,0.0,0.0,0.0,0.0,0.0,0.0,0.0,0.0,0.0,0.0,0.0,0.0,0.0,0.0,0.0,0.0,0.0,0.0,0.0,0.0,0.0,0.0,0.0,0.0,0.0,0.0,0.0,0.0,0.0,0.0,0.0,0.0,0.0,0.0,0.0,0.0,0.0,0.0,0.0,0.0,0.0,0.0,0.0,0.0,0.0,0.0,0.0,0.0,0.0,0.0,0.0,0.0,0.0,-4.0515,-4.0489,-4.0489,-4.0489,-4.0489,-4.0489,-4.0489,-4.0489,-4.0489,0.0,0.0,0.0,0.0,0.0,0.0,0.0,0.0,0.0,0.0,0.0,0.0,0.0,0.0,0.0,0.0,0.0,0.0,0.0,0.0,0.0,0.0,0.0,0.0,0.0,0.0,0.0,0.0,0.0,0.0,0.0,0.0,0.0,0.0,0.0,0.0,0.0,0.0,0.0,0.0,0.0,0.0,0.0,0.0,0.0,0.0,0.0,0.0,0.0,0.0,0.0,0.0,0.0,0.0,0.0,0.0,0.0,0.0,0.0,0.0,0.0,0.0,0.0,0.0,0.0,0.0,0.0,0.0,0.0,0.0,0.0,0.0,0.0,0.0,0.0,0.0,0.0,0.0,0.0,0.0,0.0,0.0,0.0,0.0,0.0,0.0,0.0,0.0,0.0,0.0,0.0,0.0,0.0,0.0,0.0,0.0,0.0,0.0,0.0,0.0,0.0,0.0,-4.0489,-4.0489,-4.0489,-4.0489,-4.0489,-4.0489,-4.0489,-4.0489,-4.0358,-4.0005,0.0,0.0,0.0,0.0,0.0,0.0,0.0,0.0,0.0,0.0,0.0,0.0,0.0,0.0,0.0,0.0,0.0,0.0,0.0,0.0,0.0,0.0,0.0,0.0,0.0,0.0,0.0,0.0,0.0,0.0,0.0,0.0,0.0,0.0,0.0,0.0,0.0,0.0,0.0,0.0,0.0,0.0,0.0,0.0,0.0,0.0,0.0,0.0,0.0,0.0,0.0,0.0,0.0,0.0,0.0,0.0,0.0,0.0,0.0,0.0,0.0,0.0,0.0,0.0,0.0,0.0,0.0,0.0,0.0,0.0,0.0,0.0,0.0,0.0,0.0,0.0,0.0,0.0,0.0,0.0,0.0,0.0,0.0,0.0,0.0,0.0,0.0,0.0,0.0,0.0,0.0,0.0,0.0,0.0,0.0,0.0,0.0,0.0,0.0,0.0,0.0,0.0,-4.0489,-4.0489,-4.0489,-4.0489,-4.0489,-4.0489,-4.0489,-4.0489,-4.0024,0.0,0.0,0.0,0.0,0.0,0.0,0.0,0.0,0.0,0.0,0.0,0.0,0.0,0.0,0.0,0.0,0.0,0.0,0.0,0.0,0.0,0.0,0.0,0.0,0.0,0.0,0.0,0.0,0.0,0.0,0.0,0.0,0.0,0.0,0.0,0.0,0.0,0.0,0.0,0.0,0.0,0.0,0.0,0.0,0.0,0.0,0.0,0.0,0.0,0.0,0.0,0.0,0.0,0.0,0.0,0.0,0.0,0.0,0.0,0.0,0.0,0.0,0.0,0.0,0.0,0.0,0.0,0.0,0.0,0.0,0.0,0.0,0.0,0.0,0.0,0.0,0.0,0.0,0.0,0.0,0.0,0.0,0.0,0.0,0.0,0.0,0.0,0.0,0.0,0.0,0.0,0.0,0.0,0.0,0.0,0.0,0.0,0.0,0.0,0.0,0.0,0.0,0.0,-4.0489,-4.0489,-4.0489,-4.0489,-4.0489,-4.0489,-4.0489,-3.9819,-3.9238,-3.8917,0.0,0.0,0.0,0.0,0.0,0.0,0.0,0.0,0.0,0.0,0.0,0.0,0.0,0.0,0.0,0.0,0.0,0.0,0.0,0.0,0.0,0.0,0.0,0.0,0.0,0.0,0.0,0.0,0.0,0.0,0.0,0.0,0.0,0.0,0.0,0.0,0.0,0.0,0.0,0.0,0.0,0.0,0.0,0.0,0.0,0.0,0.0,0.0,0.0,0.0,0.0,0.0,0.0,0.0,0.0,0.0,0.0,0.0,0.0,0.0,0.0,0.0,0.0,0.0,0.0,0.0,0.0,0.0,0.0,0.0,0.0,0.0,0.0,0.0,0.0,0.0,0.0,0.0,0.0,0.0,0.0,0.0,0.0,0.0,0.0,0.0,0.0,0.0,0.0,0.0,0.0,0.0,0.0,0.0,0.0,0.0,0.0,0.0,0.0,0.0,0.0,0.0,-4.0489,-4.0489,-4.0489,-4.0489,-4.0489,-4.0338,-3.9912,-3.9275,-3.8499,-3.7599,0.0,0.0,0.0,0.0,0.0,0.0,0.0,0.0,0.0,0.0,0.0,0.0,0.0,0.0,0.0,0.0,0.0,0.0,0.0,0.0,0.0,0.0,0.0,0.0,0.0,0.0,0.0,0.0,0.0,0.0,0.0,0.0,0.0,0.0,0.0,0.0,0.0,0.0,0.0,0.0,0.0,0.0,0.0,0.0,0.0,0.0,0.0,0.0,0.0,0.0,0.0,0.0,0.0,0.0,0.0,0.0,0.0,0.0,0.0,0.0,0.0,0.0,0.0,0.0,0.0,0.0,0.0,0.0,0.0,0.0,0.0,0.0,0.0,0.0,0.0,0.0,0.0,0.0,0.0,0.0,0.0,0.0,0.0,0.0,0.0,0.0,0.0,0.0,0.0,0.0,0.0,0.0,0.0,0.0,0.0,0.0,0.0,0.0,0.0,0.0,0.0,0.0,-4.0473,-4.0441,-4.0403,-4.0307,-4.0307,-3.9895,-3.8841,-3.8651,-3.7695,-3.5637,0.0,0.0,0.0,0.0,0.0,0.0,0.0,0.0,0.0,0.0,0.0,0.0,0.0,0.0,0.0,0.0,0.0,0.0,0.0,0.0,0.0,0.0,0.0,0.0,0.0,0.0,0.0,0.0,0.0,0.0,0.0,0.0,0.0,0.0,0.0,0.0,0.0,0.0,0.0,0.0,0.0,0.0,0.0,0.0,0.0,0.0,0.0,0.0,0.0,0.0,0.0,0.0,0.0,0.0,0.0,0.0,0.0,0.0,0.0,0.0,-4.3849,-4.3804,0.0,0.0,0.0,0.0,0.0,0.0,0.0,0.0,0.0,0.0,0.0,0.0,0.0,0.0,0.0,0.0,0.0,0.0,0.0,0.0,0.0,0.0,0.0,0.0,0.0,0.0,0.0,0.0,0.0,0.0,0.0,0.0,0.0,0.0,0.0,0.0,0.0,0.0,0.0,0.0,-4.0177,-3.9963,-3.9553,-3.8929,-3.8854,-3.8491,-3.7635,-3.6745,-3.6016,-3.5539,-3.4648,0.0,0.0,0.0,0.0,0.0,0.0,0.0,0.0,0.0,0.0,0.0,0.0,0.0,0.0,0.0,0.0,0.0,0.0,0.0,0.0,0.0,0.0,0.0,0.0,0.0,0.0,0.0,0.0,0.0,0.0,0.0,0.0,0.0,0.0,0.0,0.0,0.0,0.0,0.0,0.0,0.0,0.0,0.0,0.0,0.0,0.0,0.0,0.0,0.0,0.0,0.0,0.0,0.0,0.0,0.0,0.0,0.0,0.0,0.0,-4.374,-4.3679,0.0,0.0,0.0,0.0,0.0,0.0,0.0,0.0,0.0,0.0,0.0,0.0,0.0,0.0,0.0,0.0,0.0,0.0,0.0,0.0,0.0,0.0,0.0,0.0,0.0,0.0,0.0,0.0,0.0,0.0,0.0,0.0,0.0,0.0,0.0,0.0,0.0,0.0,0.0,0.0,-3.9859,-3.9372,-3.8867,-3.8433,-3.8058,-3.743,-3.6468,-3.5857,-3.5256,-3.471,-3.4115,0.0,0.0,0.0,0.0,0.0,0.0,0.0,0.0,0.0,0.0,0.0,0.0,0.0,0.0,0.0,0.0,0.0,0.0,0.0,0.0,0.0,0.0,0.0,0.0,0.0,0.0,0.0,0.0,0.0,0.0,0.0,0.0,0.0,0.0,0.0,0.0,0.0,0.0,0.0,0.0,0.0,0.0,0.0,0.0,0.0,0.0,0.0,0.0,0.0,0.0,0.0,0.0,0.0,-4.4447,-4.4392,-4.4392,-4.4076,-4.3893,-4.3912,-4.3612,-4.3497,-4.3497,-4.3497,0.0,0.0,0.0,0.0,0.0,0.0,0.0,0.0,0.0,0.0,0.0,0.0,0.0,0.0,0.0,0.0,0.0,0.0,0.0,0.0,0.0,0.0,-3.779,-3.7859,-3.7893,-3.8065,-3.8578,0.0,0.0,0.0,0.0,0.0,0.0,0.0,0.0,0.0,0.0,0.0,-3.9322,-3.8672,-3.8122,-3.784,-3.7205,-3.6381,-3.5317,-3.5194,-3.4791,-3.387,-3.3807,-3.3807,0.0,0.0,0.0,0.0,0.0,0.0,0.0,0.0,0.0,0.0,0.0,0.0,0.0,0.0,0.0,0.0,0.0,0.0,0.0,0.0,0.0,0.0,0.0,0.0,0.0,0.0,0.0,0.0,0.0,0.0,0.0,0.0,-4.3955,-4.3998,0.0,0.0,0.0,0.0,0.0,0.0,0.0,0.0,0.0,0.0,0.0,0.0,0.0,-4.4676,-4.4676,-4.4261,-4.4058,-4.4076,-4.3772,-4.3664,-4.3664,-4.3597,-4.3582,-4.3563,-4.3513,0.0,-4.3497,-4.3497,0.0,0.0,0.0,0.0,0.0,0.0,0.0,0.0,0.0,0.0,0.0,0.0,0.0,0.0,0.0,0.0,0.0,0.0,0.0,0.0,0.0,0.0,-3.7396,-3.779,-3.7893,-3.8065,-3.8578,-3.8707,-3.8707,-3.8707,-3.8884,-3.9063,0.0,0.0,0.0,0.0,0.0,0.0,-3.8208,-3.7831,-3.7063,-3.5597,-3.5339,-3.4952,-3.4089,-3.4015,-3.3952,-3.3807,-3.3807,-3.3807,-3.3807,-3.3807,0.0,0.0,0.0,0.0,0.0,0.0,0.0,0.0,0.0,0.0,0.0,0.0,0.0,0.0,0.0,0.0,0.0,0.0,0.0,0.0,0.0,0.0,0.0,0.0,0.0,0.0,0.0,0.0,0.0,-4.3631,-4.3726,-4.3726,-4.4175,-4.4463,0.0,0.0,0.0,0.0,0.0,0.0,0.0,0.0,0.0,-4.4825,-4.4455,-4.4261,-4.4261,-4.3881,-4.3726,-4.3726,-4.3563,-4.3497,-4.3497,-4.3497,-4.3497,-4.3497,-4.3497,-4.3497,-4.3497,-4.3497,-4.3321,-4.305,0.0,0.0,0.0,0.0,-4.1357,-4.0149,-3.9711,-3.8928,-3.7854,-3.6835,0.0,0.0,0.0,0.0,0.0,0.0,0.0,-3.7152,-3.6843,-3.6764,-3.6803,-3.702,-3.7041,-3.7285,-3.8083,-3.8267,-3.835,-3.8627,-3.8803,-3.8884,-3.8884,-3.9008,0.0,0.0,0.0,-3.8071,-3.772,-3.6748,-3.5826,-3.5064,-3.4614,-3.4192,-3.3825,-3.3807,-3.3807,-3.3807,-3.3807,-3.3807,-3.3807,-3.3807,-3.3807,0.0,0.0,0.0,0.0,0.0,0.0,0.0,0.0,0.0,0.0,0.0,0.0,0.0,0.0,0.0,0.0,0.0,0.0,0.0,0.0,0.0,0.0,0.0,0.0,0.0,0.0,0.0,0.0,-4.3497,-4.3497,-4.3497,-4.3804,-4.4016,0.0,0.0,0.0,0.0,0.0,0.0,-4.458,-4.4501,-4.4447,-4.4447,-4.4076,-4.3881,-4.3881,-4.3612,-4.3497,-4.3497,-4.3497,-4.3497,-4.3497,-4.3497,-4.3497,-4.3479,-4.3356,-4.3304,-4.3304,-4.3304,-4.305,-4.2693,-4.2519,-4.2121,-4.1578,-4.1578,-4.0752,-3.948,-3.8767,-3.7746,-3.6654,-3.5876,-3.5622,-3.5622,-3.5622,0.0,0.0,0.0,0.0,-3.6724,-3.6291,-3.6182,-3.6224,-3.6392,-3.6374,-3.6643,-3.7542,-3.772,-3.7929,-3.8578,-3.8707,-3.8707,-3.8707,-3.8524,0.0,-3.8395,-3.7698,-3.7092,-3.689,-3.5789,-3.4917,-3.4697,-3.4174,-3.3807,-3.3807,-3.3807,-3.3807,-3.3807,-3.3807,-3.3807,-3.3807,-3.3807,-3.3807,-3.3807,0.0,0.0,0.0,0.0,0.0,0.0,0.0,0.0,0.0,0.0,0.0,0.0,0.0,0.0,0.0,0.0,0.0,0.0,0.0,0.0,0.0,0.0,0.0,0.0,0.0,0.0,0.0,0.0,0.0,-4.3497,-4.3804,0.0,0.0,0.0,0.0,-4.458,-4.458,-4.458,-4.458,-4.4233,-4.4028,-4.4028,-4.3693,-4.3513,-4.3513,-4.3532,-4.3497,-4.3497,-4.3497,-4.3497,-4.3497,-4.3497,-4.3497,-4.3479,-4.2976,-4.275,-4.275,-4.275,-4.2732,-4.2655,-4.208,-4.149,-4.0949,-4.0949,-4.0161,-3.8918,-3.8207,-3.7462,-3.6654,-3.5876,-3.5622,-3.5622,-3.5622,-3.5622,0.0,0.0,-3.565,-3.565,-3.5667,-3.5667,-3.5783,-3.6266,-3.6374,-3.6563,-3.7097,-3.7228,-3.7524,-3.8515,-3.8707,-3.8707,-3.8707,0.0,-3.7551,-3.7551,-3.6872,-3.6064,-3.521,-3.5045,-3.4697,-3.3935,-3.3825,-3.3807,-3.3807,-3.3807,-3.3807,-3.3807,-3.3807,-3.3807,-3.3807,-3.3807,-3.3807,-3.3807,-3.3807,0.0,0.0,0.0,0.0,0.0,0.0,0.0,0.0,0.0,0.0,0.0,0.0,0.0,0.0,0.0,0.0,0.0,0.0,0.0,0.0,0.0,0.0,0.0,0.0,0.0,0.0,0.0,0.0,-4.1974,-4.2051,0.0,-4.2129,-4.2267,-4.2359,-4.2359,-4.2359,-4.2359,-4.2359,-4.2223,-4.2129,-4.2129,-4.2004,-4.2194,-4.2708,-4.2727,-4.2727,-4.2727,-4.2727,-4.2451,-4.1974,-4.1974,-4.1784,-4.1433,-4.1252,-4.0973,-4.0663,-4.0282,-4.0398,-4.0813,-4.0596,-3.987,-3.8952,-3.8952,-3.8367,-3.7533,-3.7263,-3.6671,-3.5994,-3.5707,-3.5622,-3.5622,-3.5622,-3.5622,-3.5622,-3.5622,-3.5622,-3.5622,-3.5622,-3.5622,-3.5667,-3.5854,-3.5898,-3.6011,-3.6563,-3.6684,-3.6865,-3.7596,-3.7964,-3.83,-3.8627,-3.8028,-3.7507,-3.7507,-3.634,-3.5367,-3.5027,-3.4559,-3.4119,-3.3825,-3.3807,-3.3807,-3.3807,-3.3807,-3.3807,-3.3807,-3.3807,-3.3807,-3.3807,-3.3807,-3.3807,-3.3807,-3.3807,-3.3807,0.0,0.0,0.0,0.0,0.0,0.0,0.0,0.0,0.0,0.0,0.0,0.0,0.0,0.0,0.0,0.0,0.0,0.0,0.0,0.0,0.0,0.0,0.0,0.0,0.0,-4.1442,-4.1111,-4.1111,-4.1111,-4.1111,-4.1111,-4.1111,-4.1111,-4.1111,-4.1111,-4.1111,-4.1111,-4.1111,-4.1111,-4.1111,-4.1111,-4.1368,-4.1901,-4.1901,-4.1815,-4.1643,-4.1643,-4.1247,-4.058,-4.058,-4.042,-4.0036,-3.9866,-3.9576,-3.923,-3.8668,-3.8573,-3.8814,-3.9089,-3.864,-3.7905,-3.7905,-3.7584,-3.7127,-3.6874,-3.6265,-3.5622,-3.5622,-3.5622,-3.5622,-3.5622,-3.5622,-3.5622,-3.5622,-3.5622,-3.5622,-3.5622,-3.5622,-3.5622,-3.5622,-3.5622,-3.5694,-3.6054,-3.5933,-3.5911,-3.6439,-3.7182,-3.7753,-3.7986,-3.7356,-3.6796,-3.6659,-3.5477,-3.4614,-3.4614,-3.4137,-3.3807,-3.3807,-3.3807,-3.3807,-3.3807,-3.3807,-3.3807,-3.3807,-3.3807,-3.3807,-3.3807,-3.3807,-3.3807,-3.3807,-3.3807,-3.3807,-3.3807,0.0,0.0,0.0,0.0,0.0,0.0,0.0,0.0,0.0,0.0,0.0,0.0,0.0,0.0,0.0,0.0,0.0,0.0,0.0,0.0,0.0,0.0,0.0,-4.0881,-4.1056,-4.1038,-4.1038,-4.1038,-4.1038,-4.1038,-4.1038,-4.1038,-4.1038,-4.1038,-4.1038,-4.1038,-4.1038,-4.1038,-4.1038,-4.1038,-4.1056,-4.1075,-4.1075,-4.0787,-4.0257,-4.0257,-3.9982,-3.9558,-3.9558,-3.9501,-3.9461,-3.8866,-3.8625,-3.8581,-3.8052,-3.7398,-3.6823,-3.7584,-3.7855,-3.7838,-3.7838,-3.7838,-3.7736,-3.6992,-3.6248,-3.5622,-3.5622,-3.5622,-3.5622,-3.5622,-3.5622,-3.5622,-3.5622,-3.5622,-3.556,-3.5588,-3.5588,-3.5571,-3.5554,-3.5554,-3.5554,-3.5554,-3.4979,-3.461,-3.5157,-3.6247,-3.6984,-3.6676,-3.5969,-3.5336,-3.5044,-3.4293,0.0,-3.3807,-3.3807,-3.3807,-3.3807,-3.3807,-3.3807,-3.3807,-3.3807,-3.3807,-3.3807,-3.3807,-3.3807,-3.3807,-3.3807,-3.3807,-3.3807,-3.3807,-3.3807,-3.3807,0.0,0.0,0.0,0.0,0.0,0.0,0.0,0.0,0.0,0.0,0.0,0.0,0.0,0.0,0.0,0.0,0.0,0.0,0.0,0.0,0.0,-3.8879,-3.9349,-4.0111,-3.9735,-3.9368,-3.9368,-3.9368,-3.9368,-3.9368,-3.9368,-3.9368,-3.9368,-3.9368,-3.9368,-3.9368,-3.9368,-3.9368,-3.9368,-3.9368,-3.9643,-4.0212,-4.023,-3.9981,-3.9427,-3.9427,-3.8887,-3.7866,-3.7866,-3.7672,-3.7271,-3.7106,-3.6827,-3.6423,-3.6276,-3.6129,-3.6011,-3.6789,-3.6738,-3.6248,-3.6248,-3.6248,-3.6214,-3.6011,-3.5808,-3.5622,-3.5622,-3.5622,-3.5622,-3.5622,-3.5622,-3.5622,-3.5622,-3.5622,-3.5504,-3.4945,-3.4793,-3.4675,-3.4134,-3.4015,-3.4015,-3.4015,-3.3863,-3.3753,-3.3887,-3.4223,-3.4644,-3.5279,-3.4741,-3.4285,-3.4534,-3.3887,-3.3465,-3.3762,-3.3807,-3.3807,-3.3807,-3.3807,-3.3807,-3.3807,-3.3807,-3.3807,-3.3807,-3.3807,-3.3807,-3.3807,-3.3807,-3.3807,-3.3807,-3.3807,-3.3807,0.0,0.0,0.0,0.0,0.0,0.0,0.0,0.0,0.0,0.0,0.0,0.0,0.0,0.0,0.0,0.0,0.0,0.0,0.0,0.0,0.0,0.0,-3.7765,-3.8203,-3.8958,-3.8839,-3.8707,-3.8707,-3.8707,-3.8707,-3.8707,-3.8707,-3.8707,-3.8707,-3.8707,-3.8707,-3.8707,-3.8707,-3.8707,-3.8707,-3.8707,-3.8816,-3.9057,-3.9057,-3.8667,-3.798,-3.798,-3.7464,-3.6522,-3.6522,-3.6357,-3.6054,-3.6054,-3.5898,-3.5622,-3.5622,-3.5622,-3.5673,0.0,0.0,0.0,0.0,-3.5622,-3.5622,-3.5622,-3.5622,-3.5622,-3.5622,-3.5622,-3.5554,-3.525,-3.5148,-3.5081,-3.4776,-3.4692,-3.459,-3.415,-3.4032,-3.3931,-3.3508,-3.3406,-3.3406,-3.3406,-3.3169,-3.2933,-3.2933,-3.2696,0.0,-3.3254,-3.3369,-3.3527,-3.3862,-3.335,-3.3136,-3.3734,-3.3634,-3.3606,-3.3762,-3.3807,-3.3807,-3.3807,-3.3807,0.0,0.0,0.0,-3.3807,-3.3807,-3.3807,0.0,0.0,0.0,-3.3807,-3.3807,-3.3807,0.0,0.0,-3.3807,-3.3807,0.0,0.0,0.0,0.0,0.0,0.0,0.0,0.0,0.0,0.0,0.0,0.0,0.0,0.0,0.0,0.0,-3.6765,-3.6706,-3.7614,-3.8234,-3.8627,-3.8707,-3.8707,-3.8707,-3.8707,-3.8707,-3.8707,-3.8707,-3.8707,-3.8707,-3.8707,-3.8707,0.0,0.0,0.0,-3.8465,-3.798,-3.7946,-3.7433,-3.6498,-3.6416,-3.6139,-3.5622,-3.5622,-3.5622,-3.5622,-3.5622,-3.5622,-3.5622,-3.5622,-3.5622,-3.5622,-3.5622,-3.5622,-3.5622,-3.5622,-3.5622,-3.5605,-3.552,0.0,0.0,-3.5402,-3.5368,-3.525,-3.4573,-3.437,-3.4235,-3.3592,-3.3406,-3.3389,-3.3305,-3.3288,-3.3254,-3.3169,-3.3152,-3.3152,-3.3152,-3.2628,-3.2195,-3.2195,-3.163,-3.119,-3.119,-3.2089,-3.2841,-3.3028,-3.2681,-3.2745,-3.3606,-3.3419,-3.3361,-3.3762,-3.3807,0.0,-3.3807,-3.3807,-3.3807,-3.3807,-3.3807,-3.3807,-3.3807,-3.3807,-3.3807,-3.3807,-3.3807,-3.3807,-3.3807,-3.3807,-3.3807,-3.3807,-3.3807,-3.3807,0.0,0.0,0.0,0.0,0.0,0.0,0.0,0.0,0.0,0.0,0.0,0.0,0.0,0.0,0.0,-3.5926,-3.62,-3.6457,-3.6684,-3.747,-3.8216,-3.8658,-3.8707,-3.8707,-3.8707,-3.8707,-3.8707,-3.8707,-3.8707,-3.8707,-3.8707,-3.8707,-3.8707,-3.8707,-3.8707,-3.8658,-3.8546,-3.8117,-3.7614,-3.7038,-3.662,0.0,-3.5622,-3.5622,-3.5622,-3.5622,-3.5622,-3.5622,-3.5622,-3.5622,-3.5622,-3.5622,-3.5622,-3.5622,-3.5622,-3.5622,-3.5622,-3.5537,-3.4928,-3.4709,-3.4607,-3.4032,-3.3846,-3.3812,-3.366,-3.3609,0.0,-3.344,-3.3406,-3.3271,-3.2662,-3.2493,-3.2341,-3.1765,-3.163,-3.163,-3.163,-3.1512,-3.141,-3.141,-3.1292,-3.119,-3.119,-3.137,-3.1658,-3.2021,-3.1986,-3.2264,-3.3196,-3.3243,-3.3361,-3.3762,-3.3807,-3.3807,-3.3807,-3.3807,-3.3807,-3.3807,-3.3807,-3.3807,-3.3807,-3.3807,-3.3807,-3.3807,-3.3807,-3.3807,-3.3807,-3.3807,-3.3807,-3.3807,-3.3807,-3.3807,0.0,0.0,0.0,0.0,0.0,0.0,0.0,0.0,0.0,0.0,0.0,-3.5622,-3.5622,0.0,-3.5622,-3.5622,-3.581,-3.6182,-3.6724,-3.7248,-3.7738,-3.8234,-3.8546,-3.8707,-3.8707,-3.8707,-3.8707,-3.8707,-3.8707,-3.8707,-3.8707,-3.8707,-3.8707,-3.8707,-3.8433,-3.8201,-3.7948,-3.7433,-3.6904,-3.6399,-3.6139,-3.5854,-3.5605,-3.5233,-3.5064,-3.503,-3.4675,-3.4506,-3.4506,-3.4506,-3.4506,-3.4506,-3.4506,-3.4726,-3.5013,-3.4641,-3.4506,-3.4455,-3.4083,-3.3947,-3.3897,-3.3525,-3.322,-3.2964,-3.2866,-3.2419,-3.1913,-3.1883,-3.1639,-3.1281,-3.0962,-3.0863,-3.0738,-3.0392,-3.0518,-3.074,-3.074,-3.0975,-3.119,-3.119,-3.119,-3.119,-3.119,-3.119,-3.1351,-3.1752,-3.164,-3.1842,-3.2745,-3.284,-3.3014,-3.3447,-3.368,-3.3807,-3.3807,-3.3807,-3.3807,-3.3807,-3.3421,-3.3201,-3.3201,-3.3201,-3.3201,-3.3201,-3.3587,-3.3807,-3.3807,-3.3807,-3.3807,-3.3788,-3.3935,-3.3928,0.0,0.0,0.0,0.0,0.0,0.0,0.0,0.0,-3.4592,-3.527,-3.5515,-3.5622,-3.5622,-3.5622,-3.5622,-3.5622,-3.5622,-3.5898,-3.6746,-3.6981,-3.7173,-3.756,-3.8267,-3.8707,-3.8707,-3.8707,-3.8707,-3.8707,-3.856,-3.8469,-3.8469,-3.8242,-3.8089,-3.8089,-3.7594,-3.7148,-3.675,-3.623,-3.5752,-3.5314,-3.5226,-3.5182,-3.5165,-3.4556,-3.4286,-3.4252,-3.366,-3.3406,-3.3406,-3.3406,-3.3406,-3.3389,-3.3237,-3.3541,-3.4015,-3.3575,-3.3406,-3.3389,-3.3237,-3.3186,-3.3169,-3.3017,-3.2553,-3.2056,-3.2059,-3.1236,-3.0293,-3.0287,-2.9865,-2.9406,-2.9406,-2.9496,-2.9585,-2.9585,-3.0038,-3.0477,-3.0477,-3.0838,-3.119,-3.119,-3.119,-3.119,-3.119,-3.119,-3.1329,-3.1623,-3.1411,-3.1487,-3.2282,-3.2451,-3.2681,-3.3154,-3.3405,-3.3495,-3.3348,-3.333,-3.333,-3.333,-3.2724,-3.2375,-3.2375,-3.2375,-3.2375,-3.2375,-3.2999,-3.333,-3.333,-3.333,-3.333,-3.333,-3.3722,-3.3895,-2.407,-2.6164,-2.8051,-2.8939,-2.9813,-3.0837,0.0,0.0,-3.3887,-3.4576,-3.5207,-3.5622,-3.5622,-3.5622,-3.5622,-3.5622,-3.5622,-3.565,-3.5783,-3.6182,-3.6498,-3.6563,-3.7826,-3.8707,-3.8707,-3.8707,-3.8707,-3.8707,-3.8028,-3.7624,-3.7624,-3.6552,-3.5946,-3.5946,-3.55,-3.5208,-3.5173,-3.4679,-3.4424,-3.4345,-3.3877,-3.366,-3.3643,-3.3558,-3.3525,-3.3525,-3.344,-3.3406,-3.3406,-3.3406,-3.3406,-3.3339,-3.2662,-3.2459,-3.2594,-3.3186,-3.3406,-3.3322,-3.2645,-3.2408,-3.2307,-3.1647,-3.1031,-3.065,-3.1167,-3.0467,-2.9637,-3.014,-2.9865,-2.9406,-2.9406,-2.9805,-3.0208,-3.0208,-3.0658,-3.1112,-3.1112,-3.1151,-3.119,-3.119,-3.119,-3.119,-3.119,-3.119,-3.123,-3.1252,-3.123,-3.1351,-3.1825,-3.223,-3.2681,-3.3154,-3.2931,-3.2449,-3.1733,-3.1659,-3.1659,-3.1659,-3.1568,-3.1531,-3.1531,-3.1531,-3.1531,-3.1531,-3.1623,-3.1659,-3.1659,-3.1659,-3.1659,-3.1678,-3.2419,-3.3278,-2.3154,-2.4505,-2.5608,-2.696,-2.8215,-2.95,-3.1031,-3.2245,-3.3339,-3.4382,-3.483,-3.5161,-3.5515,-3.5622,-3.5559,-3.5386,-3.512,-3.4993,-3.5099,-3.5343,-3.557,-3.5882,-3.6739,-3.7369,-3.754,-3.7381,-3.7294,-3.7294,-3.6748,-3.6406,-3.6406,-3.5645,-3.5198,-3.5198,-3.4729,-3.4491,-3.4491,-3.399,-3.3744,-3.3744,-3.3532,-3.3406,-3.3389,-3.2949,-3.2527,-3.2121,-3.2121,-3.2121,-3.2121,-3.2121,-3.2121,-3.2087,-3.1765,-3.1647,-3.1681,-3.2002,-3.2121,-3.2087,-3.1765,-3.1647,-3.1596,-3.1292,-3.0797,-3.0351,-3.0617,-2.9848,-2.8919,-2.918,-2.881,-2.8352,-2.8352,-2.8528,-2.8717,-2.8717,-2.918,-2.9717,-3.0081,-3.0166,-3.0251,-3.0617,-3.0658,-3.0658,-3.0658,-3.0975,-3.119,-3.119,-3.119,-3.1252,-3.1411,-3.1444,-3.1553,-3.1838,-3.1873,-3.177,-3.1421,-3.1384,-3.1384,-3.1384,-3.0962,-3.0705,-3.0705,-3.0705,-3.0705,-3.0705,-3.1146,-3.1384,-3.1384,-3.1384,-3.1384,-3.1427,-3.1917,-3.2463,-2.1661,-2.2694,-2.3562,-2.5331,-2.6843,-2.825,-2.9601,-3.1004,-3.2369,-3.3486,-3.3888,-3.425,-3.4863,-3.5084,-3.507,-3.4741,-3.4548,-3.4449,-3.4581,-3.4603,-3.4783,-3.5283,-3.5574,-3.5824,-3.6035,-3.6213,-3.6303,-3.6303,-3.5775,-3.5411,-3.5411,-3.4679,-3.4233,-3.4233,-3.3676,-3.3386,-3.3386,-3.2985,-3.2797,-3.2797,-3.2797,-3.2797,-3.278,-3.2222,-3.1698,-3.119,-3.119,-3.119,-3.119,-3.119,-3.119,-3.119,-3.119,-3.119,-3.119,-3.1015,-3.0958,-3.0918,-3.074,-3.0699,-3.0699,-3.0699,-3.0309,-2.9848,-2.9978,-2.9225,-2.8286,-2.8463,-2.8042,-2.7625,-2.7625,-2.771,-2.786,-2.786,-2.8319,-2.8873,-2.9316,-2.9406,-2.954,-2.9995,-3.0038,-3.0015,-2.9802,-3.0261,-3.0589,-3.0387,-3.0487,-3.0666,-3.0869,-3.0695,-3.0571,-3.053,-3.0878,-3.098,-3.076,-3.0742,-3.0742,-3.0742,-3.0191,-2.9879,-2.9879,-2.9879,-2.9879,-2.9879,-3.0448,-3.0742,-3.0742,-3.082,-3.0844,-3.0867,-3.1331,-3.1653,-1.9066,-2.0786,-2.2567,-2.4402,-2.6052,-2.7457,-2.8254,-2.9582,-3.0826,-3.1453,-3.2118,-3.2757,-3.3372,-3.3853,-3.3997,-3.3507,-3.3819,-3.4103,-3.4125,-3.4125,-3.4265,-3.4694,-3.4503,-3.4348,-3.4366,-3.5556,-3.6303,-3.6303,-3.5485,-3.5027,-3.5027,-3.345,-3.2588,-3.2588,-3.1726,-3.1297,-3.1297,-3.1258,-3.1258,-3.1258,-3.1258,-3.1258,-3.1258,-3.1241,-3.1207,-3.119,-3.119,-3.119,-3.119,-3.119,-3.119,-3.119,-3.119,-3.119,-3.1151,-3.0518,-3.0351,-3.0251,-2.9673,-2.9451,-2.9451,-2.9451,-2.9058,-2.8638,-2.9225,-2.8575,-2.776,-2.8334,-2.8042,-2.7625,-2.7625,-2.8042,-2.8463,-2.8463,-2.8904,-2.9361,-2.9406,-2.9406,-2.9406,-2.9406,-2.9406,-2.9227,-2.8549,-2.8918,-2.9032,-2.8378,-2.8732,-2.9313,-3.004,-3.0161,-3.0083,-2.9674,-2.9995,-2.9934,-2.9122,-2.9067,-2.9067,-2.9067,-2.9049,-2.903,-2.903,-2.903,-2.903,-2.903,-2.9049,-2.9067,-2.9067,-2.9342,-2.9467,-2.9467,-3.0471,-3.0922,-1.5945,-1.7839,-1.9758,-2.1475,-2.3493,-2.5274,-2.6077,-2.7769,-2.9346,-3.0042,-3.1067,-3.2128,-3.3102,-3.3716,-3.4088,-3.4023,-3.3864,-3.3706,-3.3519,-3.3514,-3.3529,-3.3691,-3.3846,-3.3952,-3.3952,-3.4385,-3.4633,-3.4633,-3.4116,-3.3671,-3.3378,-3.2507,-3.1897,-3.1657,-3.1368,-3.119,-3.119,-3.119,-3.119,-3.119,-3.119,-3.119,-3.119,-3.119,-3.119,-3.119,-3.0797,-3.0601,-3.0559,-3.0166,-2.9995,-2.9995,-2.9995,-2.9995,-2.9935,-2.9316,-2.9104,-2.9134,-2.9316,-2.9406,-2.9406,-2.9406,-2.9271,-2.9042,-2.8873,-2.8511,-2.814,-2.7944,-2.776,-2.7625,-2.7625,-2.776,-2.791,-2.791,-2.8091,-2.8319,-2.8732,-2.8139,-2.7689,-2.8075,-2.779,-2.7397,-2.7162,-2.7923,-2.8406,-2.7992,-2.8527,-2.889,-2.8619,-2.8835,-2.8864,-2.8528,-2.8791,-2.8998,-2.9012,-2.8994,-2.8994,-2.8994,-2.8994,-2.8994,-2.8994,-2.8994,-2.8994,-2.8994,-2.8994,-2.8994,-2.8994,-2.9267,-2.9412,-2.9412,-2.9889,-3.0179,-1.31,-1.4552,-1.5876,-1.8812,-2.106,-2.2874,-2.4107,-2.5925,-2.7578,-2.8547,-2.9608,-3.0778,-3.2144,-3.3016,-3.3546,-3.3648,-3.3526,-3.3412,-3.3208,-3.3214,-3.3243,-3.3408,-3.3634,-3.3807,-3.3807,-3.3807,-3.3807,-3.3807,-3.355,-3.3284,-3.2965,-3.24,-3.1933,-3.1657,-3.1351,-3.119,-3.119,-3.119,-3.119,-3.119,-3.119,-3.119,-3.119,-3.119,-3.1095,-3.0838,-3.0477,-3.0166,-2.9951,-2.954,-2.9406,-2.9406,-2.9406,-2.9406,-2.9316,-2.8732,-2.8511,-2.8511,-2.8685,-2.8764,-2.8764,-2.8764,-2.8764,-2.867,-2.8319,-2.8189,-2.8091,-2.771,-2.7625,-2.7625,-2.7625,-2.7395,-2.7215,-2.7215,-2.7036,-2.7003,-2.7374,-2.6801,-2.6371,-2.6749,-2.6489,-2.6106,-2.5876,-2.6538,-2.7142,-2.7153,-2.7735,-2.7977,-2.7486,-2.7756,-2.7966,-2.7922,-2.821,-2.8565,-2.897,-2.8994,-2.8994,-2.8994,-2.8994,-2.8994,-2.8994,-2.8994,-2.8994,-2.8994,-2.9089,-2.9156,-2.9156,-2.9456,-2.9607,-2.9626,-2.9867,-3.0022,-1.0507,-1.0991,-1.1278,-1.6323,-1.8699,-2.0353,-2.2335,-2.4058,-2.5617,-2.6975,-2.7829,-2.8851,0.0,-3.1793,-3.255,-3.255,-3.2952,-3.3243,-3.3243,-3.3243,-3.3361,-3.3762,-3.3815,-3.3815,-3.3842,-3.3842,-3.3842,-3.3815,-3.3807,-3.3788,-3.3762,-3.2996,-3.2517,-3.2484,-3.1694,-3.123,-3.123,-3.119,-3.119,-3.119,-3.119,-3.119,-3.119,-3.119,-3.0878,-3.0335,-3.0293,-2.9951,-2.9406,-2.9316,-2.9316,-2.9316,-2.9284,-2.9268,-2.9162,-2.8607,-2.837,-2.8275,-2.7705,-2.7565,-2.756,-2.758,-2.7565,-2.7565,-2.7535,-2.752,-2.752,-2.752,-2.752,-2.752,-2.752,-2.7006,-2.6542,-2.6542,-2.6063,-2.5615,-2.5615,-2.5585,-2.5555,-2.5555,-2.5525,-2.53,-2.4672,-2.4922,-2.5335,-2.5924,-2.6367,-2.6657,-2.6691,-2.7019,-2.7409,-2.784,-2.8156,-2.8515,-2.8929,-2.8952,-2.8994,-2.8994,-2.8994,-2.8994,-2.8994,-2.8994,-2.8994,-2.8994,-2.9267,-2.9412,-2.9412,-2.9796,-2.9984,-2.9999,-3.0254,-3.0367,-0.6329,-0.6324,-0.8033,-1.143,-1.4686,-1.7649,-1.9706,-2.1407,-2.3089,-2.5188,-2.7263,-2.9297,-3.1107,-3.2294,-3.3105,-3.3419,-3.3578,-3.3652,-3.3652,-3.3652,-3.3752,-3.4049,0.0,-3.4213,-3.4461,-3.4464,-3.4375,-3.4117,-3.3928,-3.368,-3.3361,-3.3136,-3.2858,-3.2517,-3.1933,-3.166,-3.166,-3.1351,-3.119,-3.119,-3.119,-3.119,-3.119,-3.119,-3.1112,-3.0918,-3.0021,-2.954,-2.9316,-2.8448,-2.8076,-2.803,-2.7527,-2.7281,-2.7235,-2.6559,-2.6331,-2.6331,-2.6156,-2.6752,-2.7535,-2.7006,-2.6841,-2.6752,-2.6258,-2.6108,-2.6108,-2.6108,-2.6108,-2.6108,-2.6108,-2.5989,-2.5854,-2.5854,-2.5734,-2.5615,-2.5615,-2.5226,-2.4821,-2.4821,-2.4462,-2.4175,-2.4407,-2.4554,-2.4934,-2.5852,-2.612,-2.6297,-2.6657,-2.6791,-2.7004,-2.7409,-2.753,-2.7833,-2.8515,-2.8565,-2.8682,-2.8994,-2.8994,-2.8994,-2.8994,-2.8994,-2.8994,-2.8994,-2.9267,-2.9412,-2.9412,-2.9643,-2.9763,-2.978,-3.0003,-3.0089,-0.6064,-0.7671,-1.0313,-1.3021,-1.4944,-1.683,-1.9249,-2.1042,-2.2867,-2.5359,-2.7463,-2.9524,-3.1672,-3.2679,-3.3429,-3.4093,-3.4087,-3.4037,-3.4184,-3.4208,-3.4237,0.0,-3.4423,-3.4489,-3.4674,-3.4694,-3.4632,-3.4423,-3.4141,-3.3831,-3.3476,-3.3302,-3.2983,-3.2517,-3.2022,-3.1733,-3.1545,-3.1329,-3.119,-3.119,-3.0869,-3.0717,-3.0717,-3.0378,-3.0095,-2.9788,-2.9132,-2.8667,-2.8363,-2.7473,-2.7063,-2.7033,-2.6399,-2.6153,-2.6123,-2.5749,-2.5615,-2.5615,-2.5615,-2.6093,-2.6647,-2.6273,-2.6153,-2.6093,-2.5719,-2.5615,-2.5615,-2.5615,-2.5615,-2.5615,-2.5615,-2.539,-2.5181,-2.5181,-2.4956,-2.4717,-2.4717,-2.4448,-2.4178,-2.4178,-2.3864,-2.3681,-2.3991,-2.4225,-2.4576,-2.5221,-2.5689,-2.6085,-2.6367,-2.659,-2.6841,-2.7272,-2.7439,-2.7776,-2.835,-2.8565,-2.8749,-2.8994,-2.8994,-2.8994,-2.8994,-2.8994,-2.8994,-2.8994,-2.9267,-2.9412,-2.9412,-2.9607,-2.9748,-2.9829,-2.9954,-3.0061,-0.9333,-1.2725,-1.5508,-1.7929,-1.7831,-1.7811,-2.0348,-2.2189,-2.3997,-2.6603,-2.8215,-2.9952,-3.2353,-3.3114,-3.3643,-3.4551,0.0,-3.4379,-3.4653,-3.4694,-3.4714,-3.4734,-3.4754,-3.4773,-3.4793,-3.4812,-3.4736,-3.4603,-3.432,-3.4059,-3.385,-3.3385,-3.2847,-3.2216,-3.1795,-3.1367,-3.0903,-3.0903,-3.0903,-3.0886,-3.026,-2.9956,-2.9939,-2.9279,-2.872,-2.8229,-2.8135,-2.7761,-2.7185,-2.6642,-2.6332,-2.6243,-2.5681,-2.548,-2.5465,-2.5375,-2.533,-2.533,-2.533,-2.533,-2.536,-2.545,-2.548,-2.5465,-2.5375,-2.533,-2.533,-2.533,-2.533,-2.533,-2.533,-2.482,-2.4357,-2.4448,-2.394,-2.3508,-2.3595,-2.3595,-2.3595,-2.3595,-2.3595,-2.3595,-2.3595,-2.3991,-2.4307,-2.4389,-2.5259,-2.5924,-2.5997,-2.6401,-2.6841,-2.7178,-2.756,-2.7964,-2.8298,-2.8682,-2.8952,-2.8994,-2.8994,-2.8994,-2.8994,-2.8994,-2.8994,-2.8994,-2.9267,-2.9412,-2.9412,-2.9607,-2.978,-2.9969,-2.9984,-3.0117,-1.7941,-1.9043,-1.9789,-2.1158,-2.1365,-2.1467,-2.2533,-2.3757,0.0,-2.7795,-2.9632,-3.1324,-3.312,-3.3762,-3.4176,-3.4632,-3.4653,-3.4632,-3.4694,-3.4694,-3.4774,0.0,-3.5016,-3.5122,-3.5354,-3.5369,-3.4967,-3.4025,-3.3897,-3.396,-3.4134,-3.3232,-3.2045,-3.0623,-3.0511,-3.014,-2.9401,-2.9364,-2.9364,-2.9364,-2.9228,-2.9178,-2.9178,-2.9042,-2.8938,-2.8811,-2.8323,-2.7802,-2.7253,-2.6626,-2.6123,-2.5679,-2.5016,-2.4746,-2.4732,-2.4163,-2.3954,-2.3954,-2.3954,-2.3954,-2.4044,-2.4567,-2.4746,-2.4642,-2.4118,-2.3954,-2.3954,-2.3954,-2.3954,-2.3954,-2.3954,-2.3496,-2.3139,-2.3643,-2.3275,-2.3009,-2.3508,-2.3595,-2.3595,-2.3595,-2.3595,-2.3595,-2.3595,-2.3681,-2.3879,-2.4348,-2.495,-2.5503,-2.5924,-2.6401,-2.6725,-2.6791,-2.7178,-2.756,-2.7936,-2.829,-2.8658,-2.8994,-2.8994,-2.8994,-2.8994,-2.8994,-2.8994,-2.8994,-2.9267,-2.9412,-2.9412,-2.9607,-2.9731,-2.9765,-2.9924,-3.0028,-2.2034,-2.2222,-2.2552,-2.3257,-2.347,-2.373,-2.471,0.0,0.0,0.0,-3.1133,-3.2469,-3.4083,-3.443,0.0,-3.5105,-3.5054,-3.5031,-3.5199,-3.5226,-3.5271,-3.5403,-3.5415,-3.528,-3.4901,-3.4882,-3.4455,-3.3403,-3.3188,-3.307,-3.2956,-3.2137,-3.1319,-3.0552,-3.0074,-2.964,-2.9264,-2.9102,-2.9011,-2.8975,-2.8569,-2.8383,-2.8366,-2.7977,-2.7791,-2.7791,-2.7509,-2.7238,-2.6944,-2.611,-2.5634,-2.5308,-2.4413,-2.4088,-2.4059,-2.3729,-2.3595,-2.3595,-2.3595,-2.3595,-2.3655,-2.3984,-2.4088,-2.4029,-2.3699,-2.3595,-2.3595,-2.3595,-2.3595,-2.3595,-2.3595,-2.3377,-2.3246,-2.3508,-2.3377,-2.3246,-2.3551,-2.3363,-2.3143,-2.3143,-2.3143,-2.3143,-2.3143,-2.3377,-2.3681,-2.3948,-2.443,-2.4989,-2.5486,-2.6033,-2.6436,-2.6657,-2.7241,-2.7678,-2.7897,-2.8386,-2.8797,-2.8994,-2.8994,-2.8994,-2.8994,-2.8994,-2.8994,-2.8994,-2.9134,-2.9267,-2.9412,-2.9494,-2.9643,-2.9861,-2.9954,-3.0075,-2.4848,-2.464,-2.4717,-2.5258,-2.5383,-2.576,-2.7038,-2.7897,0.0,-3.1133,-3.2117,-3.3013,-3.4314,-3.4558,-3.4716,0.0,-3.5325,-3.5394,-3.5663,-3.5703,-3.5645,-3.545,-3.5431,0.0,-3.4147,-3.4032,-3.3643,-3.274,-3.223,-3.1839,-3.1576,-3.1047,-3.0604,-3.0305,-2.9624,-2.9216,-2.9169,-2.8819,-2.8662,-2.8609,-2.791,-2.7571,-2.7554,-2.6962,-2.6691,-2.6691,-2.659,-2.647,-2.6315,-2.5395,-2.495,-2.4776,-2.3921,-2.3595,-2.3595,-2.3595,-2.3595,-2.3595,-2.3595,-2.3595,-2.3595,-2.3595,-2.3595,-2.3595,-2.3595,-2.3595,-2.3595,-2.3595,-2.3595,-2.3595,-2.3595,-2.3508,-2.3377,-2.3216,-2.3172,-2.3172,-2.3172,-2.2815,-2.2543,-2.2649,-2.2694,-2.274,-2.2875,-2.329,-2.3595,-2.3595,-2.4074,-2.4576,-2.5128,-2.5652,-2.6191,-2.6657,-2.7348,-2.7783,-2.7783,-2.836,-2.8791,-2.8863,-2.8863,-2.8905,-2.8994,-2.8994,-2.8994,-2.8994,-2.9062,-2.92,-2.9412,-2.9493,-2.9696,-2.9999,-3.0061,-3.0196,-2.8347,-2.745,-2.6809,-2.7801,-2.8043,-2.8408,-2.9757,0.0,-3.0937,-3.1402,-3.1895,-3.2359,-3.2766,-3.3511,-3.4177,0.0,0.0,-3.5663,-3.5703,-3.5703,-3.5431,-3.4704,0.0,0.0,-3.3381,-3.3197,-3.2784,-3.1951,-3.0855,-3.0362,-3.07,-3.0652,-3.0014,-2.8655,-2.854,-2.8353,-2.8052,-2.7666,-2.7448,-2.7448,-2.701,-2.6793,-2.6793,-2.6725,-2.6691,-2.6691,-2.6262,-2.5799,-2.5281,-2.4697,-2.4199,-2.3767,-2.3638,-2.3595,-2.3595,-2.3595,-2.3595,-2.3595,-2.3595,-2.3595,-2.3595,-2.3595,-2.3595,-2.3595,-2.3595,-2.3595,-2.3595,-2.3595,-2.3595,-2.3595,-2.3595,-2.3187,-2.2634,-2.2039,-2.1885,-2.1885,-2.1885,-2.1838,-2.1946,-2.2603,-2.2694,-2.2875,-2.3421,-2.3551,-2.3595,-2.3595,-2.4074,-2.4576,-2.5128,-2.5652,-2.6191,-2.6657,-2.7083,-2.7365,-2.7365,-2.7736,-2.8129,-2.8446,-2.8446,-2.8633,-2.8975,-2.8994,-2.8994,-2.8994,-2.9225,-2.9372,-2.9412,-2.9782,-2.9969,-3.0013,-3.0254,-3.0386,-2.947,-2.9196,-2.9122,-2.9697,-2.9826,-3.0068,-3.0892,0.0,-3.1504,-3.2049,-3.2317,-3.2557,-3.289,-3.3264,-3.358,0.0,0.0,0.0,-3.5093,-3.5545,-3.5759,-3.5447,-3.494,-3.4267,-3.334,-3.2747,-3.2007,-3.1088,-3.0529,-3.0247,-3.0236,-3.0001,-2.9539,-2.8773,-2.854,-2.8237,-2.7897,-2.75,-2.7178,-2.6939,-2.6791,-2.6691,-2.6691,-2.6691,-2.6691,-2.6691,-2.6505,-2.628,-2.6052,-2.5205,-2.4752,-2.4511,-2.3837,-2.3595,-2.3595,-2.3595,-2.3595,-2.3595,-2.3595,-2.3595,-2.3595,-2.3595,-2.3595,-2.3508,-2.3157,-2.3334,-2.345,-2.2651,-2.2756,-2.2965,-2.256,-2.2285,-2.2039,-2.1744,-2.1697,-2.1697,-2.1697,-2.1424,-2.1259,-2.1513,-2.1561,-2.1738,-2.2363,-2.2801,-2.3187,-2.3551,-2.3794,-2.4116,-2.4672,-2.4894,-2.5373,-2.6175,-2.6872,-2.7303,-2.7303,-2.7648,-2.8047,-2.8394,-2.8394,-2.8565,-2.8975,-2.8994,-2.8994,-2.8994,-2.9267,-2.9454,-2.9589,-2.9861,-2.9999,-3.0013,-3.0286,-3.0311,-3.0102,-3.025,-3.0497,-3.0596,-3.0644,-3.0727,0.0,0.0,-3.1307,-3.1896,-3.2027,-3.2115,-3.2415,-3.2708,-3.2911,0.0,0.0,-3.4344,-3.4668,-3.5234,-3.5625,-3.5625,-3.5078,-3.4257,-3.3094,-3.2137,-3.1281,-3.0554,-3.043,-3.0279,-3.0013,-2.9731,-2.9435,-2.9134,-2.8755,-2.8464,-2.8228,-2.7736,-2.7334,-2.7051,-2.6808,-2.6691,-2.6691,-2.6691,-2.6691,-2.6691,-2.6539,-2.647,-2.6436,-2.5561,-2.5221,-2.5105,-2.4184,-2.3837,-2.3837,-2.3681,-2.3595,-2.3595,-2.3595,-2.3595,-2.3595,-2.3595,-2.3595,-2.3465,-2.2634,-2.286,-2.3143,-2.2239,-2.2193,-2.23,-2.1805,-2.1568,-2.1424,-2.1424,-2.128,-2.1135,-2.1135,-2.0818,-2.0547,-2.0746,-2.0795,-2.1028,-2.1866,-2.2193,-2.268,-2.3465,-2.3465,-2.358,-2.4307,-2.4389,-2.4816,-2.5888,-2.6539,-2.697,-2.7115,-2.7378,-2.7765,-2.8237,-2.8264,-2.8464,-2.8994,-2.8994,-2.8994,-2.8994,-2.9267,-2.9474,-2.9626,-2.9813,-2.9939,-3.0013,-3.0196,-3.0222,-3.06,-3.06,-3.0535,-3.0265,-3.0258,-3.0279,-3.0232,-3.0269,-3.0369,-3.0581,-3.0676,-3.0713,-3.0732,-3.1537,-3.2207,-3.2207,-3.2891,0.0,-3.457,-3.4707,-3.4707,-3.4707,-3.4707,-3.4043,-3.2363,-3.1246,-3.0568,-3.0507,-3.043,-3.0279,-3.0013,-2.9999,-2.9813,-2.9412,-2.9134,-2.8994,-2.8994,-2.8255,-2.7897,-2.7869,-2.7083,-2.6691,-2.6691,-2.6691,-2.6691,-2.6657,-2.6227,-2.6013,-2.5977,-2.5411,-2.5221,-2.5144,-2.4576,-2.4389,-2.4307,-2.3794,-2.3595,-2.3595,-2.3595,-2.3595,-2.3595,-2.3595,-2.3595,-2.3363,-2.2086,-2.2193,-2.2694,-2.2694,-2.2193,-2.1697,-2.1697,-2.1245,-2.0795,-2.0795,-2.0295,-1.9798,-1.9798,-1.9798,-2.0003,-2.0646,-2.0795,-2.1175,-2.2466,-2.2146,-2.2132,-2.3406,-2.3098,-2.3128,-2.4266,-2.4389,-2.4816,-2.5888,-2.6013,-2.6191,-2.6657,-2.6725,-2.7051,-2.7869,-2.7897,-2.8228,-2.897,-2.8994,-2.8994,-2.8994,-2.9267,-2.9412,-2.9412,-2.9607,-2.9796,-2.9999,-2.9999,-3.015,-3.0566,-3.0527,-3.0507,-3.0378,-3.0388,-3.0429,-3.0403,-3.0451,-3.0529,-3.0642,-3.0687,-3.0721,-3.0816,-3.1093,-3.1309,-3.1309,-3.248,-3.3496,0.0,0.0,0.0,-3.5586,-3.4531,-3.3398,-3.2305,-3.1227,-3.0594,-3.0568,-3.0462,-3.0367,-3.0267,-3.0089,-2.9813,-2.9394,-2.931,-2.9034,-2.859,-2.8342,-2.7974,-2.7487,-2.7241,-2.6971,-2.6691,-2.6691,-2.6691,-2.6691,-2.6556,-2.647,-2.6401,-2.5561,-2.5221,-2.5105,-2.4199,-2.3837,-2.3837,-2.3681,-2.3595,-2.3595,-2.3595,-2.3595,-2.3595,-2.3595,-2.3334,-2.292,-2.2498,-2.2543,-2.2512,-2.1657,-2.0917,-2.0421,-2.0421,-2.0232,-2.0105,-2.0105,-1.9952,-1.9798,-1.9798,-1.9798,-1.985,-2.0105,-2.0105,-2.0396,-2.1272,-2.1224,-2.15,-2.2785,-2.283,-2.2965,-2.3752,-2.3837,-2.4266,-2.5335,-2.5449,-2.5799,-2.6624,-2.6691,-2.7051,-2.784,-2.7619,-2.7936,-2.897,-2.8749,-2.8725,-2.8994,-2.9267,-2.9412,-2.9412,-2.9607,-2.9796,-2.9999,-2.9999,-3.015,0.0,-3.0653,-3.0639,-3.0546,-3.0579,0.0,-3.0582,-3.0648,-3.0723,-3.0767,-3.0771,-3.0793,-3.0879,-3.0898,-3.0996,-3.1265,-3.2181,-3.31,-3.3764,-3.4799,-3.5602,-3.5957,-3.4453,-3.3203,-3.2695,-3.1438,-3.0633,-3.0606,-3.0498,-3.0428,-3.041,-3.0241,-2.9988,-2.9644,-2.9493,-2.9144,-2.8615,-2.8471,-2.8166,-2.7718,-2.7439,-2.7178,-2.6939,-2.6791,-2.6691,-2.6691,-2.6691,-2.6691,0.0,-2.5999,-2.5672,-2.5411,-2.4536,-2.4074,-2.3879,-2.3681,-2.3595,-2.3595,-2.3595,-2.3595,-2.3595,-2.3595,-2.3039,-2.23,-2.23,-2.2161,-2.1752,-2.0733,-2.0105,-1.9798,-1.9798,-1.9798,-1.9798,-1.9798,-1.9798,-1.9798,-1.9798,-1.9798,-1.9798,-1.9798,-1.9798,-2.0003,-2.0696,-2.0597,-2.0881,-2.2114,-2.2114,-2.2314,-2.3143,-2.3246,-2.3694,-2.4776,-2.491,-2.5335,-2.6367,-2.659,-2.7004,-2.7619,-2.7439,-2.7707,-2.8533,-2.8464,-2.8515,-2.8773,-2.9093,-2.9246,-2.9246,-2.9551,-2.9763,-2.9893,-3.0061,-3.0241,0.0,-3.0898,-3.0859,-3.0712,-3.0797,-3.0859,-3.0728,-3.0796,0.0,-3.0898,-3.0898,-3.0898,-3.0898,-3.0937,-3.1207,-3.1877,-3.2104,-3.2728,-3.4378,-3.4654,-3.5001,-3.58,-3.4414,-3.3379,-3.332,-3.1729,-3.0677,-3.0611,-3.0545,-3.0463,-3.039,-3.0398,-3.0286,-3.0013,-2.9607,-2.9289,-2.904,-2.8658,-2.842,-2.8394,-2.7718,-2.7348,-2.7303,-2.6906,-2.6725,-2.6691,-2.6691,-2.6691,-2.6691,-2.6657,-2.6367,-2.5888,-2.5335,-2.4831,-2.4266,-2.3794,-2.3595,-2.3595,-2.3595,-2.3595,-2.3595,-2.3508,-2.2651,-2.1615,-2.1554,-2.1148,-2.0597,-2.0003,-1.9798,-1.9798,-1.9798,-1.9798,-1.9798,-1.9798,-1.9798,-1.9798,-1.9798,-1.9798,-1.9798,-1.9798,-1.9798,-2.0003,-2.0597,-2.0194,-2.0232,-2.1472,-2.121,-2.1321,-2.2558,-2.274,-2.3172,-2.4266,-2.4389,-2.4816,-2.5852,-2.6367,-2.6841,-2.7255,-2.7255,-2.7439,-2.7869,-2.821,-2.8394,-2.8394,-2.8815,-2.8994,-2.8994,-2.9456,-2.9696,-2.9713,-3.0188,-3.0398,-3.0898,0.0,-3.0657,-3.063,-3.069,-3.0747,0.0,0.0,0.0,0.0,0.0,0.0,-3.0769,-3.1289,-3.178,-3.1899,-3.3037,-3.4072,-3.4546,-3.5222,-3.5506,-3.5059,-3.4062,-3.3164,-3.2539,-3.1395,-3.0677,-3.0611,-3.0545,-3.0463,-3.039,-3.0398,-3.0286,-3.0013,-2.9746,-2.9532,-2.931,-2.9026,-2.8707,-2.8394,-2.8219,-2.7862,-2.7303,-2.721,-2.7004,-2.6691,-2.6691,-2.6691,-2.6657,-2.6297,-2.5852,-2.5335,-2.4776,-2.4266,-2.3752,-2.3638,-2.3595,-2.3595,-2.3595,-2.3595,-2.345,-2.2455,-2.1615,-2.093,-2.037,-2.0144,-2.0003,-1.985,-1.9798,-1.9798,-1.9798,-1.9798,-1.9798,-1.9798,-1.9798,-1.9798,-1.9798,-1.9798,-1.9798,-1.9798,-1.9798,-1.985,-2.0003,-1.9901,-2.0093,-2.0881,-2.1293,-2.1771,-2.2603,-2.3098,-2.3666,-2.4307,-2.4389,-2.4672,-2.5335,-2.5888,-2.6488,-2.7255,-2.6987,-2.7147,-2.7869,-2.7982,-2.8129,-2.8376,-2.8815,-2.8994,-2.8994,-2.9456,-2.9696,-2.9713,-3.0188,-3.0398,-3.0898,-3.0811,-3.0746,-3.0746,-3.0762,-3.0793,0.0,0.0,0.0,0.0,0.0,0.0,0.0,0.0,-3.2049,-3.2353,-3.3587,-3.4646,-3.5056,-3.5541,-3.5564,-3.4757,-3.3879,-3.3043,-3.2285,-3.1345,-3.0735,-3.0611,-3.0561,-3.0498,-3.041,-3.0398,-3.0286,-3.0013,-2.9796,-2.9607,-2.9412,-2.9134,-2.8905,-2.8682,-2.8471,-2.8112,-2.756,-2.7378,-2.7083,-2.6691,-2.6691,-2.6691,-2.6657,-2.6191,-2.5689,-2.5144,-2.4632,-2.4074,-2.3595,-2.3595,-2.3595,-2.3595,-2.3595,-2.3595,-2.345,-2.2469,-2.1724,-2.1113,-2.0434,-2.0055,-1.9798,-1.9798,-1.9798,-1.9798,-1.9798,-1.9798,-1.9798,-1.9798,-1.9798,-1.9798,-1.9798,-1.9798,-1.9798,-1.9798,-1.9798,-1.9798,-1.9798,-1.9798,-2.0055,-2.0696,-2.0818,-2.1183,-2.21,-2.2285,-2.2651,-2.355,-2.3621,-2.396,-2.4776,-2.5105,-2.5693,-2.6623,-2.6708,-2.7004,-2.7589,-2.7811,-2.8129,-2.8658,-2.8905,-2.8994,-2.8994,-2.9456,-2.9696,-2.9713,-3.0188,-3.0398,-3.0898,-3.0898,-3.0879,-3.0898,-3.0898,-3.0898,0.0,0.0,0.0,0.0,0.0,0.0,0.0,-3.1495,0.0,0.0,-3.4026,-3.4918,-3.5606,-3.5612,-3.5276,-3.4502,-3.3665,-3.2836,-3.209,-3.1328,-3.0811,-3.0617,-3.0606,-3.0545,-3.0402,-3.0398,-3.0299,-3.0075,-2.9832,-2.9626,-2.9454,-2.9156,-2.8994,-2.8994,-2.859,-2.8237,-2.7897,-2.747,-2.7083,-2.6691,-2.6691,-2.6691,-2.6657,-2.6262,-2.5762,-2.5128,-2.4712,-2.4142,-2.3595,-2.3595,-2.3595,-2.3595,-2.3595,-2.345,-2.3216,-2.2725,-2.2053,-2.1328,-2.0782,-2.0245,-1.9798,-1.9798,-1.9798,-1.9798,-1.9798,-1.9798,-1.9798,-1.9798,-1.9798,-1.9798,-1.9798,-1.9798,-1.9798,-1.9798,-1.9798,-1.9798,-1.9798,-1.9798,-2.0003,-2.0547,-2.0245,-2.0333,-2.1424,-2.1307,-2.1513,-2.2558,-2.2785,-2.3216,-2.4184,-2.4348,-2.4816,-2.5815,-2.6332,-2.6808,-2.7272,-2.7636,-2.8147,-2.8887,-2.8905,-2.8929,-2.8994,-2.9456,-2.9696,-2.9713,-3.0188,-3.0398,-3.0898,-3.0816,-3.0767,-3.0878,-3.0898,-3.0878,0.0,0.0,0.0,0.0,0.0,0.0,0.0,-3.2279,-3.3083,0.0,-3.4855,-3.5567,-3.5684,-3.5217,-3.4548,-3.369,-3.2851,-3.203,-3.1172,-3.0976,-3.0811,-3.0617,-3.0606,-3.0545,-3.0402,-3.0398,-3.0367,-3.0343,-2.9912,-2.9678,-2.9643,-2.9228,-2.8994,-2.8994,-2.859,-2.8237,-2.7897,-2.747,-2.7083,-2.6691,-2.6691,-2.6691,-2.6691,-2.6624,-2.6052,-2.5182,-2.5105,-2.4471,-2.3595,-2.3595,-2.3595,-2.3595,-2.3595,-2.2891,-2.1993,-2.1899,-2.1037,-2.0093,-2.0003,-1.9901,-1.9798,-1.9798,-1.9798,-1.9798,-1.9798,-1.9798,-1.9798,-1.9798,-1.9798,-1.9798,-1.9798,-1.9798,-1.9798,-1.9798,-1.9798,-1.9798,-1.9798,-1.9798,-1.985,-1.9952,-2.0359,-2.0696,-2.093,-2.1799,-2.2466,-2.2694,-2.3143,-2.3551,-2.3724,-2.4158,-2.4657,-2.5297,-2.5815,-2.6471,-2.7272,-2.7348,-2.7747,-2.8471,-2.8471,-2.8658,-2.8994,-2.9456,-2.9696,-2.9713,-3.0188,-3.0398,-3.0898,-3.0795,-3.0718,-3.0771,-3.0762,-3.0723,-3.0661,0.0,0.0,0.0,0.0,0.0,0.0,0.0,-3.3944,-3.4817,-3.5306,-3.5466,-3.5106,-3.4711,-3.4033,-3.2797,-3.2313,-3.1771,-3.0976,-3.0898,-3.0835,-3.0665,-3.0628,-3.0567,-3.0462,-3.0417,-3.0323,-3.0196,-2.988,-2.9643,-2.9551,-2.9181,-2.8994,-2.8994,-2.8797,-2.8515,-2.8156,-2.7794,-2.7409,-2.6987,-2.6774,-2.6691,-2.6691,-2.6436,-2.6068,-2.5615,-2.5297,-2.4894,-2.443,-2.4158,-2.3837,-2.3595,-2.3595,-2.2995,-2.2193,-2.1805,-2.1099,-2.0245,-1.9901,-1.9798,-1.9798,-1.9798,-1.9798,-1.9798,-1.9798,-1.9798,-1.9798,-1.9798,-1.9798,-1.9798,-1.9798,-1.9798,-1.9798,-1.9798,-1.9798,-1.9798,-1.9798,-1.9798,-1.9901,-2.0295,-2.0295,-2.0396,-2.0746,-2.0966,-2.1259,-2.1657,-2.1927,-2.2346,-2.3054,-2.3348,-2.4112,-2.554,-2.6317,-2.6872,-2.7286,-2.75,-2.788,-2.8394,-2.8394,-2.867,-2.9222,-2.9551,-2.9765,-2.9877,-3.0228,-3.0398,-3.0898,-3.079,-3.068,-3.068,0.0,-3.06,-3.0581,0.0,0.0,0.0,0.0,0.0,0.0,-3.3199,-3.4366,-3.4889,-3.4948,-3.4751,-3.4275,-3.3934,-3.3342,-3.2176,-3.187,-3.1511,-3.0957,-3.0898,-3.0838,-3.0718,-3.0648,-3.0568,-3.0507,-3.0449,-3.0311,-3.0089,-2.9877,-2.9696,-2.9533,-2.9228,-2.9044,-2.8994,-2.8887,-2.8682,-2.8394,-2.8047,-2.7678,-2.7286,-2.6954,-2.6791,-2.6657,-2.6297,-2.612,-2.5977,-2.554,-2.5297,-2.5144,-2.4592,-2.4158,-2.3752,-2.3638,-2.3187,-2.2603,-2.21,-2.1403,-2.0696,-2.0207,-1.9901,-1.9798,-1.9798,-1.9798,-1.9798,-1.9798,-1.9798,-1.9798,-1.9798,-1.9798,-1.9798,-1.9798,-1.9798,-1.9798,-1.9798,-1.9798,-1.9798,-1.9798,-1.9798,-1.9952,-2.0497,-2.0156,-2.0003,-2.0497,-2.0245,-2.0245,-2.0759,-2.1091,-2.1704,-2.283,-2.3054,-2.3819,-2.5524,-2.6352,-2.6871,-2.7002,-2.7299,-2.7718,-2.8272,-2.829,-2.8652,-2.9412,-2.9607,-2.978,-2.9939,-3.0254,-3.0367,-3.0898,-3.0755,-3.0611,-3.0611,0.0,0.0,-3.0513,-3.0516,0.0,-3.0417,0.0,0.0,0.0,-3.3564,-3.3962,-3.3211,-3.3186,-3.3275,-3.3297,-3.2645,-3.2165,-3.2187,-3.1464,-3.0957,-3.0918,-3.0898,-3.0838,-3.0718,-3.0648,-3.0568,-3.0507,-3.0449,-3.0398,-3.0367,-3.0122,-2.9969,-2.9954,-2.957,-2.9246,-2.8994,-2.8633,-2.842,-2.8394,-2.8047,-2.7678,-2.7303,-2.7272,-2.7051,-2.6691,-2.6657,-2.6401,-2.6013,-2.5977,-2.5652,-2.5144,-2.4592,-2.4389,-2.4266,-2.3752,-2.3187,-2.2694,-2.2649,-2.1799,-2.0795,-2.0746,-2.0295,-1.9798,-1.9798,-1.9798,-1.9798,-1.9798,-1.9798,-1.9798,-1.9798,-1.9798,-1.9798,-1.9798,-1.9798,-1.9798,-1.9798,-1.9798,-1.9798,-1.9798,-1.9798,-1.9811,-1.985,-1.985,-1.9798,-1.985,-2.0346,-2.0759,-2.0795,-2.1846,-2.283,-2.3465,-2.3991,-2.4348,-2.4511,-2.5051,-2.5561,-2.6068,-2.6139,-2.6707,-2.7926,-2.7954,-2.8428,-2.9412,-2.9607,-2.9713,-2.9731,-3.0188,-3.0267,-3.0898,-3.0752,-3.0606,-3.0606,0.0,0.0,0.0,0.0,-3.0439,-3.0421,-3.0833,0.0,0.0,-3.316,-3.3276,-3.2949,-3.2952,-3.2831,-3.2448,-3.2127,-3.1808,-3.1445,-3.1094,-3.0898,-3.0898,-3.0898,-3.0879,-3.0836,-3.0685,-3.0594,-3.0561,-3.0452,-3.0398,-3.0398,-3.0136,-2.9939,-2.9813,-2.9551,-2.9267,-2.8994,-2.8839,-2.8773,-2.8749,-2.8174,-2.7811,-2.7666,-2.7147,-2.6841,-2.6691,-2.6691,-2.659,-2.6453,-2.6453,-2.5944,-2.5182,-2.4973,-2.4471,-2.3879,-2.3681,-2.3187,-2.2649,-2.2193,-2.15,-2.0696,-2.0295,-2.0003,-1.9798,-1.9798,-1.9798,-1.9798,-1.9798,-1.9798,-1.9798,-1.9798,-1.9798,-1.9798,-1.9798,-1.9798,-1.9798,-1.9798,-1.9798,-1.9798,-1.9798,-1.9798,-1.9798,-1.9798,-1.9798,-1.9798,-1.9798,-2.0003,-2.0207,-2.0207,-2.1342,-2.2193,-2.2409,-2.3318,-2.3906,-2.3906,-2.5012,-2.5779,-2.5997,-2.6539,-2.7144,-2.7897,-2.8102,-2.8603,-2.9412,-2.9493,-2.9643,-2.9893,-3.0061,-3.0196,-3.0898,-3.0762,-3.0633,0.0,0.0,0.0,0.0,0.0,0.0,-3.0398,-3.1102,-3.1775,-3.2064,0.0,-3.2429,-3.216,-3.2122,-3.1954,-3.153,-3.1475,-3.1325,-3.0892,-3.0879,-3.0898,-3.0898,-3.0898,-3.0898,-3.0898,-3.0729,-3.0628,-3.0606,-3.0481,-3.0417,-3.041,-3.0209,-3.0018,-2.9796,-2.9589,-2.9373,-2.9134,-2.904,-2.8994,-2.8994,-2.8482,-2.812,-2.7869,-2.7334,-2.6939,-2.6691,-2.6691,-2.6691,-2.6691,-2.6691,-2.628,-2.5635,-2.5335,-2.4752,-2.4074,-2.3724,-2.3334,-2.292,-2.2469,-2.1758,-2.1015,-2.0521,-2.0131,-1.9798,-1.9798,-1.9798,-1.9798,-1.9798,-1.9798,-1.9798,-1.9798,-1.9798,-1.9798,-1.9798,-1.9798,-1.9798,-1.9798,-1.9798,-1.9798,-1.9798,-1.9798,-1.9798,-1.9798,-1.9798,-1.9798,-1.9798,-1.9798,-1.9901,-2.0105,-2.0917,-2.1472,-2.1697,-2.2711,-2.3334,-2.3334,-2.4855,-2.5742,-2.5742,-2.6488,-2.7144,-2.7678,-2.7946,-2.8417,-2.9212,-2.9212,-2.9418,-2.9813,-2.9939,-3.0061,-3.0898,-3.0795,-3.0684,0.0,0.0,0.0,0.0,0.0,0.0,-3.0398,-3.1102,-3.1429,-3.0552,-3.1121,-3.141,-3.0533,-3.0398,-3.0417,-3.0481,-3.0547,-3.0614,-3.069,-3.0816,-3.0898,-3.0898,-3.0898,-3.0898,-3.0898,-3.0771,-3.0673,-3.0606,-3.0537,-3.0463,-3.041,-3.0398,-3.0267,-2.9999,-2.9796,-2.9607,-2.9392,-2.9134,-2.9017,-2.8994,-2.8994,-2.8601,-2.7897,-2.7897,-2.7439,-2.6725,-2.6691,-2.6691,-2.6691,-2.6691,-2.6691,-2.6573,-2.5561,-2.5221,-2.5028,-2.3991,-2.3595,-2.3595,-2.3595,-2.2741,-2.1697,-2.1697,-2.0805,-1.9798,-1.9798,-1.9798,-1.9798,-1.9798,-1.9798,-1.9798,-1.9798,-1.9798,-1.9798,-1.9798,-1.9798,-1.9798,-1.9798,-1.9798,-1.9798,-1.9798,-1.9798,-1.9798,-1.9798,-1.9798,-1.9798,-1.9798,-1.9798,-2.0055,-2.0696,-2.0795,-2.1028,-2.1663,-2.23,-2.2694,-2.2694,-2.4261,-2.5182,-2.5221,-2.5726,-2.6402,-2.7286,-2.7303,-2.7809,-2.8815,-2.8815,-2.9027,-2.9412,-2.9813,-2.9893,-3.0898,-3.0795,0.0,-3.0677,0.0,0.0,0.0,0.0,0.0,0.0,-3.0609,-3.0717,-3.0436,-3.0609,-3.0698,-3.0436,-3.0398,-3.0417,-3.0481,-3.0547,-3.0614,-3.069,-3.0816,-3.0898,-3.0898,-3.0898,-3.0898,-3.0898,-3.0771,-3.0673,-3.0606,-3.0537,-3.0463,-3.041,-3.0398,-3.0267,-2.9999,-2.9939,-2.9748,-2.9412,-2.933,-2.9181,-2.8994,-2.8725,-2.8446,-2.8237,-2.7992,-2.7765,-2.75,-2.7241,-2.6971,-2.6691,-2.6691,-2.6521,-2.6191,-2.5872,-2.5297,-2.4592,-2.4266,-2.3921,-2.3508,-2.3098,-2.2725,-2.23,-2.1852,-2.1459,-2.1037,-2.0633,-2.0497,-2.0396,-1.9901,-1.9798,-1.9798,-1.9798,-1.9798,-1.9798,-1.9798,-1.9798,-1.9798,-1.9798,-1.9798,-1.9798,-1.9798,-1.9798,-1.9798,-1.9798,-1.9798,-1.9798,-1.9798,-1.9798,-1.9901,-2.0105,-2.0497,-2.0894,-2.1077,-2.1629,-2.1993,-2.1993,-2.3259,-2.4368,-2.5182,-2.6283,-2.7034,-2.7286,-2.7805,-2.8228,-2.8535,-2.8808,-2.9097,-2.9412,-2.9661,-2.9829,-3.0898,-3.0837,0.0,-3.0718,-3.0648,-3.0561,-3.0505,0.0,0.0,0.0,-3.0398,-3.0398,-3.0398,-3.0398,-3.0398,-3.0398,-3.0398,-3.0414,-3.0452,-3.0545,-3.0603,-3.0661,-3.0792,-3.0898,-3.0898,-3.0898,-3.0879,-3.0817,-3.0745,-3.0665,-3.0561,-3.0513,-3.0463,-3.041,-3.0398,-3.0267,-2.9999,-2.9999,-2.9845,-2.9513,-2.9513,-2.9375,-2.9156,-2.8803,-2.854,-2.8376,-2.8047,-2.7897,-2.7869,-2.7487,-2.7147,-2.6939,-2.6758,-2.6521,-2.6262,-2.6085,-2.5465,-2.4712,-2.4471,-2.4032,-2.3551,-2.3201,-2.2725,-2.2253,-2.1805,-2.1363,-2.0855,-2.0497,-2.0396,-2.0295,-1.9901,-1.9798,-1.9798,-1.9798,-1.9798,-1.9798,-1.9798,-1.9798,-1.9798,-1.9798,-1.9798,-1.9798,-1.9798,-1.9798,-1.9798,-1.9798,-1.9798,-1.9798,-1.9798,-1.9798,-1.9798,-1.9798,-2.0144,-2.0396,-2.0396,-2.0966,-2.1342,-2.1342,-2.2684,-2.383,-2.4505,-2.5969,-2.679,-2.679,-2.7554,-2.8029,-2.821,-2.8583,-2.8915,-2.9246,-2.957,-2.9763,-3.0857,0.0,0.0,-3.0745,-3.0716,0.0,-3.0529,-3.0442,-3.0402,-3.041,-3.0398,-3.0398,-3.0398,-3.0398,-3.0398,-3.0398,-3.0398,-3.0398,-3.0398,-3.0516,-3.0594,-3.0606,-3.078,-3.0879,-3.0879,-3.0898,-3.0839,-3.0706,-3.0701,-3.0661,-3.0521,-3.0505,-3.0482,-3.0414,-3.039,-3.0279,-3.0028,-3.0047,-2.9924,-2.9731,-2.9731,-2.9607,-2.9414,-2.9156,-2.8821,-2.8446,-2.8129,-2.7982,-2.7926,-2.756,-2.7378,-2.7317,-2.6906,-2.6758,-2.6691,-2.6227,-2.5689,-2.5144,-2.4632,-2.4074,-2.3595,-2.3595,-2.2831,-2.1838,-2.1805,-2.0988,-2.0042,-1.9901,-1.9901,-1.9901,-1.9811,-1.9798,-1.9798,-1.9798,-1.9798,-1.9798,-1.9798,-1.9798,-1.9798,-1.9798,-1.9798,-1.9798,-1.9798,-1.9798,-1.9798,-1.9798,-1.9798,-1.9798,-1.9798,-1.9798,-1.9798,-1.9798,-1.9798,-1.9798,-1.9798,-2.0359,-2.0696,-2.0696,-2.2321,-2.3259,-2.3259,-2.5003,-2.6013,-2.6013,-2.6888,-2.753,-2.7897,-2.8264,-2.8658,-2.9044,-2.9476,-2.9713,0.0,-3.0816,0.0,0.0,-3.0771,-3.0654,-3.0529,-3.05,-3.0472,-3.0414,-3.0398,-3.0398,-3.0398,-3.0398,-3.0398,-3.0398,-3.0398,-3.0398,-3.0398,-3.0463,-3.0545,-3.0594,-3.0677,-3.0745,-3.0745,-3.0837,-3.0839,-3.0715,-3.08,-3.0792,-3.0669,-3.0611,-3.0552,-3.0482,-3.0428,-3.0367,-3.0311,-3.0311,-3.0182,-2.9939,-2.9939,-2.9829,-2.9644,-2.9395,-2.916,-2.8863,-2.8791,-2.8583,-2.829,-2.8192,-2.8002,-2.7725,-2.7317,-2.7178,-2.7115,-2.6708,-2.598,-2.5182,-2.5067,-2.4389,-2.3595,-2.3595,-2.3406,-2.3084,-2.2634,-2.23,-2.188,-2.0881,-2.0597,-2.0446,-1.9952,-1.9798,-1.9798,-1.9798,-1.9798,-1.9798,-1.9798,-1.9798,-1.9798,-1.9798,-1.9798,-1.9798,-1.9798,-1.9798,-1.9798,-1.9798,-1.9798,-1.9798,-1.9798,-1.9798,-1.9798,-1.9798,-1.9798,-1.9798,-1.9798,-1.9952,-2.0003,-2.0003,-2.0868,-2.139,-2.139,-2.4331,-2.6013,-2.6013,-2.7175,-2.7794,-2.7897,-2.8558,-2.9026,-2.933,-2.9589,-2.978,0.0,0.0,0.0,-3.0879,0.0,-3.0684,-3.0603,-3.0559,-3.0481,-3.0452,-3.0417,-3.0398,-3.0398,-3.0398,-3.0398,-3.0398,-3.0398,-3.0398,-3.0398,-3.0491,-3.0554,-3.06,-3.0665,-3.0696,-3.0696,-3.0769,-3.0754,-3.0657,-3.0742,-3.0765,-3.0661,-3.0628,-3.0568,-3.0507,-3.0472,-3.0419,-3.0398,-3.0398,-3.0323,-3.0196,-3.0196,-3.008,-2.9829,-2.9644,-2.9415,-2.9181,-2.9181,-2.8984,-2.8658,-2.8471,-2.829,-2.8075,-2.753,-2.7303,-2.7241,-2.6841,-2.6245,-2.5577,-2.5577,-2.4855,-2.3991,-2.3991,-2.3608,-2.3098,-2.2785,-2.2498,-2.2053,-2.1438,-2.1028,-2.0696,-2.0346,-2.0055,-1.9798,-1.9798,-1.9798,-1.9798,-1.9798,-1.9798,-1.9798,-1.9798,-1.9798,-1.9798,-1.9798,-1.9798,-1.9798,-1.9798,-1.9798,-1.9798,-1.9798,-1.9798,-1.9798,-1.9798,-1.9798,-1.9643,-1.9307,-1.9592,-1.9643,-1.9319,-2.0232,-2.0795,-2.0795,-2.3372,-2.4808,-2.4808,-2.6387,-2.723,-2.723,-2.8084,-2.8694,-2.9111,-2.9324,-2.9636,0.0,0.0,0.0,-3.0878,-3.0816,0.0,-3.0716,-3.0603,-3.0529,-3.0513,-3.0452,-3.0398,-3.0398,-3.0398,-3.0398,-3.0398,-3.0398,-3.039,-3.0425,-3.0516,-3.0587,-3.06,-3.0657,-3.068,-3.0673,-3.068,-3.0657,-3.0601,-3.0662,-3.0696,-3.0643,-3.0633,-3.0594,-3.0545,-3.0521,-3.0481,-3.0439,-3.0419,-3.0428,-3.0425,-3.0421,-3.0279,-3.0061,-2.9896,-2.9697,-2.9454,-2.9454,-2.931,-2.9044,-2.8713,-2.8547,-2.842,-2.7689,-2.7409,-2.7365,-2.6873,-2.6401,-2.6013,-2.6013,-2.5297,-2.4389,-2.4389,-2.3721,-2.2844,-2.274,-2.23,-2.1852,-2.1615,-2.121,-2.0746,-2.0646,-2.0207,-1.9798,-1.9798,-1.9798,-1.9798,-1.9798,-1.9798,-1.9798,-1.9798,-1.9798,-1.9798,-1.9798,-1.9798,-1.9798,-1.9798,-1.9798,-1.9747,-1.9643,-1.9592,-1.9579,-1.9423,-1.9527,-1.9371,-1.8768,-1.9371,-1.9527,-1.8927,-1.9978,-2.066,-2.066,-2.2275,-2.3128,-2.3054,-2.5313,-2.6505,-2.6505,-2.7561,-2.8322,-2.8868,-2.9132,-2.9563,0.0,0.0,0.0,0.0,-3.0898,-3.0837,0.0,0.0,-3.0665,-3.0606,-3.0491,-3.0398,-3.0398,-3.0398,-3.0398,-3.0398,-3.0398,-3.0417,-3.0482,-3.0507,-3.0537,-3.0594,-3.0611,-3.0594,-3.0537,-3.0581,-3.0603,-3.0594,-3.0668,-3.0757,-3.0857,-3.0743,-3.0684,-3.0677,-3.0623,-3.0581,-3.0568,-3.0568,-3.0552,-3.0491,-3.0428,-3.0367,-3.0355,-3.033,-3.0071,-2.9661,-2.9661,-2.9533,-2.9351,-2.9291,-2.9119,-2.8839,-2.812,-2.7811,-2.7725,-2.6971,-2.6401,-2.6013,-2.6013,-2.5297,-2.4389,-2.4389,-2.3991,-2.3377,-2.2875,-2.2649,-2.236,-2.1224,-2.0845,-2.0646,-2.0093,-1.985,-1.9798,-1.9798,-1.9798,-1.9798,-1.9798,-1.9798,-1.9798,-1.9798,-1.9798,-1.9798,-1.9798,-1.9798,-1.9798,-1.9798,-1.9798,-1.9579,-1.8927,-1.8874,-1.8608,-1.7961,-1.8447,-1.8821,-1.8715,-1.9371,-1.9747,-1.9643,-1.985,-1.9952,-1.9952,-2.1218,-2.1697,-2.1161,-2.4687,-2.6505,-2.6488,-2.796,-2.8805,-2.9074,-2.9616,-3.0042,-3.0732,0.0,0.0,0.0,-3.0792,-3.0797,-3.0818,-3.0747,-3.069,-3.0669,-3.0581,-3.0498,-3.0462,-3.0452,-3.0452,-3.0452,-3.0452,-3.0482,-3.0552,-3.0594,-3.0617,-3.0606,-3.0606,-3.0575,-3.0516,-3.0521,-3.0533,-3.0533,-3.0633,-3.0713,-3.0726,-3.0715,-3.0683,-3.0659,-3.0582,-3.0533,-3.0544,-3.0544,-3.055,-3.0567,-3.054,-3.0516,-3.0516,-3.0516,-3.0271,-2.9877,-2.9877,-2.9746,-2.9551,-2.9454,-2.933,-2.916,-2.8446,-2.8075,-2.784,-2.7241,-2.6757,-2.6401,-2.6401,-2.5709,-2.4855,-2.4855,-2.4266,-2.3551,-2.3275,-2.3187,-2.3009,-2.2128,-2.1595,-2.1161,-2.0534,-2.0105,-1.9798,-1.9798,-1.9798,-1.9798,-1.9798,-1.9798,-1.9798,-1.9798,-1.9798,-1.9798,-1.9798,-1.9798,-1.9798,-1.9798,-1.9423,-1.9097,-1.8715,-1.8328,-1.7961,-1.7622,-1.8286,-1.8555,-1.8112,-1.915,-1.9423,-1.8608,-1.9359,-1.9631,-1.9202,-2.0458,-2.1077,-2.0795,-2.4051,-2.5579,-2.5201,-2.7061,-2.8265,-2.883,-2.927,-2.9855,0.0,0.0,-3.0594,-3.0665,-3.0687,-3.0721,0.0,-3.0799,-3.0747,-3.0747,-3.0703,-3.0658,-3.0561,-3.0545,-3.0521,-3.0521,-3.0521,-3.0559,-3.0623,-3.0642,-3.0661,-3.0611,-3.0587,-3.0559,-3.0482,-3.0472,-3.0482,-3.0498,-3.06,-3.0624,-3.0606,-3.0657,-3.0654,-3.0597,-3.0557,-3.053,-3.0526,-3.0503,-3.053,-3.0579,-3.0564,-3.055,-3.0575,-3.0575,-3.042,-3.0145,-3.0126,-2.9994,-2.9763,-2.9607,-2.9532,-2.9415,-2.8753,-2.8358,-2.8066,-2.7601,-2.721,-2.6841,-2.6841,-2.6229,-2.5373,-2.5259,-2.4592,-2.3752,-2.3638,-2.3595,-2.3465,-2.2875,-2.2193,-2.1568,-2.0944,-2.0295,-1.9798,-1.9798,-1.9798,-1.9798,-1.9798,-1.9798,-1.9798,-1.9798,-1.9643,-1.9527,-1.9527,-1.9371,-1.9254,-1.9254,-1.8768,-1.8328,-1.8167,-1.7688,-1.7246,-1.7079,-1.7677,-1.8004,-1.7633,-1.8608,-1.8927,-1.8221,-1.9044,-1.9371,-1.8992,-2.0169,-2.0696,-2.056,-2.3443,-2.4697,-2.4219,-2.6454,-2.7842,-2.8498,-2.9013,-2.9671,0.0,-3.0507,0.0,-3.0587,-3.0642,0.0,0.0,-3.0796,-3.0898,-3.0898,-3.0898,-3.0837,-3.0716,-3.0648,-3.06,-3.06,-3.06,-3.0628,-3.0687,-3.0633,-3.0606,-3.0606,-3.0533,-3.0482,-3.0414,-3.0421,-3.0439,-3.049,-3.0516,-3.0537,-3.06,-3.0606,-3.0592,-3.0598,-3.0592,-3.0592,-3.0584,-3.0524,-3.0506,-3.0509,-3.0448,-3.0443,-3.0515,-3.0515,-3.0525,-3.0562,-3.0505,-3.029,-2.9984,-2.9969,-2.9861,-2.9624,-2.9015,-2.8769,-2.8699,-2.8094,-2.7619,-2.7272,-2.7272,-2.669,-2.5888,-2.5373,-2.4816,-2.4266,-2.3752,-2.3595,-2.3465,-2.2875,-2.2193,-2.1568,-2.0944,-2.0295,-1.9798,-1.9798,-1.9798,-1.9798,-1.9798,-1.9798,-1.9798,-1.9798,-1.9254,-1.8768,-1.8768,-1.8178,-1.7688,-1.7688,-1.7688,-1.7413,-1.6708,-1.6595,-1.6322,-1.5575,-1.614,-1.6866,-1.7523,-1.7688,-1.8286,-1.9579,-1.9097,-1.9032,-1.9695,-2.0396,-2.0497,-1.985,-2.2776,-2.4219,-2.4219,-2.6857,-2.8178,-2.8254,-2.9228,-2.9867,0.0,0.0,0.0,-3.0513,-3.0547,-3.0587,-3.0633,-3.0707,-3.0771,-3.0771,-3.0837,-3.0898,-3.0837,-3.0738,-3.065,-3.065,-3.065,-3.0707,-3.0814,-3.0738,-3.0657,-3.0611,-3.0545,-3.0472,-3.0421,-3.0398,-3.0402,-3.0419,-3.0472,-3.0481,-3.0463,-3.0385,-3.0327,-3.0327,-3.0124,-2.9806,-2.9308,-2.9418,-2.9516,-2.9602,-2.9702,-3.004,-3.056,-3.0618,-3.0625,-3.0609,-3.0626,-3.0508,-3.0301,-3.0092,-2.9954,-2.9861,-2.9514,-2.9226,-2.8944,-2.8591,-2.8216,-2.7822,-2.7435,-2.6853,-2.625,-2.5855,-2.5144,-2.4348,-2.4184,-2.3879,-2.3465,-2.2875,-2.2193,-2.1568,-2.0944,-2.0295,-1.9798,-1.9798,-1.9798,-1.9798,-1.9798,-1.9798,-1.9798,-1.9798,-1.9202,-1.8715,-1.8715,-1.8112,-1.7578,-1.7578,-1.7191,-1.681,-1.6549,-1.6093,-1.569,-1.541,-1.6036,-1.6595,-1.6866,-1.7302,-1.7852,-1.8328,-1.8608,-1.8821,-1.9097,-1.9786,-1.9837,-1.9097,-2.1369,-2.2893,-2.3648,-2.6563,-2.8058,-2.8229,-2.9098,-2.9766,-3.0717,0.0,0.0,0.0,-3.0491,-3.0496,-3.0567,-3.0628,-3.0673,-3.0673,-3.0732,-3.081,-3.0836,-3.0762,-3.0718,-3.0751,-3.0769,-3.0793,-3.0898,-3.0772,-3.0684,-3.0648,-3.0547,-3.0491,-3.043,-3.0414,-3.0398,-3.0398,-3.0441,-3.0411,-3.0267,-3.0171,-2.9922,-2.9483,-2.9252,-2.8753,-2.8002,-2.8136,-2.8293,-2.8501,-2.8702,-2.9098,-2.964,-3.0014,-3.0216,-3.0252,-3.0542,-3.0594,-3.049,-3.0267,-3.0151,-3.0122,-2.9877,-2.9636,-2.9364,-2.9101,-2.875,-2.8316,-2.7837,-2.7278,-2.6721,-2.6318,-2.5603,-2.4894,-2.4712,-2.4266,-2.3779,-2.3376,-2.2682,-2.196,-2.1561,-2.0782,-2.0156,-2.0156,-1.9952,-1.9798,-1.9798,-1.9798,-1.9798,-1.9798,-1.898,-1.834,-1.834,-1.7512,-1.6856,-1.6856,-1.6415,-1.6151,-1.6151,-1.569,-1.541,-1.541,-1.5864,-1.6208,-1.6492,-1.6698,-1.718,-1.7895,-1.8178,-1.8555,-1.9044,-1.9527,-1.9475,-1.8715,-2.0601,-2.1871,-2.2349,-2.5568,-2.7473,-2.812,-2.8759,-2.9454,0.0,0.0,0.0,0.0,-3.0462,-3.0498,-3.0498,-3.0559,-3.06,-3.06,-3.06,-3.0628,-3.0684,-3.0693,-3.0743,-3.0878,-3.0898,-3.0898,-3.0898,-3.0772,-3.0696,-3.0696,-3.0587,-3.0507,-3.0507,-3.0451,-3.041,-3.039,-3.039,-3.0279,-3.0028,-2.9999,-2.9374,-2.8017,-2.7979,-2.7587,-2.6747,-2.6764,-2.6925,-2.7251,-2.7461,-2.7611,-2.7729,-2.8713,-2.9279,-2.9528,-3.0251,-3.0531,-3.0496,-3.0507,-3.0462,-3.0379,-3.0103,-3.0013,-2.9969,-2.9551,-2.9153,-2.8792,-2.8511,-2.7946,-2.7238,-2.6704,-2.6301,-2.5924,-2.5373,-2.4855,-2.443,-2.4389,-2.3593,-2.2694,-2.2649,-2.1752,-2.0795,-2.0795,-2.0245,-1.9798,-1.9798,-1.9798,-1.9798,-1.9798,-1.8608,-1.7633,-1.7633,-1.6415,-1.5468,-1.541,-1.5468,-1.5468,-1.541,-1.541,-1.541,-1.541,-1.541,-1.57,-1.6436,-1.5806,-1.6348,-1.8555,-1.8015,-1.8232,-1.9695,-1.9747,-1.9423,-1.8661,-2.0489,-2.1165,-2.0456,-2.3894,-2.6353,-2.7851,-2.8246,-2.8959,-3.1621,0.0,0.0,0.0,0.0,0.0,-3.0428,-3.0482,-3.0529,-3.0529,-3.0561,-3.0611,-3.0614,-3.0633,-3.0643,-3.0676,-3.0808,-3.0898,-3.0898,-3.0772,-3.0696,-3.0696,-3.0614,-3.0568,-3.0568,-3.0567,-3.0521,-3.0472,-3.0463,-3.0422,-3.0311,-2.9958,-2.9083,-2.7551,-2.7492,-2.683,-2.5439,-2.557,-2.5801,-2.6141,-2.6498,-2.7001,-2.7637,-2.8116,-2.8679,-2.9305,-2.9653,-3.0098,-3.0579,-3.0515,-3.05,-3.0453,-3.034,-3.0299,-3.0254,-2.9958,-2.9676,-2.9381,-2.886,-2.8424,-2.7984,-2.7296,-2.6738,-2.6284,-2.5892,-2.5411,-2.491,-2.4511,-2.3861,-2.2981,-2.169,-2.1042,-2.0696,-2.0207,-1.9952,-1.9798,-1.9798,-1.9798,-1.9798,-1.9798,-1.9044,-1.8394,-1.8394,-1.7622,-1.68,-1.6265,-1.6641,-1.6631,-1.5526,-1.5864,-1.5979,-1.5468,-1.541,-1.5468,-1.57,-1.5526,-1.613,-1.7786,-1.7688,-1.8004,-1.8992,-1.898,-1.8394,-1.7146,-1.8163,-1.9019,-1.9723,-2.284,-2.5131,-2.6636,-2.8388,-2.9444,-3.1468,-3.0794,-3.0398,-3.0398,0.0,0.0,-3.0398,-3.0439,-3.0462,-3.0462,-3.05,-3.054,-3.054,-3.0554,-3.0561,-3.06,-3.0708,-3.0784,-3.0814,-3.0742,-3.0702,-3.0702,-3.0648,-3.0602,-3.0602,-3.0599,-3.0568,-3.0507,-3.0498,-3.0393,-3.0128,-2.9604,-2.8479,-2.6644,-2.6451,-2.5676,-2.4216,-2.4306,-2.4663,-2.52,-2.5532,-2.5977,-2.653,-2.7132,-2.7696,-2.821,-2.9075,-2.972,-3.0155,-3.0433,-3.0521,-3.049,-3.0428,-3.0398,-3.0367,-3.0089,-2.9877,-2.9624,-2.9198,-2.8753,-2.8316,-2.7736,-2.722,-2.6771,-2.6402,-2.5961,-2.5449,-2.5144,-2.448,-2.3548,-2.2007,-2.1403,-2.1015,-2.0396,-2.0003,-1.9798,-1.9798,-1.9798,-1.9798,-1.9798,-1.9202,-1.8715,-1.8715,-1.8112,-1.7468,-1.7034,-1.709,-1.681,-1.5979,-1.5979,-1.5864,-1.5468,-1.541,-1.541,-1.541,-1.5108,-1.5555,-1.7024,-1.6824,-1.7147,-1.8221,-1.8221,-1.7677,-1.6539,-1.7191,-1.8097,-1.9125,-2.1389,-2.3656,-2.595,-2.8046,-2.9242,-3.0931,-3.04,-3.033,-3.0355,-3.0355,0.0,-3.0398,-3.0386,-3.0355,-3.0355,-3.0343,-3.034,-3.0434,-3.0443,-3.0479,-3.0561,-3.0581,-3.0617,-3.068,-3.0687,-3.0687,-3.0687,-3.0634,-3.0604,-3.0604,-3.0618,-3.0573,-3.0525,-3.0468,-3.0248,-2.9731,-2.9122,-2.7809,-2.5664,-2.5277,-2.4488,-2.3206,-2.3189,-2.3638,-2.4461,-2.467,-2.4855,-2.5005,-2.5979,-2.6525,-2.6781,-2.8514,-2.9347,-2.9552,-3.029,-3.0561,-3.0507,-3.0428,-3.0398,-3.0367,-3.0136,-2.9893,-2.9678,-2.9494,-2.8997,-2.8394,-2.802,-2.7648,-2.7286,-2.6858,-2.6401,-2.6033,-2.5924,-2.5128,-2.4044,-2.2905,-2.21,-2.1424,-2.0832,-2.0245,-1.9798,-1.9798,-1.9798,-1.9798,-1.9798,-1.9254,-1.8821,-1.8821,-1.8286,-1.7852,-1.7731,-1.7246,-1.6765,-1.6549,-1.5979,-1.5575,-1.541,-1.541,-1.541,-1.5526,-1.4805,-1.4972,-1.6539,-1.5861,-1.6069,-1.7413,-1.7468,-1.7146,-1.6379,-1.709,-1.7841,-1.8555,-2.0038,-2.2352,-2.5442,-2.736,-2.8665,-3.1389,-3.0487,-2.988,-3.0047,-3.0075,0.0,-3.0355,-3.0222,-3.0075,-3.0075,-2.9958,-2.9877,-3.0065,-3.0092,-3.0177,-3.0409,-3.0491,-3.0552,-3.0617,-3.0628,-3.0628,-3.0628,-3.0619,-3.0609,-3.0609,-3.0643,-3.0644,-3.0597,-3.037,-3.0107,-2.9712,-2.9122,-2.7809,-2.5664,-2.5277,-2.4488,-2.3206,-2.3189,-2.3548,-2.4247,-2.4461,-2.467,-2.4842,-2.5177,-2.5787,-2.668,-2.7861,-2.8759,-2.9483,-3.0264,-3.0594,-3.0561,-3.0451,-3.0398,-3.0398,-3.0343,-3.0052,-2.9696,-2.9643,-2.9316,-2.8773,-2.812,-2.784,-2.7666,-2.6939,-2.6624,-2.6385,-2.5598,-2.4545,-2.3404,-2.2211,-2.1438,-2.0832,-2.0144,-1.9901,-1.9798,-1.9798,-1.9798,-1.9798,-1.9798,-1.9683,-1.9592,-1.9592,-1.9475,-1.915,-1.8555,-1.8874,-1.8501,-1.6708,-1.6922,-1.6743,-1.5517,-1.541,-1.5642,-1.6208,-1.5575,-1.5786,-1.7302,-1.6687,-1.6415,-1.6708,-1.6708,-1.6368,-1.5633,-1.6312,-1.709,-1.7852,-2.0846,-2.299,-2.4288,-2.6813,-2.8484,-3.0891,-3.0184,-2.9712,-2.9829,-2.9845,0.0,0.0,-2.9943,-2.9845,-2.9845,-2.9763,-2.9731,-2.9829,-2.9845,-2.9893,-3.0022,-3.0084,-3.0101,-3.0148,-3.0375,-3.0559,-3.0559,-3.0559,-3.0559,-3.0559,-3.0617,-3.0618,-3.0562,-3.0425,-3.0157,-2.9712,-2.9047,-2.7936,-2.6242,-2.531,-2.4395,-2.3552,-2.3329,-2.3508,-2.4098,-2.4373,-2.4636,-2.4904,-2.4974,-2.5359,-2.6034,-2.745,-2.8332,-2.8846,-3.0096,-3.0607,-3.0587,-3.0442,-3.0398,-3.0398,-3.0398,-3.0169,-2.9829,-2.9729,-2.9475,-2.9075,-2.8368,-2.8156,-2.802,-2.7224,-2.6873,-2.6539,-2.5799,-2.4753,-2.3586,-2.24,-2.1445,-2.0646,-1.9952,-1.9798,-1.9798,-1.9798,-1.9798,-1.9798,-1.9798,-1.9798,-1.9798,-1.9798,-1.9798,-1.9527,-1.8821,-1.8715,-1.8178,-1.6708,-1.6472,-1.6244,-1.5468,-1.5748,-1.6093,-1.6492,-1.5776,-1.5813,-1.6978,-1.6005,-1.5555,-1.5921,-1.5921,-1.5748,-1.541,-1.6151,-1.6866,-1.7633,-2.0334,-2.2042,-2.2833,-2.5277,-2.6883,-3.0183,-2.9763,-2.957,-2.9625,-2.9643,-2.9643,0.0,0.0,0.0,-2.9643,-2.9588,-2.957,-2.9625,-2.9643,-2.9643,-2.9696,-2.9696,-2.9696,-2.9696,-3.0068,-3.0355,-3.0355,-3.0434,-3.0453,-3.0414,-3.0513,-3.0579,-3.0515,-3.049,-3.0243,-2.9742,-2.8952,-2.7991,-2.6836,-2.5441,-2.4505,-2.4123,-2.3653,-2.3661,-2.4167,-2.4358,-2.4617,-2.4962,-2.5114,-2.5325,-2.564,-2.7456,-2.8288,-2.8476,-2.9973,-3.0606,-3.0587,-3.0472,-3.0414,-3.0398,-3.0398,-3.0215,-2.9924,-2.9765,-2.9533,-2.9228,-2.8597,-2.8298,-2.8084,-2.75,-2.7019,-2.6573,-2.5997,-2.5048,-2.3958,-2.2819,-2.1763,-2.0832,-2.0144,-2.0003,-1.9952,-1.985,-1.9798,-1.9798,-1.9798,-1.9798,-1.9747,-1.9592,-1.9579,-1.9319,-1.8608,-1.795,-1.7357,-1.6595,-1.6083,-1.5748,-1.5633,-1.6151,-1.6549,-1.6708,-1.5861,-1.5688,-1.6425,-1.5206,-1.4746,-1.5352,-1.5225,-1.5177,-1.5177,-1.5901,-1.662,-1.739,-1.9214,-2.0669,-2.1633,-2.3938,-2.537,-2.9975,-2.9416,-2.9138,-2.9373,-2.9434,-2.9474,-2.9661,0.0,-2.9434,-2.9434,0.0,-2.916,-2.9394,0.0,0.0,-2.9661,-2.9696,-2.9696,-2.9696,-2.9746,-2.9777,-2.9777,-3.015,-3.0316,-3.0084,-3.0384,-3.0603,-3.0586,-3.0422,-3.0171,-2.9808,-2.8815,-2.7795,-2.6836,-2.5928,-2.5289,-2.4884,-2.441,-2.4355,-2.4699,-2.4403,-2.4444,-2.4851,-2.5551,-2.6104,-2.6554,-2.8307,-2.9135,-2.9323,-3.0227,-3.0606,-3.0594,-3.0532,-3.0442,-3.0398,-3.0398,-3.0114,-2.9731,-2.9713,-2.9416,-2.8957,-2.854,-2.7974,-2.7409,-2.7317,-2.7019,-2.6505,-2.5561,-2.4776,-2.3948,-2.2951,-2.2146,-2.1424,-2.0832,-2.0696,-2.0497,-1.9952,-1.9798,-1.9798,-1.9798,-1.9798,-1.9579,-1.8939,-1.8821,-1.8555,-1.7852,-1.7633,-1.7357,-1.6595,-1.6978,-1.7079,-1.6425,-1.6436,-1.6765,-1.7413,-1.6177,-1.568,-1.6436,-1.5748,-1.5294,-1.541,-1.4746,-1.4332,-1.4332,-1.5041,-1.582,-1.6546,-1.8109,-1.9813,-2.1633,-2.3938,-2.537,-2.9664,-2.927,-2.904,-2.9134,-2.9178,-2.9181,-2.9272,-2.9228,-2.9178,-2.9178,0.0,0.0,0.0,0.0,0.0,0.0,-2.9293,-2.9293,-2.9293,-2.9435,-2.957,-2.9678,-2.9864,-3.0007,-2.9999,-3.0221,-3.0409,-3.0478,-3.0485,-3.0314,-2.9946,-2.9242,-2.8581,-2.7985,-2.6869,-2.6243,-2.6051,-2.5582,-2.5492,-2.5786,-2.576,-2.5995,-2.6445,-2.6773,-2.7077,-2.742,-2.8655,-2.9283,-2.9454,-3.0266,-3.0606,-3.0594,-3.0521,-3.0462,-3.0398,-3.0398,-3.0273,-3.0071,-2.9799,-2.957,-2.9336,-2.8897,-2.8237,-2.7648,-2.7648,-2.721,-2.6556,-2.5872,-2.4971,-2.403,-2.336,-2.2441,-2.1663,-2.139,-2.1077,-2.0696,-2.0446,-2.0042,-1.9798,-1.9798,-1.9798,-1.9579,-1.8821,-1.9032,-1.9097,-1.834,-1.8232,-1.795,-1.7246,-1.7413,-1.7302,-1.6595,-1.6866,-1.709,-1.6978,-1.6368,-1.6151,-1.6492,-1.5806,-1.5167,-1.4746,-1.4392,-1.4213,-1.4213,-1.4915,-1.5658,-1.644,-1.7556,-1.872,-1.9965,-2.2059,-2.3518,-2.9434,-2.9203,-2.8994,-2.8994,-2.8994,-2.8994,-2.8994,-2.8994,-2.8994,-2.8994,-2.8994,0.0,0.0,0.0,-2.8952,-2.8863,0.0,-2.8839,-2.8839,-2.8989,-2.9233,-2.9476,-2.957,-2.966,-2.9753,-3.0029,-3.0218,-3.0225,-3.0443,-3.0404,-2.9991,-2.9582,-2.919,-2.8839,-2.7834,-2.7245,-2.7175,-2.6801,-2.668,-2.689,-2.6972,-2.7207,-2.7618,-2.7828,-2.8051,-2.8285,-2.9177,-2.9613,-2.9766,-3.0362,-3.0606,-3.0594,-3.0521,-3.0462,-3.0398,-3.0398,-3.0355,-3.0241,-2.9832,-2.9625,-2.9437,-2.8966,-2.8412,-2.7869,-2.7783,-2.7241,-2.659,-2.5961,-2.5157,-2.4346,-2.3704,-2.2892,-2.2132,-2.1791,-2.139,-2.093,-2.0597,-2.0144,-1.9798,-1.9798,-1.9798,-1.9631,-1.9097,-1.9254,-1.9254,-1.8501,-1.8394,-1.8232,-1.7688,-1.7797,-1.7688,-1.7146,-1.7413,-1.7357,-1.6877,-1.6425,-1.6208,-1.6208,-1.569,-1.505,-1.4204,-1.3974,-1.3786,-1.3537,-1.4259,-1.5071,-1.5813,-1.6824,-1.7665,-1.8436,-2.0704,-2.2136,-2.9412,-2.9203,-2.8994,-2.8994,-2.8994,-2.8994,-2.8994,-2.8994,-2.8994,-2.8994,-2.8994,-2.8994,-2.8994,-2.8994,-2.8863,-2.8471,-2.842,0.0,0.0,-2.842,-2.859,-2.8975,-2.9246,-2.9338,-2.9153,-2.9779,-3.0081,-2.9846,-3.0236,-3.0339,-2.9922,-2.9652,-2.9308,-2.8911,-2.8673,-2.8432,-2.8142,-2.7954,-2.7848,-2.7848,-2.7478,-2.7399,-2.7637,-2.8414,-2.8875,-2.9113,-3.0047,-3.0506,-3.0559,-3.0597,-3.0606,-3.0594,-3.0521,-3.0462,-3.0398,-3.0398,-3.0241,-2.9984,-2.9763,-2.9397,-2.8952,-2.8565,-2.8183,-2.784,-2.7457,-2.7019,-2.6505,-2.5486,-2.5221,-2.4934,-2.3879,-2.3551,-2.3216,-2.1979,-2.171,-2.1315,-2.0093,-1.9811,-1.9798,-1.9798,-1.9798,-1.9798,-1.9747,-1.9202,-1.8501,-1.7743,-1.7633,-1.7633,-1.7578,-1.8232,-1.8661,-1.8608,-1.8004,-1.7578,-1.7578,-1.6244,-1.541,-1.541,-1.541,-1.505,-1.4204,-1.3425,-1.2696,-1.1888,-1.257,-1.3391,-1.4164,-1.5676,-1.6847,-1.7731,-2.0745,-2.1991,-2.9181,-2.9067,-2.8994,-2.8994,-2.8994,-2.8994,-2.8994,-2.8994,-2.8994,-2.8994,-2.8994,-2.8929,-2.8658,-2.8815,-2.8791,-2.8156,-2.8264,-2.8316,0.0,-2.8075,-2.802,-2.789,-2.8192,-2.864,-2.924,-2.9287,-2.9455,-2.9908,-3.0158,-3.0288,-3.0236,-3.0101,-2.9908,-2.9646,-2.9478,-2.9325,-2.9187,-2.9139,-2.9151,-2.9282,-2.9152,-2.9227,-2.9454,-2.9723,-2.9921,-3.0037,-3.0409,-3.058,-3.0595,-3.0606,-3.0564,-3.0521,-3.0462,-3.0417,-3.0398,-3.0398,-3.0222,-2.9954,-2.9626,-2.927,-2.8929,-2.854,-2.8183,-2.7823,-2.7409,-2.7019,-2.6505,-2.547,-2.5221,-2.4934,-2.3879,-2.329,-2.292,-2.2438,-2.1738,-2.0979,-2.0547,-2.0105,-1.9798,-1.9798,-1.9798,-1.9798,-1.9798,-1.9579,-1.9359,-1.9097,-1.9044,-1.9044,-1.9044,-1.9254,-1.9254,-1.8768,-1.8058,-1.7413,-1.6922,-1.5979,-1.541,-1.541,-1.4874,-1.4273,-1.3425,-1.2634,-1.2081,-1.1834,-1.2058,-1.2838,-1.4177,-1.47,-1.5641,-1.6912,-1.927,-2.0545,-2.9062,-2.8994,-2.8994,-2.8994,-2.8994,-2.8994,-2.8994,-2.8994,-2.8952,-2.8815,-2.8791,-2.8658,-2.829,-2.8438,-2.8404,-2.7794,-2.7862,-2.7946,0.0,-2.7695,-2.7648,-2.7547,-2.7754,-2.8084,-2.8591,-2.8722,-2.8975,-2.9401,-2.9813,-3.0061,-3.0181,-3.0197,-3.0171,-3.0108,-3.0065,-3.0006,-2.9913,-2.997,-3.0081,-3.021,-3.021,-3.0293,-3.0482,-3.0482,-3.049,-3.0545,-3.0611,-3.0615,-3.0605,-3.0603,-3.0554,-3.049,-3.0428,-3.0398,-3.0398,-3.0398,-3.0182,-2.9845,-2.9513,-2.9225,-2.8905,-2.8386,-2.8075,-2.7811,-2.7241,-2.6906,-2.6505,-2.547,-2.5221,-2.4934,-2.3879,-2.3334,-2.292,-2.2438,-2.1738,-2.1028,-2.0547,-2.0105,-1.9798,-1.9798,-1.9798,-1.9798,-1.9798,-1.9798,-1.9798,-1.9798,-1.9798,-1.9798,-1.9798,-1.9579,-1.9202,-1.8768,-1.7797,-1.6922,-1.6151,-1.57,-1.5294,-1.4991,-1.451,-1.3726,-1.2634,-1.2081,-1.1648,-1.1406,-1.1648,-1.2443,-1.3786,-1.4085,-1.4855,-1.614,-1.7399,-1.8517]},{"header":{"parameterUnit":"m.s-1","parameterCategory":1,"la1":30.6,"la2":29.2853,"lo1":-89.7004,"lo2":-87.6739,"dy":0.0162,"dx":0.0183,"nx":112,"ny":82,"refTime":"2023-07-31T00:00:00:Z","depth":0,"parameterNumber":3,"parameterNumberName":"V-component_of_WINDS"},"data":[0.0,0.0,0.0,0.0,0.0,0.0,0.0,0.0,0.0,0.0,0.0,0.0,0.0,0.0,0.0,0.0,0.0,0.0,0.0,0.0,0.0,0.0,0.0,0.0,0.0,0.0,0.0,0.0,0.0,0.0,0.0,0.0,0.0,0.0,0.0,0.0,0.0,0.0,0.0,0.0,0.0,0.0,0.0,0.0,0.0,0.0,0.0,0.0,0.0,0.0,0.0,0.0,0.0,0.0,0.0,0.0,0.0,0.0,0.0,0.0,0.0,0.0,0.0,0.0,0.0,0.0,0.0,0.0,0.0,0.0,0.0,0.0,0.0,0.0,0.0,0.0,0.0,0.0,0.0,0.0,0.0,0.0,0.0,0.0,0.0,0.0,0.0,0.0,0.0,0.0,-0.4821,-0.3927,-0.3837,-0.4283,-0.527,-0.5536,-0.6071,-0.7051,0.0,0.0,0.0,0.0,0.0,0.0,0.0,0.0,0.0,0.0,0.0,0.0,0.0,0.0,0.0,0.0,0.0,0.0,0.0,0.0,0.0,0.0,0.0,0.0,0.0,0.0,0.0,0.0,0.0,0.0,0.0,0.0,0.0,0.0,0.0,0.0,0.0,0.0,0.0,0.0,0.0,0.0,0.0,0.0,0.0,0.0,0.0,0.0,0.0,0.0,0.0,0.0,0.0,0.0,0.0,0.0,0.0,0.0,0.0,0.0,0.0,0.0,0.0,0.0,0.0,0.0,0.0,0.0,0.0,0.0,0.0,0.0,0.0,0.0,0.0,0.0,0.0,0.0,0.0,0.0,0.0,0.0,0.0,0.0,0.0,0.0,0.0,0.0,0.0,0.0,0.0,0.0,0.0,0.0,0.0,0.0,0.0,0.0,0.0,0.0,0.0,0.0,0.0,0.0,-0.4194,-0.5001,-0.509,-0.5179,-0.5359,-0.6248,-0.6874,-0.7051,0.0,0.0,0.0,0.0,0.0,0.0,0.0,0.0,0.0,0.0,0.0,0.0,0.0,0.0,0.0,0.0,0.0,0.0,0.0,0.0,0.0,0.0,0.0,0.0,0.0,0.0,0.0,0.0,0.0,0.0,0.0,0.0,0.0,0.0,0.0,0.0,0.0,0.0,0.0,0.0,0.0,0.0,0.0,0.0,0.0,0.0,0.0,0.0,0.0,0.0,0.0,0.0,0.0,0.0,0.0,0.0,0.0,0.0,0.0,0.0,0.0,0.0,0.0,0.0,0.0,0.0,0.0,0.0,0.0,0.0,0.0,0.0,0.0,0.0,0.0,0.0,0.0,0.0,0.0,0.0,0.0,0.0,0.0,0.0,0.0,0.0,0.0,0.0,0.0,0.0,0.0,0.0,0.0,0.0,0.0,0.0,0.0,0.0,0.0,0.0,0.0,0.0,0.0,-0.58,-0.5711,-0.6248,-0.6337,-0.6337,-0.6337,-0.6786,-0.7139,-0.7139,-0.7139,0.0,0.0,0.0,0.0,0.0,0.0,0.0,0.0,0.0,0.0,0.0,0.0,0.0,0.0,0.0,0.0,0.0,0.0,0.0,0.0,0.0,0.0,0.0,0.0,0.0,0.0,0.0,0.0,0.0,0.0,0.0,0.0,0.0,0.0,0.0,0.0,0.0,0.0,0.0,0.0,0.0,0.0,0.0,0.0,0.0,0.0,0.0,0.0,0.0,0.0,0.0,0.0,0.0,0.0,0.0,0.0,0.0,0.0,0.0,0.0,0.0,0.0,0.0,0.0,0.0,0.0,0.0,0.0,0.0,0.0,0.0,0.0,0.0,0.0,0.0,0.0,0.0,0.0,0.0,0.0,0.0,0.0,0.0,0.0,0.0,0.0,0.0,0.0,0.0,0.0,0.0,0.0,0.0,0.0,0.0,0.0,0.0,0.0,0.0,0.0,0.0,0.0,-0.6962,-0.7139,-0.7139,-0.7139,-0.7139,-0.7139,-0.7139,-0.7139,-0.7139,-0.7139,0.0,0.0,0.0,0.0,0.0,0.0,0.0,0.0,0.0,0.0,0.0,0.0,0.0,0.0,0.0,0.0,0.0,0.0,0.0,0.0,0.0,0.0,0.0,0.0,0.0,0.0,0.0,0.0,0.0,0.0,0.0,0.0,0.0,0.0,0.0,0.0,0.0,0.0,0.0,0.0,0.0,0.0,0.0,0.0,0.0,0.0,0.0,0.0,0.0,0.0,0.0,0.0,0.0,0.0,0.0,0.0,0.0,0.0,0.0,0.0,0.0,0.0,0.0,0.0,0.0,0.0,0.0,0.0,0.0,0.0,0.0,0.0,0.0,0.0,0.0,0.0,0.0,0.0,0.0,0.0,0.0,0.0,0.0,0.0,0.0,0.0,0.0,0.0,0.0,0.0,0.0,0.0,0.0,0.0,0.0,0.0,0.0,0.0,0.0,0.0,0.0,0.0,-0.6428,-0.7139,-0.7139,-0.7139,-0.7139,-0.7139,-0.7139,-0.7139,-0.7139,-0.7139,0.0,0.0,0.0,0.0,0.0,0.0,0.0,0.0,0.0,0.0,0.0,0.0,0.0,0.0,0.0,0.0,0.0,0.0,0.0,0.0,0.0,0.0,0.0,0.0,0.0,0.0,0.0,0.0,0.0,0.0,0.0,0.0,0.0,0.0,0.0,0.0,0.0,0.0,0.0,0.0,0.0,0.0,0.0,0.0,0.0,0.0,0.0,0.0,0.0,0.0,0.0,0.0,0.0,0.0,0.0,0.0,0.0,0.0,0.0,0.0,0.0,0.0,0.0,0.0,0.0,0.0,0.0,0.0,0.0,0.0,0.0,0.0,0.0,0.0,0.0,0.0,0.0,0.0,0.0,0.0,0.0,0.0,0.0,0.0,0.0,0.0,0.0,0.0,0.0,0.0,0.0,0.0,0.0,0.0,0.0,0.0,0.0,0.0,0.0,0.0,0.0,0.0,-0.6871,-0.7139,-0.7139,-0.7139,-0.7139,-0.7139,-0.7139,-0.7139,-0.7139,0.0,0.0,0.0,0.0,0.0,0.0,0.0,0.0,0.0,0.0,0.0,0.0,0.0,0.0,0.0,0.0,0.0,0.0,0.0,0.0,0.0,0.0,0.0,0.0,0.0,0.0,0.0,0.0,0.0,0.0,0.0,0.0,0.0,0.0,0.0,0.0,0.0,0.0,0.0,0.0,0.0,0.0,0.0,0.0,0.0,0.0,0.0,0.0,0.0,0.0,0.0,0.0,0.0,0.0,0.0,0.0,0.0,0.0,0.0,0.0,0.0,0.0,0.0,0.0,0.0,0.0,0.0,0.0,0.0,0.0,0.0,0.0,0.0,0.0,0.0,0.0,0.0,0.0,0.0,0.0,0.0,0.0,0.0,0.0,0.0,0.0,0.0,0.0,0.0,0.0,0.0,0.0,0.0,0.0,0.0,0.0,0.0,0.0,0.0,0.0,0.0,0.0,-0.7139,-0.7139,-0.7139,-0.7139,-0.7139,-0.7139,-0.7139,-0.7139,-0.7207,-0.7505,0.0,0.0,0.0,0.0,0.0,0.0,0.0,0.0,0.0,0.0,0.0,0.0,0.0,0.0,0.0,0.0,0.0,0.0,0.0,0.0,0.0,0.0,0.0,0.0,0.0,0.0,0.0,0.0,0.0,0.0,0.0,0.0,0.0,0.0,0.0,0.0,0.0,0.0,0.0,0.0,0.0,0.0,0.0,0.0,0.0,0.0,0.0,0.0,0.0,0.0,0.0,0.0,0.0,0.0,0.0,0.0,0.0,0.0,0.0,0.0,0.0,0.0,0.0,0.0,0.0,0.0,0.0,0.0,0.0,0.0,0.0,0.0,0.0,0.0,0.0,0.0,0.0,0.0,0.0,0.0,0.0,0.0,0.0,0.0,0.0,0.0,0.0,0.0,0.0,0.0,0.0,0.0,0.0,0.0,0.0,0.0,0.0,0.0,0.0,0.0,0.0,0.0,-0.7139,-0.7139,-0.7139,-0.7139,-0.7139,-0.7139,-0.7139,-0.7139,-0.7508,0.0,0.0,0.0,0.0,0.0,0.0,0.0,0.0,0.0,0.0,0.0,0.0,0.0,0.0,0.0,0.0,0.0,0.0,0.0,0.0,0.0,0.0,0.0,0.0,0.0,0.0,0.0,0.0,0.0,0.0,0.0,0.0,0.0,0.0,0.0,0.0,0.0,0.0,0.0,0.0,0.0,0.0,0.0,0.0,0.0,0.0,0.0,0.0,0.0,0.0,0.0,0.0,0.0,0.0,0.0,0.0,0.0,0.0,0.0,0.0,0.0,0.0,0.0,0.0,0.0,0.0,0.0,0.0,0.0,0.0,0.0,0.0,0.0,0.0,0.0,0.0,0.0,0.0,0.0,0.0,0.0,0.0,0.0,0.0,0.0,0.0,0.0,0.0,0.0,0.0,0.0,0.0,0.0,0.0,0.0,0.0,0.0,0.0,0.0,0.0,0.0,0.0,0.0,-0.7139,-0.7139,-0.7139,-0.7139,-0.7139,-0.7139,-0.7139,-0.765,-0.8162,-0.8361,0.0,0.0,0.0,0.0,0.0,0.0,0.0,0.0,0.0,0.0,0.0,0.0,0.0,0.0,0.0,0.0,0.0,0.0,0.0,0.0,0.0,0.0,0.0,0.0,0.0,0.0,0.0,0.0,0.0,0.0,0.0,0.0,0.0,0.0,0.0,0.0,0.0,0.0,0.0,0.0,0.0,0.0,0.0,0.0,0.0,0.0,0.0,0.0,0.0,0.0,0.0,0.0,0.0,0.0,0.0,0.0,0.0,0.0,0.0,0.0,0.0,0.0,0.0,0.0,0.0,0.0,0.0,0.0,0.0,0.0,0.0,0.0,0.0,0.0,0.0,0.0,0.0,0.0,0.0,0.0,0.0,0.0,0.0,0.0,0.0,0.0,0.0,0.0,0.0,0.0,0.0,0.0,0.0,0.0,0.0,0.0,0.0,0.0,0.0,0.0,0.0,0.0,-0.7139,-0.7139,-0.7139,-0.7139,-0.7139,-0.7204,-0.7578,-0.808,-0.8711,-0.9374,0.0,0.0,0.0,0.0,0.0,0.0,0.0,0.0,0.0,0.0,0.0,0.0,0.0,0.0,0.0,0.0,0.0,0.0,0.0,0.0,0.0,0.0,0.0,0.0,0.0,0.0,0.0,0.0,0.0,0.0,0.0,0.0,0.0,0.0,0.0,0.0,0.0,0.0,0.0,0.0,0.0,0.0,0.0,0.0,0.0,0.0,0.0,0.0,0.0,0.0,0.0,0.0,0.0,0.0,0.0,0.0,0.0,0.0,0.0,0.0,0.0,0.0,0.0,0.0,0.0,0.0,0.0,0.0,0.0,0.0,0.0,0.0,0.0,0.0,0.0,0.0,0.0,0.0,0.0,0.0,0.0,0.0,0.0,0.0,0.0,0.0,0.0,0.0,0.0,0.0,0.0,0.0,0.0,0.0,0.0,0.0,0.0,0.0,0.0,0.0,0.0,0.0,-0.7228,-0.7404,-0.7397,-0.7379,-0.7379,-0.7665,-0.8433,-0.8569,-0.9311,-1.0895,0.0,0.0,0.0,0.0,0.0,0.0,0.0,0.0,0.0,0.0,0.0,0.0,0.0,0.0,0.0,0.0,0.0,0.0,0.0,0.0,0.0,0.0,0.0,0.0,0.0,0.0,0.0,0.0,0.0,0.0,0.0,0.0,0.0,0.0,0.0,0.0,0.0,0.0,0.0,0.0,0.0,0.0,0.0,0.0,0.0,0.0,0.0,0.0,0.0,0.0,0.0,0.0,0.0,0.0,0.0,0.0,0.0,0.0,0.0,0.0,-1.4459,-1.4657,0.0,0.0,0.0,0.0,0.0,0.0,0.0,0.0,0.0,0.0,0.0,0.0,0.0,0.0,0.0,0.0,0.0,0.0,0.0,0.0,0.0,0.0,0.0,0.0,0.0,0.0,0.0,0.0,0.0,0.0,0.0,0.0,0.0,0.0,0.0,0.0,0.0,0.0,0.0,0.0,-0.854,-0.9318,-0.977,-0.9526,-0.9507,-0.9508,-0.9471,-1.0018,-1.0583,-1.095,-1.1677,0.0,0.0,0.0,0.0,0.0,0.0,0.0,0.0,0.0,0.0,0.0,0.0,0.0,0.0,0.0,0.0,0.0,0.0,0.0,0.0,0.0,0.0,0.0,0.0,0.0,0.0,0.0,0.0,0.0,0.0,0.0,0.0,0.0,0.0,0.0,0.0,0.0,0.0,0.0,0.0,0.0,0.0,0.0,0.0,0.0,0.0,0.0,0.0,0.0,0.0,0.0,0.0,0.0,0.0,0.0,0.0,0.0,0.0,0.0,-1.4848,-1.5146,0.0,0.0,0.0,0.0,0.0,0.0,0.0,0.0,0.0,0.0,0.0,0.0,0.0,0.0,0.0,0.0,0.0,0.0,0.0,0.0,0.0,0.0,0.0,0.0,0.0,0.0,0.0,0.0,0.0,0.0,0.0,0.0,0.0,0.0,0.0,0.0,0.0,0.0,0.0,0.0,-0.9753,-1.0091,-1.0324,-1.0208,-1.002,-1.0029,-1.0285,-1.0707,-1.1201,-1.1614,-1.2081,0.0,0.0,0.0,0.0,0.0,0.0,0.0,0.0,0.0,0.0,0.0,0.0,0.0,0.0,0.0,0.0,0.0,0.0,0.0,0.0,0.0,0.0,0.0,0.0,0.0,0.0,0.0,0.0,0.0,0.0,0.0,0.0,0.0,0.0,0.0,0.0,0.0,0.0,0.0,0.0,0.0,0.0,0.0,0.0,0.0,0.0,0.0,0.0,0.0,0.0,0.0,0.0,0.0,-1.2431,-1.2624,-1.2624,-1.3686,-1.4262,-1.4268,-1.5337,-1.5832,-1.5832,-1.5832,0.0,0.0,0.0,0.0,0.0,0.0,0.0,0.0,0.0,0.0,0.0,0.0,0.0,0.0,0.0,0.0,0.0,0.0,0.0,0.0,0.0,0.0,-1.5944,-1.5779,-1.5696,-1.5379,-1.4328,0.0,0.0,0.0,0.0,0.0,0.0,0.0,0.0,0.0,0.0,0.0,-1.0813,-1.0816,-1.0752,-1.0672,-1.0405,-1.0518,-1.1135,-1.1266,-1.1557,-1.2244,-1.2305,-1.2305,0.0,0.0,0.0,0.0,0.0,0.0,0.0,0.0,0.0,0.0,0.0,0.0,0.0,0.0,0.0,0.0,0.0,0.0,0.0,0.0,0.0,0.0,0.0,0.0,0.0,0.0,0.0,0.0,0.0,0.0,0.0,0.0,-1.407,-1.3872,0.0,0.0,0.0,0.0,0.0,0.0,0.0,0.0,0.0,0.0,0.0,0.0,0.0,-1.1658,-1.1658,-1.3006,-1.368,-1.3686,-1.4752,-1.5248,-1.5248,-1.5439,-1.554,-1.5534,-1.573,0.0,-1.5832,-1.5832,0.0,0.0,0.0,0.0,0.0,0.0,0.0,0.0,0.0,0.0,0.0,0.0,0.0,0.0,0.0,0.0,0.0,0.0,0.0,0.0,0.0,0.0,-1.6846,-1.5944,-1.5696,-1.5379,-1.4328,-1.4088,-1.4088,-1.4088,-1.3294,-1.2504,0.0,0.0,0.0,0.0,0.0,0.0,-1.1773,-1.2566,-1.2943,-1.2518,-1.2428,-1.2292,-1.2155,-1.2129,-1.219,-1.2305,-1.2305,-1.2305,-1.2305,-1.2305,0.0,0.0,0.0,0.0,0.0,0.0,0.0,0.0,0.0,0.0,0.0,0.0,0.0,0.0,0.0,0.0,0.0,0.0,0.0,0.0,0.0,0.0,0.0,0.0,0.0,0.0,0.0,0.0,0.0,-1.5343,-1.4949,-1.4949,-1.3295,-1.2226,0.0,0.0,0.0,0.0,0.0,0.0,0.0,0.0,0.0,-1.1072,-1.2328,-1.3006,-1.3006,-1.4364,-1.4949,-1.4949,-1.5534,-1.5832,-1.5832,-1.5832,-1.5832,-1.5832,-1.5832,-1.5832,-1.5832,-1.5832,-1.6197,-1.685,0.0,0.0,0.0,0.0,-1.9175,-1.9799,-1.9583,-1.9621,-1.9916,-2.0,0.0,0.0,0.0,0.0,0.0,0.0,0.0,-1.7423,-1.8069,-1.823,-1.8149,-1.7658,-1.7568,-1.709,-1.5387,-1.4977,-1.4817,-1.425,-1.3646,-1.3294,-1.3294,-1.2863,0.0,0.0,0.0,-1.3016,-1.2896,-1.3013,-1.3039,-1.2849,-1.2599,-1.2445,-1.2311,-1.2305,-1.2305,-1.2305,-1.2305,-1.2305,-1.2305,-1.2305,-1.2305,0.0,0.0,0.0,0.0,0.0,0.0,0.0,0.0,0.0,0.0,0.0,0.0,0.0,0.0,0.0,0.0,0.0,0.0,0.0,0.0,0.0,0.0,0.0,0.0,0.0,0.0,0.0,0.0,-1.5832,-1.5832,-1.5832,-1.4657,-1.3878,0.0,0.0,0.0,0.0,0.0,0.0,-1.1945,-1.2237,-1.2431,-1.2431,-1.3686,-1.4364,-1.4364,-1.5337,-1.5832,-1.5832,-1.5832,-1.5832,-1.5832,-1.5832,-1.5832,-1.5825,-1.6103,-1.6298,-1.6298,-1.6298,-1.685,-1.7684,-1.8048,-1.8864,-1.9943,-1.9943,-2.0429,-2.1102,-2.0613,-2.0816,-2.1162,-2.0713,-2.0566,-2.0566,-2.0566,0.0,0.0,0.0,0.0,-1.831,-1.9195,-1.9441,-1.9362,-1.9045,-1.9036,-1.847,-1.6519,-1.6108,-1.5711,-1.4328,-1.4088,-1.4088,-1.4088,-1.4021,0.0,-1.3975,-1.3721,-1.35,-1.3427,-1.3026,-1.2795,-1.2714,-1.2438,-1.2305,-1.2305,-1.2305,-1.2305,-1.2305,-1.2305,-1.2305,-1.2305,-1.2305,-1.2305,-1.2305,0.0,0.0,0.0,0.0,0.0,0.0,0.0,0.0,0.0,0.0,0.0,0.0,0.0,0.0,0.0,0.0,0.0,0.0,0.0,0.0,0.0,0.0,0.0,0.0,0.0,0.0,0.0,0.0,0.0,-1.5832,-1.4657,0.0,0.0,0.0,0.0,-1.1945,-1.1945,-1.1945,-1.1945,-1.3102,-1.3776,-1.3776,-1.5045,-1.573,-1.573,-1.5737,-1.5832,-1.5832,-1.5832,-1.5832,-1.5832,-1.5832,-1.5832,-1.5825,-1.7037,-1.7598,-1.7598,-1.7598,-1.7591,-1.7777,-1.8956,-2.0124,-2.1203,-2.1203,-2.1692,-2.2357,-2.1948,-2.152,-2.1162,-2.0713,-2.0566,-2.0566,-2.0566,-2.0566,0.0,0.0,-2.0479,-2.0479,-2.0489,-2.0489,-2.0245,-1.9283,-1.9036,-1.863,-1.7496,-1.7261,-1.6609,-1.4496,-1.4088,-1.4088,-1.4088,0.0,-1.3667,-1.3667,-1.342,-1.3126,-1.2903,-1.2842,-1.2714,-1.2351,-1.2311,-1.2305,-1.2305,-1.2305,-1.2305,-1.2305,-1.2305,-1.2305,-1.2305,-1.2305,-1.2305,-1.2305,-1.2305,0.0,0.0,0.0,0.0,0.0,0.0,0.0,0.0,0.0,0.0,0.0,0.0,0.0,0.0,0.0,0.0,0.0,0.0,0.0,0.0,0.0,0.0,0.0,0.0,0.0,0.0,0.0,0.0,-1.5277,-1.4891,0.0,-1.4609,-1.4142,-1.3865,-1.3865,-1.3865,-1.3865,-1.3865,-1.4333,-1.4609,-1.4609,-1.5081,-1.5357,-1.5545,-1.5551,-1.5551,-1.5551,-1.5551,-1.5451,-1.5277,-1.5277,-1.5622,-1.6321,-1.6772,-1.7392,-1.8105,-1.8891,-1.9377,-1.9686,-2.013,-2.0866,-2.1703,-2.1703,-2.1707,-2.167,-2.1514,-2.1172,-2.0781,-2.0615,-2.0566,-2.0566,-2.0566,-2.0566,-2.0566,-2.0566,-2.0566,-2.0566,-2.0566,-2.0566,-2.0489,-2.0079,-2.0001,-1.9756,-1.863,-1.839,-1.798,-1.6445,-1.5628,-1.4894,-1.425,-1.3841,-1.3559,-1.3559,-1.3227,-1.2872,-1.2835,-1.2579,-1.2418,-1.2311,-1.2305,-1.2305,-1.2305,-1.2305,-1.2305,-1.2305,-1.2305,-1.2305,-1.2305,-1.2305,-1.2305,-1.2305,-1.2305,-1.2305,0.0,0.0,0.0,0.0,0.0,0.0,0.0,0.0,0.0,0.0,0.0,0.0,0.0,0.0,0.0,0.0,0.0,0.0,0.0,0.0,0.0,0.0,0.0,0.0,0.0,-1.5084,-1.4963,-1.4963,-1.4963,-1.4963,-1.4963,-1.4963,-1.4963,-1.4963,-1.4963,-1.4963,-1.4963,-1.4963,-1.4963,-1.4963,-1.4963,-1.5057,-1.5251,-1.5251,-1.5427,-1.5777,-1.5777,-1.5937,-1.6087,-1.6087,-1.6433,-1.7201,-1.7541,-1.814,-1.8922,-2.0129,-2.0726,-2.0856,-2.1004,-2.1419,-2.1885,-2.1885,-2.1699,-2.1435,-2.1289,-2.0937,-2.0566,-2.0566,-2.0566,-2.0566,-2.0566,-2.0566,-2.0566,-2.0566,-2.0566,-2.0566,-2.0566,-2.0566,-2.0566,-2.0566,-2.0566,-2.0401,-1.9678,-1.9409,-1.8994,-1.7871,-1.6847,-1.5831,-1.4677,-1.4246,-1.3849,-1.3433,-1.2913,-1.2599,-1.2599,-1.2425,-1.2305,-1.2305,-1.2305,-1.2305,-1.2305,-1.2305,-1.2305,-1.2305,-1.2305,-1.2305,-1.2305,-1.2305,-1.2305,-1.2305,-1.2305,-1.2305,-1.2305,0.0,0.0,0.0,0.0,0.0,0.0,0.0,0.0,0.0,0.0,0.0,0.0,0.0,0.0,0.0,0.0,0.0,0.0,0.0,0.0,0.0,0.0,0.0,-1.5082,-1.4943,-1.4937,-1.4937,-1.4937,-1.4937,-1.4937,-1.4937,-1.4937,-1.4937,-1.4937,-1.4937,-1.4937,-1.4937,-1.4937,-1.4937,-1.4937,-1.4943,-1.495,-1.495,-1.5555,-1.6572,-1.6572,-1.7177,-1.8132,-1.8132,-1.821,-1.8296,-1.9484,-2.0,-2.0084,-2.131,-2.1592,-2.126,-2.1699,-2.1855,-2.1846,-2.1846,-2.1846,-2.1787,-2.1357,-2.0928,-2.0566,-2.0566,-2.0566,-2.0566,-2.0566,-2.0566,-2.0566,-2.0566,-2.0566,-2.0634,-2.0547,-2.0547,-2.0537,-2.0527,-2.0527,-2.0527,-2.0527,-2.0195,-1.9581,-1.8497,-1.7777,-1.6952,-1.5568,-1.5083,-1.4366,-1.3015,-1.2567,0.0,-1.2305,-1.2305,-1.2305,-1.2305,-1.2305,-1.2305,-1.2305,-1.2305,-1.2305,-1.2305,-1.2305,-1.2305,-1.2305,-1.2305,-1.2305,-1.2305,-1.2305,-1.2305,-1.2305,0.0,0.0,0.0,0.0,0.0,0.0,0.0,0.0,0.0,0.0,0.0,0.0,0.0,0.0,0.0,0.0,0.0,0.0,0.0,0.0,0.0,-1.731,-1.5798,-1.4798,-1.4462,-1.4329,-1.4329,-1.4329,-1.4329,-1.4329,-1.4329,-1.4329,-1.4329,-1.4329,-1.4329,-1.4329,-1.4329,-1.4329,-1.4329,-1.4329,-1.4429,-1.4636,-1.4643,-1.5147,-1.623,-1.623,-1.6707,-1.7557,-1.7557,-1.7969,-1.8786,-1.9111,-1.9684,-2.0502,-2.0839,-2.0859,-2.0791,-2.124,-2.1211,-2.0928,-2.0928,-2.0928,-2.0908,-2.0791,-2.0674,-2.0566,-2.0566,-2.0566,-2.0566,-2.0566,-2.0566,-2.0566,-2.0566,-2.0566,-2.0498,-2.0176,-2.0088,-2.0019,-1.9707,-1.9639,-1.9639,-1.9639,-1.9551,-1.9389,-1.9075,-1.8873,-1.8131,-1.6171,-1.5559,-1.4997,-1.3953,-1.352,-1.3098,-1.2372,-1.2305,-1.2305,-1.2305,-1.2305,-1.2305,-1.2305,-1.2305,-1.2305,-1.2305,-1.2305,-1.2305,-1.2305,-1.2305,-1.2305,-1.2305,-1.2305,-1.2305,0.0,0.0,0.0,0.0,0.0,0.0,0.0,0.0,0.0,0.0,0.0,0.0,0.0,0.0,0.0,0.0,0.0,0.0,0.0,0.0,0.0,0.0,-1.8317,-1.681,-1.5248,-1.4521,-1.4088,-1.4088,-1.4088,-1.4088,-1.4088,-1.4088,-1.4088,-1.4088,-1.4088,-1.4088,-1.4088,-1.4088,-1.4088,-1.4088,-1.4088,-1.4416,-1.4993,-1.4993,-1.5819,-1.7309,-1.7309,-1.7769,-1.8709,-1.8709,-1.9027,-1.9678,-1.9678,-2.0001,-2.0566,-2.0566,-2.0566,-2.0596,0.0,0.0,0.0,0.0,-2.0566,-2.0566,-2.0566,-2.0566,-2.0566,-2.0566,-2.0566,-2.0527,-2.0352,-2.0293,-2.0254,-2.0078,-2.0029,-1.9971,-1.9717,-1.9648,-1.959,-1.9346,-1.9287,-1.9287,-1.9287,-1.915,-1.9014,-1.9014,-1.8877,0.0,-1.7035,-1.6546,-1.5723,-1.42,-1.4156,-1.381,-1.2445,-1.2659,-1.2732,-1.2372,-1.2305,-1.2305,-1.2305,-1.2305,0.0,0.0,0.0,-1.2305,-1.2305,-1.2305,0.0,0.0,0.0,-1.2305,-1.2305,-1.2305,0.0,0.0,-1.2305,-1.2305,0.0,0.0,0.0,0.0,0.0,0.0,0.0,0.0,0.0,0.0,0.0,0.0,0.0,0.0,0.0,0.0,-1.9343,-1.8301,-1.6355,-1.5061,-1.425,-1.4088,-1.4088,-1.4088,-1.4088,-1.4088,-1.4088,-1.4088,-1.4088,-1.4088,-1.4088,-1.4088,0.0,0.0,0.0,-1.4573,-1.5538,-1.5621,-1.6764,-1.8798,-1.8957,-1.952,-2.0566,-2.0566,-2.0566,-2.0566,-2.0566,-2.0566,-2.0566,-2.0566,-2.0566,-2.0566,-2.0566,-2.0566,-2.0566,-2.0566,-2.0566,-2.0557,-2.0508,0.0,0.0,-2.0439,-2.042,-2.0352,-1.9961,-1.9844,-1.9766,-1.9394,-1.9287,-1.9277,-1.9228,-1.9219,-1.9199,-1.915,-1.9141,-1.9141,-1.9141,-1.8838,-1.8494,-1.8494,-1.8262,-1.8008,-1.8008,-1.7605,-1.6553,-1.4361,-1.4807,-1.4665,-1.2732,-1.3164,-1.331,-1.2372,-1.2305,0.0,-1.2305,-1.2305,-1.2305,-1.2305,-1.2305,-1.2305,-1.2305,-1.2305,-1.2305,-1.2305,-1.2305,-1.2305,-1.2305,-1.2305,-1.2305,-1.2305,-1.2305,-1.2305,0.0,0.0,0.0,0.0,0.0,0.0,0.0,0.0,0.0,0.0,0.0,0.0,0.0,0.0,0.0,-2.0429,-1.9655,-1.8877,-1.839,-1.6683,-1.5054,-1.4166,-1.4088,-1.4088,-1.4088,-1.4088,-1.4088,-1.4088,-1.4088,-1.4088,-1.4088,-1.4088,-1.4088,-1.4088,-1.4088,-1.4166,-1.4412,-1.5304,-1.6355,-1.7666,-1.8559,0.0,-2.0566,-2.0566,-2.0566,-2.0566,-2.0566,-2.0566,-2.0566,-2.0566,-2.0566,-2.0566,-2.0566,-2.0566,-2.0566,-2.0566,-2.0566,-2.0518,-2.0166,-2.0039,-1.998,-1.9648,-1.9541,-1.9521,-1.9434,-1.9404,0.0,-1.9307,-1.9287,-1.9209,-1.8857,-1.876,-1.8672,-1.834,-1.8262,-1.8262,-1.8262,-1.8193,-1.8135,-1.8135,-1.8066,-1.8008,-1.8008,-1.793,-1.7458,-1.6228,-1.621,-1.5649,-1.3665,-1.36,-1.331,-1.2372,-1.2305,-1.2305,-1.2305,-1.2305,-1.2305,-1.2305,-1.2305,-1.2305,-1.2305,-1.2305,-1.2305,-1.2305,-1.2305,-1.2305,-1.2305,-1.2305,-1.2305,-1.2305,-1.2305,-1.2305,0.0,0.0,0.0,0.0,0.0,0.0,0.0,0.0,0.0,0.0,0.0,-2.0566,-2.0566,0.0,-2.0566,-2.0566,-2.0157,-1.9441,-1.831,-1.7172,-1.6116,-1.5061,-1.4412,-1.4088,-1.4088,-1.4088,-1.4088,-1.4088,-1.4088,-1.4088,-1.4088,-1.4088,-1.4088,-1.4088,-1.4657,-1.5144,-1.5718,-1.6764,-1.79,-1.8948,-1.952,-2.0079,-2.0557,-2.0342,-2.0244,-2.0225,-2.0019,-1.9922,-1.9922,-1.9922,-1.9922,-1.9922,-1.9922,-2.0049,-2.0215,-2.0,-1.9922,-1.9893,-1.9678,-1.96,-1.957,-1.9355,-1.9568,-1.9807,-1.9167,-1.9576,-2.0136,-1.9442,-1.9579,-1.9928,-1.963,-1.9567,-1.9582,-1.9362,-1.8977,-1.8654,-1.8654,-1.8337,-1.8008,-1.8008,-1.8008,-1.8008,-1.8008,-1.8008,-1.7647,-1.6706,-1.7001,-1.6576,-1.4665,-1.445,-1.4099,-1.3091,-1.2592,-1.2305,-1.2305,-1.2305,-1.2305,-1.2305,-1.2164,-1.2084,-1.2084,-1.2084,-1.2084,-1.2084,-1.2225,-1.2305,-1.2305,-1.2305,-1.2305,-1.2298,-1.1768,-1.1848,0.0,0.0,0.0,0.0,0.0,0.0,0.0,0.0,-2.2038,-2.1088,-2.0712,-2.0566,-2.0566,-2.0566,-2.0566,-2.0566,-2.0566,-2.0001,-1.8221,-1.7738,-1.7334,-1.6429,-1.4977,-1.4088,-1.4088,-1.4088,-1.4088,-1.4088,-1.4035,-1.4001,-1.4001,-1.4108,-1.4241,-1.4241,-1.5189,-1.6152,-1.7039,-1.8162,-1.921,-2.0082,-2.0236,-2.0312,-2.0303,-1.9951,-1.9795,-1.9775,-1.9434,-1.9287,-1.9287,-1.9287,-1.9287,-1.9277,-1.9189,-1.9365,-1.9639,-1.9385,-1.9287,-1.9277,-1.9189,-1.916,-1.915,-1.9062,-1.9657,-2.0128,-1.8884,-1.9708,-2.082,-1.9669,-1.9955,-2.059,-2.059,-2.0462,-2.0333,-2.0333,-1.9694,-1.9044,-1.9044,-1.8529,-1.8008,-1.8008,-1.8008,-1.8008,-1.8008,-1.8008,-1.7725,-1.6991,-1.7501,-1.7364,-1.5658,-1.5305,-1.4807,-1.3818,-1.2823,-1.2191,-1.2138,-1.2131,-1.2131,-1.2131,-1.1911,-1.1784,-1.1784,-1.1784,-1.1784,-1.1784,-1.2011,-1.2131,-1.2131,-1.2131,-1.2131,-1.2131,-1.1365,-1.1341,-3.1653,-3.077,-2.995,-2.9066,-2.8168,-2.7043,0.0,0.0,-2.3073,-2.2027,-2.1155,-2.0566,-2.0566,-2.0566,-2.0566,-2.0566,-2.0566,-2.0479,-2.0245,-1.9441,-1.8798,-1.863,-1.5959,-1.4088,-1.4088,-1.4088,-1.4088,-1.4088,-1.3841,-1.3694,-1.3694,-1.4214,-1.4523,-1.4523,-1.5436,-1.6045,-1.6122,-1.729,-1.792,-1.807,-1.8972,-1.9434,-1.9424,-1.9375,-1.9355,-1.9355,-1.9307,-1.9287,-1.9287,-1.9287,-1.9287,-1.9248,-1.8857,-1.874,-1.8818,-1.916,-1.9287,-1.9238,-1.8848,-1.8711,-1.8652,-1.8271,-1.8738,-1.9245,-1.8359,-1.9316,-2.0464,-1.9573,-1.9955,-2.059,-2.059,-2.0009,-1.9431,-1.9431,-1.8787,-1.8144,-1.8144,-1.8076,-1.8008,-1.8008,-1.8008,-1.8008,-1.8008,-1.8008,-1.794,-1.7862,-1.794,-1.7647,-1.6567,-1.572,-1.4807,-1.3818,-1.2641,-1.181,-1.155,-1.1523,-1.1523,-1.1523,-1.149,-1.1476,-1.1476,-1.1476,-1.1476,-1.1476,-1.151,-1.1523,-1.1523,-1.1523,-1.1523,-1.153,-1.172,-1.1458,-3.1291,-3.067,-3.0116,-2.8911,-2.8215,-2.7389,-2.558,-2.4743,-2.3891,-2.2328,-2.1659,-2.1231,-2.0712,-2.0566,-2.0324,-1.9514,-1.987,-1.9698,-1.8271,-1.7621,-1.7157,-1.6542,-1.475,-1.3879,-1.4693,-1.4069,-1.3574,-1.3574,-1.3922,-1.4158,-1.4158,-1.4947,-1.5396,-1.5396,-1.6472,-1.7009,-1.7009,-1.8073,-1.8609,-1.8609,-1.9068,-1.9287,-1.9277,-1.9023,-1.8779,-1.8545,-1.8545,-1.8545,-1.8545,-1.8545,-1.8545,-1.8525,-1.834,-1.8271,-1.8291,-1.8477,-1.8545,-1.8525,-1.834,-1.8271,-1.8242,-1.8066,-1.8596,-1.9243,-1.8854,-1.9944,-2.1302,-2.091,-2.1416,-2.2051,-2.2051,-2.1791,-2.1542,-2.1542,-2.091,-2.0139,-1.9628,-1.9497,-1.9365,-1.8854,-1.8787,-1.8787,-1.8787,-1.8337,-1.8008,-1.8008,-1.8008,-1.7862,-1.7501,-1.6369,-1.4965,-1.3269,-1.2235,-1.1563,-1.1436,-1.1423,-1.1423,-1.1423,-1.1269,-1.1176,-1.1176,-1.1176,-1.1176,-1.1176,-1.1336,-1.1423,-1.1423,-1.1423,-1.1423,-1.1361,-1.0912,-1.0314,-3.1516,-3.095,-3.0294,-2.8884,-2.8163,-2.74,-2.5846,-2.4995,-2.4061,-2.2375,-2.1797,-2.1298,-2.0434,-2.0052,-1.964,-1.8863,-1.9052,-1.8704,-1.696,-1.669,-1.6312,-1.525,-1.4193,-1.3931,-1.4926,-1.3901,-1.3213,-1.3213,-1.3733,-1.4127,-1.4127,-1.5169,-1.5781,-1.5781,-1.7066,-1.7752,-1.7752,-1.8567,-1.8936,-1.8936,-1.8936,-1.8936,-1.8926,-1.8603,-1.8301,-1.8008,-1.8008,-1.8008,-1.8008,-1.8008,-1.8008,-1.8008,-1.8008,-1.8008,-1.8008,-1.8269,-1.8327,-1.8395,-1.8654,-1.8721,-1.8721,-1.8721,-1.9309,-1.9944,-1.9748,-2.0846,-2.2199,-2.1939,-2.2506,-2.3078,-2.3078,-2.2944,-2.2763,-2.2763,-2.2125,-2.1365,-2.0719,-2.059,-2.0398,-1.9759,-1.9694,-1.9585,-1.9447,-1.8726,-1.8108,-1.7989,-1.778,-1.7705,-1.7822,-1.6407,-1.4664,-1.2802,-1.1776,-1.1276,-1.1196,-1.1189,-1.1189,-1.1189,-1.0989,-1.0875,-1.0875,-1.0875,-1.0875,-1.0875,-1.1082,-1.1189,-1.1189,-1.0914,-1.0847,-1.0779,-0.9879,-0.9151,-3.2857,-3.2007,-3.0777,-2.947,-2.8182,-2.6982,-2.6118,-2.4603,-2.3124,-2.2229,-2.1258,-2.037,-1.9462,-1.8573,-1.8267,-1.9151,-1.8554,-1.7942,-1.7859,-1.7859,-1.7459,-1.6455,-1.5182,-1.4403,-1.4411,-1.3649,-1.3213,-1.3213,-1.3003,-1.2835,-1.2835,-1.4371,-1.5196,-1.5196,-1.7047,-1.7979,-1.7979,-1.8047,-1.8047,-1.8047,-1.8047,-1.8047,-1.8047,-1.8037,-1.8018,-1.8008,-1.8008,-1.8008,-1.8008,-1.8008,-1.8008,-1.8008,-1.8008,-1.8008,-1.8076,-1.8977,-1.9243,-1.9365,-2.0204,-2.0526,-2.0526,-2.0526,-2.1112,-2.1678,-2.0846,-2.1729,-2.2884,-2.2137,-2.2506,-2.3078,-2.3078,-2.2506,-2.1939,-2.1939,-2.129,-2.0655,-2.059,-2.059,-2.059,-2.059,-2.059,-2.037,-1.9805,-1.905,-1.8406,-1.7905,-1.7179,-1.6924,-1.7344,-1.5534,-1.3631,-1.2367,-1.1514,-1.0895,-1.0672,-1.0651,-1.0651,-1.0651,-1.0645,-1.0638,-1.0638,-1.0638,-1.0638,-1.0638,-1.0645,-1.0651,-1.0651,-0.9746,-0.9361,-0.9361,-0.8737,-0.843,-3.2511,-3.1691,-3.0718,-2.9422,-2.8499,-2.7703,-2.7003,-2.5895,-2.4734,-2.3789,-2.2468,-2.1064,-1.9499,-1.8497,-1.7463,-1.6228,-1.6334,-1.6167,-1.5276,-1.5097,-1.5016,-1.4649,-1.3675,-1.3033,-1.3033,-1.277,-1.2605,-1.2605,-1.3096,-1.369,-1.434,-1.5505,-1.6428,-1.701,-1.7657,-1.8008,-1.8008,-1.8008,-1.8008,-1.8008,-1.8008,-1.8008,-1.8008,-1.8008,-1.8008,-1.8008,-1.8596,-1.8844,-1.8911,-1.9497,-1.9759,-1.9759,-1.9759,-1.9759,-1.9814,-2.0719,-2.1049,-2.0974,-2.0719,-2.059,-2.059,-2.059,-2.0782,-2.1101,-2.1365,-2.1877,-2.2384,-2.2628,-2.2884,-2.3078,-2.3078,-2.2884,-2.2702,-2.2702,-2.2445,-2.2125,-2.1553,-2.1592,-2.1536,-2.0965,-2.0563,-2.0273,-2.0098,-1.8923,-1.775,-1.6819,-1.672,-1.668,-1.6523,-1.5412,-1.4156,-1.2851,-1.1999,-1.1277,-1.0631,-1.0624,-1.0624,-1.0624,-1.0624,-1.0624,-1.0624,-1.0624,-1.0624,-1.0624,-1.0624,-1.0624,-1.0624,-0.9722,-0.9274,-0.9274,-0.85,-0.7805,-3.3045,-3.2303,-3.1498,-3.0253,-2.912,-2.8122,-2.7489,-2.6497,-2.5382,-2.4166,-2.2822,-2.1252,-1.9124,-1.774,-1.6452,-1.4893,-1.4927,-1.4702,-1.384,-1.3673,-1.36,-1.3244,-1.2659,-1.2305,-1.2305,-1.2305,-1.2305,-1.2305,-1.2879,-1.3448,-1.4163,-1.5367,-1.6358,-1.701,-1.7647,-1.8008,-1.8008,-1.8008,-1.8008,-1.8008,-1.8008,-1.8008,-1.8008,-1.8008,-1.8134,-1.8529,-1.9044,-1.9497,-1.9824,-2.0398,-2.059,-2.059,-2.059,-2.059,-2.0719,-2.1553,-2.1877,-2.1877,-2.1616,-2.1479,-2.1479,-2.1479,-2.1479,-2.1604,-2.2125,-2.2322,-2.2445,-2.2944,-2.3078,-2.3078,-2.3078,-2.2987,-2.2836,-2.2836,-2.2686,-2.2359,-2.1872,-2.1897,-2.1836,-2.1277,-2.0882,-2.058,-2.0399,-1.893,-1.7375,-1.6396,-1.6256,-1.6152,-1.5869,-1.5149,-1.4249,-1.3094,-1.2266,-1.1469,-1.0688,-1.0624,-1.0624,-1.0624,-1.0624,-1.0624,-1.0624,-1.0624,-1.0624,-1.0624,-1.0301,-1.011,-1.011,-0.8935,-0.835,-0.8355,-0.7447,-0.6793,-3.4367,-3.3826,-3.2988,-3.1863,-3.007,-2.8402,-2.7704,-2.6486,-2.5065,-2.3449,-2.2335,-2.0865,0.0,-1.6374,-1.5092,-1.5092,-1.4243,-1.36,-1.36,-1.36,-1.331,-1.2372,-1.2224,-1.2224,-1.215,-1.215,-1.215,-1.2224,-1.2305,-1.2298,-1.2372,-1.4091,-1.5163,-1.5234,-1.6941,-1.794,-1.794,-1.8008,-1.8008,-1.8008,-1.8008,-1.8008,-1.8008,-1.8008,-1.8462,-1.9233,-1.9299,-1.9824,-2.059,-2.0719,-2.0719,-2.0719,-2.0696,-2.0685,-2.0801,-2.1557,-2.1868,-2.1992,-2.2737,-2.3027,-2.3125,-2.304,-2.3027,-2.3027,-2.3002,-2.299,-2.299,-2.299,-2.299,-2.299,-2.299,-2.2661,-2.2272,-2.2272,-2.187,-2.1493,-2.1493,-2.1468,-2.1443,-2.1443,-2.1418,-2.123,-2.0702,-1.8951,-1.7413,-1.6595,-1.5921,-1.5468,-1.541,-1.4746,-1.3965,-1.313,-1.2389,-1.1593,-1.0744,-1.0681,-1.0624,-1.0624,-1.0624,-1.0624,-1.0624,-1.0624,-1.0624,-1.0624,-0.9722,-0.9274,-0.9274,-0.7567,-0.6785,-0.6719,-0.5881,-0.5491,-3.4999,-3.4543,-3.3785,-3.273,-3.1856,-3.0879,-2.9632,-2.828,-2.6796,-2.4861,-2.2474,-1.9854,-1.7243,-1.5317,-1.3882,-1.3164,-1.2806,-1.2666,-1.2666,-1.2666,-1.2285,-1.131,0.0,-1.087,-1.0126,-1.0045,-1.0346,-1.1168,-1.1848,-1.2592,-1.331,-1.381,-1.4458,-1.5163,-1.6358,-1.6922,-1.6922,-1.7647,-1.8008,-1.8008,-1.8008,-1.8008,-1.8008,-1.8008,-1.8144,-1.8395,-1.9683,-2.0398,-2.0719,-2.1928,-2.2433,-2.2396,-2.1994,-2.1895,-2.1858,-2.17,-2.1609,-2.1609,-2.185,-2.2447,-2.3002,-2.2661,-2.2523,-2.2447,-2.2033,-2.1907,-2.1907,-2.1907,-2.1907,-2.1907,-2.1907,-2.1807,-2.1694,-2.1694,-2.1594,-2.1493,-2.1493,-2.1167,-2.092,-2.092,-2.0526,-2.0017,-1.9327,-1.8756,-1.795,-1.6708,-1.6322,-1.6036,-1.5468,-1.5235,-1.4815,-1.3965,-1.3726,-1.3053,-1.1593,-1.1469,-1.1226,-1.0624,-1.0624,-1.0624,-1.0624,-1.0624,-1.0624,-1.0624,-0.9722,-0.9274,-0.9274,-0.8221,-0.7697,-0.7632,-0.6789,-0.6396,-3.4391,-3.4249,-3.3732,-3.2845,-3.2231,-3.1487,-3.007,-2.8698,-2.7011,-2.4489,-2.2042,-1.9265,-1.5791,-1.4379,-1.3084,-1.1242,-1.1323,-1.1471,-1.1025,-1.095,-1.0795,0.0,-1.0115,-0.989,-0.9372,-0.9296,-0.9523,-1.0115,-1.1093,-1.2063,-1.3018,-1.3455,-1.4171,-1.5163,-1.614,-1.6784,-1.7217,-1.7725,-1.8008,-1.8008,-1.7822,-1.7734,-1.7734,-1.7539,-1.7639,-1.8076,-1.9009,-1.9702,-2.0138,-2.1368,-2.1916,-2.1891,-2.1956,-2.1945,-2.192,-2.1606,-2.1493,-2.1493,-2.1493,-2.1895,-2.2359,-2.2046,-2.1945,-2.1895,-2.1581,-2.1493,-2.1493,-2.1493,-2.1493,-2.1493,-2.1493,-2.1305,-2.1129,-2.1129,-2.0941,-2.074,-2.074,-2.0514,-2.0288,-2.0288,-2.0024,-1.9695,-1.9254,-1.8927,-1.8436,-1.7578,-1.6922,-1.6379,-1.5921,-1.5584,-1.5108,-1.4273,-1.3906,-1.3174,-1.1888,-1.1469,-1.1108,-1.0624,-1.0624,-1.0624,-1.0624,-1.0624,-1.0624,-1.0624,-0.9722,-0.9274,-0.9274,-0.842,-0.7832,-0.7437,-0.6915,-0.6527,-3.282,-3.3149,-3.3068,-3.2178,-3.1516,-3.0695,-2.9195,-2.7771,-2.5959,-2.2923,-2.0973,-1.8445,-1.4151,-1.3295,-1.2412,-0.9744,0.0,-1.0265,-0.9448,-0.9296,-0.9221,-0.9145,-0.9069,-0.9074,-0.8917,-0.8922,-0.8983,-0.903,-0.9841,-1.0902,-1.207,-1.2983,-1.3943,-1.5023,-1.5852,-1.6766,-1.7842,-1.7842,-1.7842,-1.7832,-1.7471,-1.7295,-1.7285,-1.6904,-1.7086,-1.7811,-1.7924,-1.8462,-1.9301,-2.0076,-2.0481,-2.0595,-2.1169,-2.138,-2.1368,-2.1292,-2.1255,-2.1255,-2.1255,-2.1255,-2.128,-2.1355,-2.138,-2.1368,-2.1292,-2.1255,-2.1255,-2.1255,-2.1255,-2.1255,-2.1255,-2.1012,-2.0711,-2.0605,-2.0267,-1.9901,-1.9798,-1.9798,-1.9798,-1.9798,-1.9798,-1.9798,-1.9798,-1.9254,-1.8821,-1.8715,-1.7523,-1.6595,-1.6482,-1.5864,-1.5108,-1.4451,-1.3666,-1.2818,-1.2012,-1.1226,-1.0681,-1.0624,-1.0624,-1.0624,-1.0624,-1.0624,-1.0624,-1.0624,-0.9722,-0.9274,-0.9274,-0.842,-0.7632,-0.685,-0.6785,-0.6264,-3.0007,-3.1075,-3.1669,-2.9938,-2.9406,-2.8748,-2.65,-2.4817,0.0,-2.085,-1.8516,-1.5961,-1.2963,-1.179,-1.0858,-0.9523,-0.9448,-0.9523,-0.9296,-0.9296,-0.8993,0.0,-0.8084,-0.7706,-0.6872,-0.6795,-0.7114,-0.7777,-0.7982,-0.8941,-1.0926,-1.1768,-1.2866,-1.428,-1.4472,-1.5274,-1.6889,-1.6953,-1.6953,-1.6953,-1.6875,-1.6846,-1.6846,-1.6768,-1.6792,-1.6971,-1.7698,-1.8401,-1.9171,-2.0064,-2.0779,-2.1263,-2.0991,-2.0857,-2.0752,-2.0275,-2.01,-2.01,-2.01,-2.01,-2.0175,-2.0706,-2.0857,-2.0769,-2.0238,-2.01,-2.01,-2.01,-2.01,-2.01,-2.01,-2.0425,-2.0653,-2.0104,-2.0322,-2.0446,-1.9901,-1.9798,-1.9798,-1.9798,-1.9798,-1.9798,-1.9798,-1.9695,-1.9423,-1.8768,-1.7961,-1.7202,-1.6595,-1.5864,-1.5352,-1.5235,-1.4451,-1.3666,-1.2879,-1.2081,-1.1288,-1.0624,-1.0624,-1.0624,-1.0624,-1.0624,-1.0624,-1.0624,-0.9722,-0.9274,-0.9274,-0.842,-0.7897,-0.7767,-0.7046,-0.6588,-2.6027,-2.6838,-2.6995,-2.6754,-2.6645,-2.6124,-2.4177,0.0,0.0,0.0,-1.5863,-1.3782,-1.0502,-0.9954,0.0,-0.7222,-0.7371,-0.7287,-0.6207,-0.6053,-0.5902,-0.5449,-0.5372,-0.5351,-0.5372,-0.5369,-0.5689,-0.6569,-0.713,-0.8322,-1.0312,-1.1697,-1.2733,-1.3443,-1.4345,-1.5265,-1.6055,-1.6465,-1.6665,-1.6728,-1.6494,-1.6387,-1.6377,-1.6152,-1.6045,-1.6045,-1.6447,-1.6855,-1.7248,-1.8453,-1.9142,-1.9507,-2.0035,-2.0213,-2.0188,-1.9911,-1.9798,-1.9798,-1.9798,-1.9798,-1.9849,-2.0125,-2.0213,-2.0162,-1.9886,-1.9798,-1.9798,-1.9798,-1.9798,-1.9798,-1.9798,-2.0055,-2.0207,-1.9901,-2.0055,-2.0207,-1.985,-2.0042,-2.0295,-2.0295,-2.0295,-2.0295,-2.0295,-2.0055,-1.9695,-1.9307,-1.8661,-1.7907,-1.7191,-1.6425,-1.5806,-1.5468,-1.4332,-1.3425,-1.3009,-1.1903,-1.0982,-1.0624,-1.0624,-1.0624,-1.0624,-1.0624,-1.0624,-1.0624,-1.0174,-0.9722,-0.9274,-0.8877,-0.8221,-0.7307,-0.6915,-0.6461,-2.1129,-2.1609,-2.1581,-2.2444,-2.2656,-2.2196,-2.0653,-1.9715,0.0,-1.4435,-1.2895,-1.1206,-0.8001,-0.7899,-0.7458,0.0,-0.5043,-0.4974,-0.3355,-0.3124,-0.3119,-0.3102,-0.31,0.0,-0.4117,-0.4405,-0.4803,-0.5405,-0.6557,-0.8012,-0.988,-1.1377,-1.2365,-1.263,-1.3972,-1.4806,-1.4942,-1.5729,-1.6134,-1.6186,-1.6033,-1.5918,-1.5908,-1.5566,-1.541,-1.541,-1.5584,-1.5748,-1.5968,-1.7291,-1.7961,-1.8167,-1.9371,-1.9798,-1.9798,-1.9798,-1.9798,-1.9798,-1.9798,-1.9798,-1.9798,-1.9798,-1.9798,-1.9798,-1.9798,-1.9798,-1.9798,-1.9798,-1.9798,-1.9798,-1.9798,-1.9901,-2.0055,-2.0181,-2.0232,-2.0232,-2.0232,-2.0633,-2.093,-2.0845,-2.0795,-2.0746,-2.0597,-2.0156,-1.9798,-1.9798,-1.915,-1.8436,-1.7677,-1.6978,-1.6208,-1.5468,-1.4085,-1.3252,-1.3252,-1.1965,-1.1052,-1.0863,-1.0863,-1.0807,-1.0624,-1.0624,-1.0624,-1.0624,-1.0434,-0.9983,-0.9274,-0.8947,-0.8027,-0.6719,-0.6527,-0.6075,-1.4914,-1.6009,-1.6915,-1.6376,-1.6272,-1.5828,-1.4193,0.0,-1.2109,-1.0966,-0.9297,-0.7694,-0.6369,-0.5533,-0.4651,0.0,0.0,-0.3355,-0.3124,-0.3124,-0.31,-0.3113,0.0,0.0,-0.3214,-0.4003,-0.4462,-0.4348,-0.5858,-0.764,-0.9606,-0.9886,-1.0555,-1.1869,-1.2041,-1.2476,-1.323,-1.402,-1.4441,-1.4441,-1.5126,-1.5469,-1.5469,-1.543,-1.541,-1.541,-1.6093,-1.6754,-1.7457,-1.8274,-1.8992,-1.9592,-1.9747,-1.9798,-1.9798,-1.9798,-1.9798,-1.9798,-1.9798,-1.9798,-1.9798,-1.9798,-1.9798,-1.9798,-1.9798,-1.9798,-1.9798,-1.9798,-1.9798,-1.9798,-1.9798,-2.0245,-2.0832,-2.1376,-2.1506,-2.1506,-2.1506,-2.1554,-2.1472,-2.0894,-2.0795,-2.0597,-2.0003,-1.985,-1.9798,-1.9798,-1.915,-1.8436,-1.7677,-1.6978,-1.6208,-1.5468,-1.4628,-1.4094,-1.4094,-1.3304,-1.2451,-1.171,-1.171,-1.1351,-1.0618,-1.0624,-1.0624,-1.0624,-0.9849,-0.9402,-0.9274,-0.7702,-0.685,-0.6654,-0.5881,-0.5495,-1.0799,-1.1574,-1.1914,-1.2913,-1.3202,-1.2841,-1.1627,0.0,-1.0236,-0.8139,-0.7091,-0.6108,-0.4549,-0.3937,-0.3381,0.0,0.0,0.0,-0.1302,-0.1241,-0.1249,-0.1238,-0.122,-0.1421,-0.1966,-0.2362,-0.3011,-0.4024,-0.5246,-0.6498,-0.7819,-0.8887,-0.9955,-1.1045,-1.1531,-1.2205,-1.3009,-1.3786,-1.4451,-1.4932,-1.5235,-1.541,-1.541,-1.541,-1.541,-1.541,-1.569,-1.6026,-1.6358,-1.7567,-1.8232,-1.8555,-1.9475,-1.9798,-1.9798,-1.9798,-1.9798,-1.9798,-1.9798,-1.9798,-1.9798,-1.9798,-1.9798,-1.9901,-2.0308,-2.0105,-1.994,-2.0756,-2.067,-2.0497,-2.0855,-2.1148,-2.1376,-2.1649,-2.1697,-2.1697,-2.1697,-2.1993,-2.2207,-2.1988,-2.1941,-2.1738,-2.1037,-2.062,-2.0245,-1.985,-1.9527,-1.9097,-1.834,-1.8004,-1.7357,-1.6197,-1.4972,-1.4213,-1.4213,-1.3485,-1.2634,-1.1834,-1.1834,-1.1469,-1.0618,-1.0624,-1.0624,-1.0624,-0.9722,-0.9075,-0.8484,-0.7307,-0.6719,-0.6654,-0.5818,-0.5686,-0.6881,-0.7193,-0.7251,-0.9281,-0.9589,-0.9321,0.0,0.0,-0.7806,-0.5481,-0.4786,-0.4157,-0.2836,-0.2359,-0.1941,0.0,0.0,-0.0899,-0.0076,0.0,0.0,0.0,0.0,-0.0224,-0.0867,-0.1403,-0.2325,-0.3887,-0.4888,-0.5749,-0.6654,-0.7897,-0.9069,-1.0174,-1.1038,-1.1717,-1.2274,-1.3304,-1.4154,-1.4688,-1.5167,-1.541,-1.541,-1.541,-1.541,-1.541,-1.5633,-1.5748,-1.5806,-1.7079,-1.7578,-1.7743,-1.898,-1.9475,-1.9475,-1.9695,-1.9798,-1.9798,-1.9798,-1.9798,-1.9798,-1.9798,-1.9798,-1.9952,-2.0832,-2.0584,-2.0295,-2.1197,-2.1245,-2.1161,-2.1615,-2.1852,-2.1993,-2.1993,-2.2132,-2.2271,-2.2271,-2.262,-2.292,-2.274,-2.2694,-2.2452,-2.1582,-2.1245,-2.0782,-1.9952,-1.9952,-1.9786,-1.8821,-1.8715,-1.8112,-1.6652,-1.5555,-1.4796,-1.4569,-1.4025,-1.3243,-1.2205,-1.2143,-1.1717,-1.0624,-1.0624,-1.0624,-1.0624,-0.9722,-0.9011,-0.8355,-0.7502,-0.6981,-0.6654,-0.6075,-0.5943,-0.2744,-0.2744,-0.3209,-0.4929,-0.4725,-0.4323,-0.5127,-0.4659,-0.3796,-0.2945,-0.2011,-0.1341,-0.1342,-0.0619,0.0,0.0,0.0,0.0,0.0,0.0,0.0,0.0,0.0,0.0,0.0,-0.1638,-0.3078,-0.3949,-0.4888,-0.5749,-0.6654,-0.6719,-0.7502,-0.9274,-1.0174,-1.0624,-1.0624,-1.2212,-1.3009,-1.307,-1.4628,-1.541,-1.541,-1.541,-1.541,-1.5468,-1.6151,-1.6492,-1.6549,-1.7302,-1.7578,-1.7688,-1.8436,-1.8715,-1.8821,-1.9527,-1.9798,-1.9798,-1.9798,-1.9798,-1.9798,-1.9798,-1.9798,-2.0042,-2.1328,-2.1245,-2.0795,-2.0795,-2.1245,-2.1697,-2.1697,-2.2193,-2.2694,-2.2694,-2.3143,-2.3595,-2.3595,-2.3595,-2.3421,-2.283,-2.2694,-2.2314,-2.1042,-2.1293,-2.128,-1.9991,-2.0346,-2.0283,-1.8874,-1.8715,-1.8112,-1.6652,-1.6492,-1.6208,-1.5468,-1.5352,-1.4688,-1.307,-1.3009,-1.2274,-1.0688,-1.0624,-1.0624,-1.0624,-0.9722,-0.9274,-0.9274,-0.842,-0.7567,-0.6719,-0.6719,-0.6203,0.0067,0.0067,-0.0266,-0.1393,-0.1925,-0.2195,-0.2526,-0.2865,-0.2872,-0.1941,-0.1474,-0.114,-0.0538,-0.0204,0.0,0.0,0.0,0.0,0.0,0.0,0.0,0.0,0.0,0.0,0.0,-0.1637,-0.2811,-0.3078,-0.4553,-0.5491,-0.5815,-0.6396,-0.7502,-0.9268,-0.9594,-1.0281,-1.1406,-1.1958,-1.2749,-1.3855,-1.4332,-1.4874,-1.541,-1.541,-1.541,-1.541,-1.5642,-1.5748,-1.5864,-1.7079,-1.7578,-1.7743,-1.8992,-1.9475,-1.9475,-1.9695,-1.9798,-1.9798,-1.9798,-1.9798,-1.9798,-1.9798,-2.0105,-2.0547,-2.0979,-2.093,-2.0993,-2.1846,-2.2529,-2.298,-2.298,-2.3172,-2.3334,-2.3334,-2.3465,-2.3595,-2.3595,-2.3595,-2.3551,-2.3334,-2.3334,-2.3054,-2.2221,-2.2267,-2.1974,-2.0696,-2.0646,-2.0497,-1.9579,-1.9475,-1.8874,-1.7413,-1.7246,-1.6754,-1.5526,-1.541,-1.4688,-1.313,-1.3545,-1.2879,-1.0688,-1.1108,-1.117,-1.0624,-0.9722,-0.9274,-0.9274,-0.842,-0.7567,-0.6719,-0.6719,-0.6203,0.0,0.0803,0.0602,-0.0267,-0.0667,0.0,-0.1202,-0.1472,-0.1543,-0.094,-0.0806,-0.0672,-0.0067,0.0,0.0135,0.0546,0.0632,0.0578,0.0589,0.0607,0.0466,0.0078,0.0,0.0,0.0,-0.1304,-0.2344,-0.2678,-0.4015,-0.5024,-0.5362,-0.5947,-0.6854,-0.8291,-0.8947,-0.9964,-1.1344,-1.1648,-1.232,-1.3295,-1.3906,-1.4451,-1.4932,-1.5235,-1.541,-1.541,-1.541,-1.541,0.0,-1.6404,-1.6912,-1.7302,-1.8489,-1.915,-1.9423,-1.9695,-1.9798,-1.9798,-1.9798,-1.9798,-1.9798,-1.9798,-2.0383,-2.1161,-2.1161,-2.1307,-2.1752,-2.2725,-2.3334,-2.3595,-2.3595,-2.3595,-2.3595,-2.3595,-2.3595,-2.3595,-2.3595,-2.3595,-2.3595,-2.3595,-2.3595,-2.3421,-2.2785,-2.2875,-2.2589,-2.1355,-2.1355,-2.1175,-2.0295,-2.0207,-1.9619,-1.8167,-1.8015,-1.7413,-1.5921,-1.5584,-1.4815,-1.3545,-1.3906,-1.3364,-1.16,-1.1717,-1.1593,-1.1045,-1.0231,-0.9786,-0.9786,-0.8613,-0.7697,-0.7177,-0.6527,-0.5947,0.0,0.0067,0.0,-0.0804,-0.047,-0.0135,-0.0939,-0.0538,0.0,0.0,0.0,0.0,0.0067,0.0135,0.0477,0.1531,0.1683,0.1715,0.1576,0.1513,0.1146,0.0156,0.0,0.0,0.0,-0.0762,-0.1675,-0.2611,-0.348,-0.4417,-0.5359,-0.5428,-0.5818,-0.6654,-0.835,-0.9658,-1.0498,-1.1288,-1.1772,-1.1834,-1.3295,-1.4085,-1.4213,-1.4991,-1.5352,-1.541,-1.541,-1.541,-1.541,-1.5468,-1.5921,-1.6652,-1.7413,-1.8124,-1.8874,-1.9527,-1.9798,-1.9798,-1.9798,-1.9798,-1.9798,-1.9901,-2.0756,-2.1805,-2.1838,-2.2285,-2.2875,-2.3421,-2.3595,-2.3595,-2.3595,-2.3595,-2.3595,-2.3595,-2.3595,-2.3595,-2.3595,-2.3595,-2.3595,-2.3595,-2.3595,-2.3421,-2.2875,-2.3231,-2.3172,-2.1946,-2.2253,-2.2175,-2.0944,-2.0746,-2.0232,-1.8874,-1.8715,-1.8112,-1.6708,-1.5921,-1.5108,-1.4264,-1.4264,-1.3906,-1.307,-1.2266,-1.1834,-1.1834,-1.0989,-1.0624,-1.0624,-0.8865,-0.8027,-0.7962,-0.621,-0.5428,0.0067,0.0,0.2009,0.1806,0.1407,0.0939,0.0,0.0,0.0,0.0,0.0,0.0,0.0873,0.1093,0.1526,0.244,0.2673,0.2457,0.1735,0.0922,0.031,0.0,0.0,0.0,0.0,-0.0822,-0.1675,-0.2611,-0.348,-0.4417,-0.5359,-0.5428,-0.5818,-0.6654,-0.7762,-0.8748,-0.9594,-1.0421,-1.1163,-1.1834,-1.2197,-1.2992,-1.4213,-1.4392,-1.4815,-1.541,-1.541,-1.541,-1.5468,-1.6036,-1.6708,-1.7413,-1.8167,-1.8874,-1.9579,-1.9747,-1.9798,-1.9798,-1.9798,-1.9798,-1.994,-2.0939,-2.1805,-2.2543,-2.3024,-2.3275,-2.3421,-2.3551,-2.3595,-2.3595,-2.3595,-2.3595,-2.3595,-2.3595,-2.3595,-2.3595,-2.3595,-2.3595,-2.3595,-2.3595,-2.3595,-2.3551,-2.3421,-2.3508,-2.3319,-2.2589,-2.2146,-2.1677,-2.0894,-2.0346,-1.9683,-1.8821,-1.8715,-1.834,-1.7413,-1.6652,-1.568,-1.4264,-1.4805,-1.451,-1.307,-1.2826,-1.2451,-1.1826,-1.0989,-1.0624,-1.0624,-0.8865,-0.8027,-0.7962,-0.621,-0.5428,0.0,0.074,0.1477,0.1477,0.1074,0.0672,0.0,0.0,0.0,0.0,0.0,0.0,0.0,0.0,0.2522,0.3472,0.3308,0.2879,0.2375,0.1785,0.1242,0.0758,0.0739,0.0505,0.007,-0.041,-0.1275,-0.2611,-0.3145,-0.4015,-0.5362,-0.5428,-0.5818,-0.6654,-0.7567,-0.842,-0.9274,-1.0174,-1.0807,-1.1226,-1.1648,-1.2443,-1.3666,-1.4025,-1.4628,-1.541,-1.541,-1.541,-1.5468,-1.6208,-1.6922,-1.7688,-1.8394,-1.915,-1.9798,-1.9798,-1.9798,-1.9798,-1.9798,-1.9798,-1.994,-2.0953,-2.1724,-2.2346,-2.2995,-2.3377,-2.3595,-2.3595,-2.3595,-2.3595,-2.3595,-2.3595,-2.3595,-2.3595,-2.3595,-2.3595,-2.3595,-2.3595,-2.3595,-2.3595,-2.3595,-2.3595,-2.3595,-2.3595,-2.3377,-2.2785,-2.262,-2.2225,-2.1342,-2.1148,-2.0756,-1.9761,-1.9645,-1.923,-1.8167,-1.7743,-1.6845,-1.5371,-1.5342,-1.4815,-1.3606,-1.3191,-1.2451,-1.1288,-1.0807,-1.0624,-1.0624,-0.8865,-0.8027,-0.7962,-0.621,-0.5428,0.0,0.0067,0.0135,0.0,0.0,0.0067,0.0,0.0,0.0,0.0,0.0,0.0,0.0,0.3033,0.0,0.0,0.3802,0.3132,0.3115,0.2803,0.2312,0.1431,0.1323,0.1003,0.007,0.0,-0.074,-0.2544,-0.2678,-0.348,-0.5292,-0.5428,-0.5752,-0.6461,-0.7507,-0.8355,-0.9075,-1.011,-1.0624,-1.0624,-1.1406,-1.2205,-1.3009,-1.3846,-1.4628,-1.541,-1.541,-1.541,-1.5468,-1.6093,-1.681,-1.7677,-1.8286,-1.9032,-1.9798,-1.9798,-1.9798,-1.9798,-1.9798,-1.994,-2.0181,-2.0733,-2.139,-2.2086,-2.268,-2.3187,-2.3595,-2.3595,-2.3595,-2.3595,-2.3595,-2.3595,-2.3595,-2.3595,-2.3595,-2.3595,-2.3595,-2.3595,-2.3595,-2.3595,-2.3595,-2.3595,-2.3595,-2.3595,-2.3421,-2.292,-2.3187,-2.3084,-2.1993,-2.2161,-2.1988,-2.0944,-2.0696,-2.0181,-1.898,-1.8768,-1.8112,-1.6765,-1.5979,-1.5167,-1.4273,-1.3554,-1.2458,-1.08,-1.0807,-1.0744,-1.0624,-0.8865,-0.8027,-0.7962,-0.621,-0.5428,0.0,0.0538,0.094,0.0202,0.0,0.0202,0.0,0.0,0.0,0.0,0.0,0.0,0.0,0.4106,0.4576,0.0,0.428,0.3112,0.3122,0.1615,0.0452,0.0294,0.0215,0.021,0.0,0.0,-0.074,-0.2544,-0.2678,-0.348,-0.5292,-0.5428,-0.5491,-0.5624,-0.7181,-0.8091,-0.8221,-0.9779,-1.0624,-1.0624,-1.1406,-1.2205,-1.3009,-1.3846,-1.4628,-1.541,-1.541,-1.541,-1.541,-1.5526,-1.6358,-1.7633,-1.7743,-1.8608,-1.9798,-1.9798,-1.9798,-1.9798,-1.9798,-2.0521,-2.1424,-2.152,-2.2363,-2.3319,-2.3421,-2.3508,-2.3595,-2.3595,-2.3595,-2.3595,-2.3595,-2.3595,-2.3595,-2.3595,-2.3595,-2.3595,-2.3595,-2.3595,-2.3595,-2.3595,-2.3595,-2.3595,-2.3595,-2.3595,-2.3551,-2.3465,-2.3113,-2.2785,-2.2543,-2.1704,-2.1042,-2.0795,-2.0295,-1.985,-1.9643,-1.9044,-1.8328,-1.7468,-1.6765,-1.5671,-1.4273,-1.4085,-1.3235,-1.1648,-1.1648,-1.1288,-1.0624,-0.8865,-0.8027,-0.7962,-0.621,-0.5428,0.0,0.0605,0.1207,0.0806,0.1074,0.1543,0.1942,0.0,0.0,0.0,0.0,0.0,0.0,0.0,0.53,0.5281,0.5041,0.4433,0.3226,0.2808,0.2156,0.1002,0.0846,0.0624,0.0068,0.0,-0.0538,-0.1876,-0.241,-0.328,-0.4553,-0.509,-0.562,-0.6075,-0.7312,-0.8221,-0.8683,-0.9977,-1.0624,-1.0624,-1.0982,-1.1593,-1.2389,-1.3183,-1.3965,-1.4805,-1.5225,-1.541,-1.541,-1.5806,-1.6368,-1.7034,-1.7468,-1.8004,-1.8661,-1.9044,-1.9475,-1.9798,-1.9798,-2.0434,-2.1245,-2.1615,-2.2331,-2.3187,-2.3508,-2.3595,-2.3595,-2.3595,-2.3595,-2.3595,-2.3595,-2.3595,-2.3595,-2.3595,-2.3595,-2.3595,-2.3595,-2.3595,-2.3595,-2.3595,-2.3595,-2.3595,-2.3595,-2.3595,-2.3508,-2.3143,-2.3143,-2.3054,-2.274,-2.2483,-2.2207,-2.1846,-2.1547,-2.1113,-2.0396,-2.0029,-1.9008,-1.7146,-1.5891,-1.4972,-1.4204,-1.3786,-1.3,-1.1834,-1.1834,-1.1149,-0.9919,-0.8613,-0.7767,-0.7242,-0.6013,-0.5428,0.0,0.0806,0.1608,0.1608,0.0,0.2744,0.2945,0.0,0.0,0.0,0.0,0.0,0.0,0.5854,0.5751,0.5059,0.5457,0.5194,0.33,0.3567,0.321,0.1405,0.1252,0.0894,0.0068,0.0,-0.0336,-0.1207,-0.2143,-0.3078,-0.3949,-0.4891,-0.5686,-0.6396,-0.7242,-0.8027,-0.8678,-0.9779,-1.0428,-1.0624,-1.08,-1.1226,-1.1834,-1.2634,-1.3425,-1.4204,-1.4864,-1.5235,-1.5468,-1.6036,-1.6322,-1.6549,-1.7146,-1.7468,-1.7688,-1.8447,-1.9044,-1.9579,-1.9747,-2.0245,-2.0894,-2.1342,-2.2067,-2.2785,-2.3246,-2.3508,-2.3595,-2.3595,-2.3595,-2.3595,-2.3595,-2.3595,-2.3595,-2.3595,-2.3595,-2.3595,-2.3595,-2.3595,-2.3595,-2.3595,-2.3595,-2.3595,-2.3595,-2.3595,-2.3465,-2.2965,-2.329,-2.3421,-2.2965,-2.3187,-2.3187,-2.2754,-2.242,-2.1799,-2.0646,-2.0396,-1.9374,-1.7135,-1.5756,-1.4895,-1.4737,-1.4136,-1.3295,-1.2074,-1.2081,-1.1142,-0.9274,-0.842,-0.7632,-0.6981,-0.5881,-0.5491,0.0,0.1276,0.2611,0.2611,0.0,0.0,0.3747,0.3882,0.0,0.509,0.0,0.0,0.0,0.5918,0.5912,0.5781,0.496,0.4012,0.306,0.214,0.1194,0.0211,0.0137,0.0068,0.0,0.0,-0.0336,-0.1207,-0.2143,-0.3078,-0.3949,-0.4891,-0.5428,-0.5491,-0.6334,-0.685,-0.6915,-0.8549,-0.9786,-1.0624,-1.1351,-1.1772,-1.1834,-1.2634,-1.3425,-1.4213,-1.4273,-1.4688,-1.541,-1.5468,-1.5864,-1.6492,-1.6549,-1.6978,-1.7688,-1.8447,-1.8715,-1.8874,-1.9579,-2.0245,-2.0795,-2.0845,-2.1704,-2.2694,-2.274,-2.3143,-2.3595,-2.3595,-2.3595,-2.3595,-2.3595,-2.3595,-2.3595,-2.3595,-2.3595,-2.3595,-2.3595,-2.3595,-2.3595,-2.3595,-2.3595,-2.3595,-2.3595,-2.3595,-2.361,-2.3551,-2.3551,-2.3595,-2.3551,-2.3098,-2.2754,-2.2694,-2.1657,-2.0646,-1.9952,-1.9254,-1.8768,-1.8555,-1.7786,-1.7079,-1.6368,-1.6255,-1.5187,-1.2948,-1.2887,-1.1703,-0.9274,-0.842,-0.7962,-0.7897,-0.621,-0.5815,0.0,0.1343,0.2678,0.2678,0.0,0.0,0.0,0.0,0.4957,0.5296,0.5437,0.0,0.0,0.5847,0.5867,0.581,0.544,0.4687,0.3124,0.2528,0.1737,0.0206,0.0,0.0,0.0,0.0,-0.0135,-0.0471,-0.1877,-0.2811,-0.3145,-0.4619,-0.5428,-0.5428,-0.6268,-0.6981,-0.7502,-0.8683,-0.9722,-1.0624,-1.0926,-1.1045,-1.1108,-1.2397,-1.3191,-1.3494,-1.451,-1.5108,-1.541,-1.541,-1.5584,-1.5816,-1.5816,-1.6528,-1.7633,-1.7895,-1.8608,-1.9423,-1.9695,-2.0245,-2.0845,-2.1245,-2.1974,-2.2785,-2.3143,-2.3421,-2.3595,-2.3595,-2.3595,-2.3595,-2.3595,-2.3595,-2.3595,-2.3595,-2.3595,-2.3595,-2.3595,-2.3595,-2.3595,-2.3595,-2.3595,-2.3595,-2.3595,-2.3595,-2.3595,-2.3595,-2.3595,-2.3595,-2.3595,-2.3421,-2.3246,-2.3246,-2.21,-2.1245,-2.0988,-2.0004,-1.9359,-1.9359,-1.7841,-1.6821,-1.6482,-1.5555,-1.4433,-1.3009,-1.2512,-1.1267,-0.9274,-0.8947,-0.8221,-0.7177,-0.6527,-0.6075,0.0,0.1074,0.2344,0.0,0.0,0.0,0.0,0.0,0.0,0.5428,0.5484,0.5603,0.5654,0.0,0.5718,0.5671,0.5664,0.5132,0.3453,0.3031,0.2259,0.0607,0.0135,0.0,0.0,0.0,0.0,0.0,-0.1409,-0.241,-0.2678,-0.4148,-0.509,-0.5362,-0.6009,-0.6724,-0.7567,-0.8484,-0.9332,-1.0174,-1.0498,-1.0624,-1.0624,-1.1725,-1.252,-1.307,-1.4154,-1.4932,-1.541,-1.541,-1.541,-1.541,-1.541,-1.6026,-1.6968,-1.7413,-1.8232,-1.915,-1.9643,-2.0105,-2.0547,-2.0953,-2.1663,-2.2438,-2.2891,-2.326,-2.3595,-2.3595,-2.3595,-2.3595,-2.3595,-2.3595,-2.3595,-2.3595,-2.3595,-2.3595,-2.3595,-2.3595,-2.3595,-2.3595,-2.3595,-2.3595,-2.3595,-2.3595,-2.3595,-2.3595,-2.3595,-2.3595,-2.3595,-2.3595,-2.3508,-2.3334,-2.2529,-2.1946,-2.1697,-2.072,-2.0105,-2.0105,-1.8058,-1.6877,-1.6877,-1.5603,-1.4433,-1.3425,-1.281,-1.1626,-0.9703,-0.9703,-0.8924,-0.7502,-0.6981,-0.6527,0.0,0.0605,0.1541,0.0,0.0,0.0,0.0,0.0,0.0,0.5428,0.5484,0.5542,0.5456,0.5488,0.5538,0.5452,0.5428,0.509,0.4148,0.3278,0.2342,0.1407,0.0538,0.0,0.0,0.0,0.0,0.0,-0.0806,-0.1742,-0.2678,-0.3547,-0.4417,-0.5362,-0.5428,-0.5815,-0.6719,-0.7567,-0.842,-0.9338,-1.0174,-1.0561,-1.0624,-1.0624,-1.1483,-1.3009,-1.3009,-1.3906,-1.5352,-1.541,-1.541,-1.541,-1.541,-1.541,-1.5575,-1.7079,-1.7578,-1.7852,-1.9254,-1.9798,-1.9798,-1.9798,-2.0657,-2.1697,-2.1697,-2.2606,-2.3595,-2.3595,-2.3595,-2.3595,-2.3595,-2.3595,-2.3595,-2.3595,-2.3595,-2.3595,-2.3595,-2.3595,-2.3595,-2.3595,-2.3595,-2.3595,-2.3595,-2.3595,-2.3595,-2.3595,-2.3595,-2.3595,-2.3595,-2.3595,-2.3377,-2.2785,-2.2694,-2.2452,-2.1758,-2.1161,-2.0795,-2.0795,-1.8785,-1.7633,-1.7578,-1.6866,-1.5786,-1.4204,-1.4213,-1.2967,-1.0488,-1.0488,-1.0066,-0.9274,-0.7502,-0.7177,0.0,0.0605,0.0,0.1675,0.0,0.0,0.0,0.0,0.0,0.0,0.5466,0.5416,0.5435,0.5466,0.5413,0.5435,0.5428,0.509,0.4148,0.3278,0.2342,0.1407,0.0538,0.0,0.0,0.0,0.0,0.0,-0.0806,-0.1742,-0.2678,-0.3547,-0.4417,-0.5362,-0.5428,-0.5815,-0.6719,-0.6981,-0.7832,-0.9274,-0.953,-0.9977,-1.0624,-1.117,-1.171,-1.2205,-1.2757,-1.3243,-1.3786,-1.4332,-1.4874,-1.541,-1.541,-1.57,-1.6208,-1.6641,-1.7468,-1.8447,-1.8874,-1.9371,-1.9901,-2.0346,-2.0733,-2.1161,-2.1568,-2.1932,-2.2363,-2.2815,-2.2965,-2.3054,-2.3508,-2.3595,-2.3595,-2.3595,-2.3595,-2.3595,-2.3595,-2.3595,-2.3595,-2.3595,-2.3595,-2.3595,-2.3595,-2.3595,-2.3595,-2.3595,-2.3595,-2.3595,-2.3595,-2.3595,-2.3508,-2.3334,-2.2965,-2.2603,-2.2406,-2.1819,-2.1424,-2.1424,-1.9953,-1.8614,-1.7633,-1.5871,-1.4678,-1.4204,-1.3114,-1.2128,-1.1384,-1.0843,-1.0161,-0.9274,-0.8156,-0.7437,-0.0067,0.0404,0.0,0.1207,0.2143,0.3145,0.3813,0.0,0.0,0.0,0.5428,0.5428,0.5428,0.5428,0.5428,0.5428,0.5428,0.5226,0.4619,0.348,0.2476,0.1942,0.0739,0.0,0.0,0.0,-0.0135,-0.0471,-0.1006,-0.1876,-0.3145,-0.3747,-0.4417,-0.5362,-0.5428,-0.5815,-0.6719,-0.6719,-0.7372,-0.8812,-0.8812,-0.9262,-1.011,-1.0912,-1.1531,-1.1826,-1.2634,-1.3009,-1.307,-1.3855,-1.451,-1.4932,-1.5294,-1.57,-1.6093,-1.6379,-1.7257,-1.8286,-1.8608,-1.9202,-1.985,-2.0258,-2.0733,-2.121,-2.1615,-2.2025,-2.256,-2.2965,-2.3054,-2.3143,-2.3508,-2.3595,-2.3595,-2.3595,-2.3595,-2.3595,-2.3595,-2.3595,-2.3595,-2.3595,-2.3595,-2.3595,-2.3595,-2.3595,-2.3595,-2.3595,-2.3595,-2.3595,-2.3595,-2.3595,-2.3595,-2.3595,-2.3275,-2.3054,-2.3054,-2.2483,-2.21,-2.21,-2.0604,-1.9297,-1.8466,-1.6306,-1.508,-1.508,-1.3588,-1.2626,-1.2266,-1.1476,-1.0667,-0.9786,-0.8549,-0.7697,-0.0337,0.0,0.0,0.1006,0.1274,0.0,0.3613,0.4686,0.5292,0.5362,0.5428,0.5428,0.5428,0.5428,0.5428,0.5428,0.5428,0.5428,0.5428,0.3882,0.2811,0.2678,0.1142,0.0135,0.0135,0.0067,-0.0269,-0.1005,-0.1139,-0.1942,-0.368,-0.3813,-0.4284,-0.5226,-0.5359,-0.5749,-0.6588,-0.6593,-0.7046,-0.7897,-0.7897,-0.835,-0.9204,-1.011,-1.0919,-1.171,-1.2451,-1.2826,-1.2948,-1.3666,-1.4025,-1.4145,-1.4991,-1.5294,-1.541,-1.6151,-1.6922,-1.7688,-1.8394,-1.915,-1.9798,-1.9798,-2.0557,-2.1554,-2.1615,-2.2409,-2.3363,-2.3508,-2.3508,-2.3508,-2.361,-2.3595,-2.3595,-2.3595,-2.3595,-2.3595,-2.3595,-2.3595,-2.3595,-2.3595,-2.3595,-2.3595,-2.3595,-2.3595,-2.3595,-2.3595,-2.3595,-2.3595,-2.3595,-2.3595,-2.3595,-2.3595,-2.3595,-2.3595,-2.3595,-2.3113,-2.2785,-2.2785,-2.0997,-1.9953,-1.9953,-1.7752,-1.6492,-1.6492,-1.4904,-1.3726,-1.3009,-1.2143,-1.1288,-1.0428,-0.8801,-0.7962,0.0,-0.0538,0.0,0.0,0.0806,0.1741,0.3613,0.4151,0.4486,0.5226,0.5428,0.5428,0.5428,0.5428,0.5428,0.5428,0.5428,0.5428,0.5428,0.4417,0.348,0.2811,0.1675,0.1006,0.1006,0.0404,0.0202,0.067,0.0134,-0.0739,-0.1809,-0.2611,-0.3413,-0.4284,-0.5024,-0.5491,-0.5686,-0.5686,-0.6141,-0.6981,-0.6981,-0.7437,-0.8291,-0.9198,-1.004,-1.0863,-1.1052,-1.1476,-1.2081,-1.2258,-1.2687,-1.3373,-1.4145,-1.4451,-1.4569,-1.5342,-1.6472,-1.7633,-1.7797,-1.8715,-1.9798,-1.9798,-1.9991,-2.0333,-2.0832,-2.1161,-2.1595,-2.2589,-2.2875,-2.3009,-2.3465,-2.3595,-2.3595,-2.3595,-2.3595,-2.3595,-2.3595,-2.3595,-2.3595,-2.3595,-2.3595,-2.3595,-2.3595,-2.3595,-2.3595,-2.3595,-2.3595,-2.3595,-2.3595,-2.3595,-2.3595,-2.3595,-2.3595,-2.3595,-2.3595,-2.3465,-2.3421,-2.3421,-2.2575,-2.2053,-2.2053,-1.8502,-1.6492,-1.6492,-1.4373,-1.3183,-1.3009,-1.1538,-1.0421,-0.953,-0.8484,-0.7632,0.0,0.0,0.0,-0.0135,0.0,0.1541,0.2476,0.3347,0.4148,0.4619,0.509,0.5428,0.5428,0.5428,0.5428,0.5428,0.5428,0.5428,0.5428,0.4217,0.3211,0.2744,0.1876,0.1273,0.1273,0.0873,0.0671,0.0669,-0.0134,-0.1007,-0.1942,-0.241,-0.3078,-0.3949,-0.4486,-0.4954,-0.5428,-0.5428,-0.562,-0.6075,-0.6075,-0.6531,-0.7437,-0.8291,-0.9134,-0.9977,-0.9977,-1.0478,-1.1288,-1.1648,-1.2081,-1.2573,-1.3726,-1.4213,-1.4332,-1.5108,-1.6083,-1.709,-1.709,-1.8058,-1.9254,-1.9254,-1.9722,-2.0346,-2.0696,-2.0979,-2.139,-2.2007,-2.2452,-2.2785,-2.3098,-2.3377,-2.3595,-2.3595,-2.3595,-2.3595,-2.3595,-2.3595,-2.3595,-2.3595,-2.3595,-2.3595,-2.3595,-2.3595,-2.3595,-2.3595,-2.3595,-2.3595,-2.3595,-2.3595,-2.3595,-2.3595,-2.3595,-2.3724,-2.3948,-2.3767,-2.3724,-2.3964,-2.3172,-2.2694,-2.2694,-1.9699,-1.8024,-1.8024,-1.5466,-1.41,-1.41,-1.2504,-1.1087,-0.9882,-0.8965,-0.7872,0.0,0.0,0.0,-0.0202,0.0538,0.0,0.1274,0.2476,0.3613,0.3747,0.4619,0.5428,0.5428,0.5428,0.5428,0.5428,0.5428,0.5359,0.516,0.3882,0.2878,0.2744,0.2009,0.1608,0.1742,0.1608,0.1272,0.0534,-0.0334,-0.1273,-0.221,-0.2344,-0.2811,-0.348,-0.368,-0.4148,-0.4957,-0.4954,-0.5024,-0.516,-0.5296,-0.5749,-0.6527,-0.7246,-0.8096,-0.9075,-0.9075,-0.9594,-1.0428,-1.1094,-1.1461,-1.1772,-1.3356,-1.3965,-1.4094,-1.505,-1.5864,-1.6492,-1.6492,-1.7468,-1.8715,-1.8715,-1.9554,-2.066,-2.0746,-2.1161,-2.1568,-2.1805,-2.2253,-2.274,-2.283,-2.3246,-2.3595,-2.3595,-2.3595,-2.3595,-2.3595,-2.3595,-2.3595,-2.3595,-2.3595,-2.3595,-2.3595,-2.3595,-2.3595,-2.3595,-2.3595,-2.3638,-2.3724,-2.3767,-2.3752,-2.3879,-2.3794,-2.3921,-2.4348,-2.3921,-2.3794,-2.4225,-2.3391,-2.2844,-2.2844,-2.1046,-2.0105,-2.0218,-1.6994,-1.5303,-1.5303,-1.3442,-1.1804,-1.0223,-0.9255,-0.7921,0.0,0.0,0.0,0.0,0.0067,0.0404,0.0,0.0,0.1876,0.2678,0.4217,0.5428,0.5428,0.5428,0.5428,0.5428,0.5428,0.509,0.4284,0.3949,0.3547,0.2811,0.2611,0.2811,0.3547,0.2945,0.2476,0.2341,0.1473,0.0537,-0.0337,-0.1074,-0.1541,-0.1675,-0.2477,-0.2945,-0.3078,-0.3078,-0.3413,-0.4217,-0.5024,-0.5491,-0.5557,-0.569,-0.6666,-0.8156,-0.8156,-0.8678,-0.9466,-0.9588,-1.0098,-1.0926,-1.252,-1.3191,-1.3373,-1.4874,-1.5864,-1.6492,-1.6492,-1.7468,-1.8715,-1.8715,-1.9254,-2.0055,-2.0597,-2.0845,-2.1126,-2.2267,-2.2649,-2.283,-2.3319,-2.3551,-2.3595,-2.3595,-2.3595,-2.3595,-2.3595,-2.3595,-2.3595,-2.3595,-2.3595,-2.3595,-2.3595,-2.3595,-2.3595,-2.3595,-2.3595,-2.3752,-2.4225,-2.4266,-2.4471,-2.495,-2.4592,-2.4307,-2.4389,-2.3921,-2.3638,-2.3724,-2.3551,-2.3465,-2.3465,-2.2165,-2.1697,-2.23,-1.769,-1.5303,-1.5293,-1.2303,-1.0342,-0.9307,-0.7797,-0.6523,-0.4182,0.0,0.0,0.0,-0.0739,-0.047,0.0403,0.0939,0.1407,0.1809,0.2945,0.4015,0.4553,0.4619,0.4619,0.4619,0.4619,0.4284,0.3413,0.2811,0.2544,0.2678,0.2678,0.3011,0.3882,0.368,0.3411,0.3411,0.2075,0.1341,0.1476,0.067,-0.0067,-0.0535,-0.0467,-0.0933,-0.1935,-0.1935,-0.2404,-0.328,-0.3682,-0.3882,-0.3882,-0.3882,-0.5134,-0.7242,-0.7242,-0.7762,-0.8613,-0.9075,-0.953,-1.004,-1.171,-1.2573,-1.313,-1.4332,-1.5216,-1.5864,-1.5864,-1.6856,-1.8058,-1.8058,-1.8874,-1.985,-2.0144,-2.0245,-2.0446,-2.1369,-2.188,-2.23,-2.2905,-2.3334,-2.3595,-2.3595,-2.3595,-2.3595,-2.3595,-2.3595,-2.3595,-2.3595,-2.3595,-2.3595,-2.3595,-2.3595,-2.3595,-2.3595,-2.3879,-2.4116,-2.4389,-2.4657,-2.495,-2.5166,-2.4712,-2.4511,-2.4816,-2.4074,-2.3879,-2.4471,-2.3906,-2.3709,-2.4032,-2.2921,-2.2406,-2.2694,-1.8706,-1.677,-1.7159,-1.4087,-1.1636,-0.9857,-0.867,-0.6824,0.0,0.0,-0.2811,-0.1876,-0.1474,-0.114,0.0,0.0336,0.0939,0.0939,0.1542,0.2278,0.3145,0.348,0.368,0.368,0.368,0.3347,0.2477,0.1941,0.1942,0.2611,0.2878,0.3347,0.4284,0.435,0.4284,0.4015,0.2744,0.2209,0.2678,0.2009,0.1338,0.0734,0.1334,0.0999,-0.0266,-0.0532,-0.0999,-0.167,-0.1936,-0.2136,-0.2339,-0.2339,-0.3533,-0.5723,-0.5924,-0.665,-0.7697,-0.835,-0.8748,-0.9134,-1.0822,-1.1819,-1.2496,-1.3537,-1.4392,-1.5108,-1.5108,-1.6073,-1.7357,-1.7523,-1.8447,-1.9579,-1.9747,-1.9798,-1.9952,-2.0597,-2.1245,-2.1852,-2.2558,-2.3143,-2.3595,-2.3595,-2.3595,-2.3595,-2.3595,-2.3595,-2.3595,-2.3595,-2.3724,-2.3794,-2.3794,-2.3921,-2.3991,-2.3991,-2.4348,-2.4657,-2.4776,-2.5144,-2.5449,-2.5561,-2.5128,-2.4894,-2.5182,-2.4471,-2.4225,-2.4736,-2.4158,-2.3921,-2.4199,-2.3201,-2.2785,-2.2934,-1.9584,-1.8109,-1.8584,-1.5196,-1.2615,-1.0726,-0.9497,-0.7261,0.0,-0.3949,0.0,-0.2878,-0.1941,0.0,0.0,-0.0538,0.0067,0.0067,0.0135,0.0404,0.1274,0.2143,0.2744,0.2744,0.2744,0.241,0.1474,0.2075,0.2678,0.2678,0.3411,0.4284,0.5226,0.5296,0.4957,0.4082,0.3882,0.3547,0.2744,0.2678,0.2609,0.2542,0.2609,0.2609,0.2474,0.16,0.1132,0.1065,0.0266,-0.0598,-0.1399,-0.1399,-0.1934,-0.2943,-0.3813,-0.5137,-0.6785,-0.685,-0.7307,-0.8215,-0.992,-1.0613,-1.0801,-1.2435,-1.3545,-1.4273,-1.4273,-1.5255,-1.6652,-1.7357,-1.8112,-1.8874,-1.9579,-1.9798,-1.9952,-2.0597,-2.1245,-2.1852,-2.2558,-2.3143,-2.3595,-2.3595,-2.3595,-2.3595,-2.3595,-2.3595,-2.3595,-2.3595,-2.3991,-2.4348,-2.4348,-2.4792,-2.5144,-2.5144,-2.5144,-2.5335,-2.5852,-2.5924,-2.612,-2.6573,-2.621,-2.5726,-2.5259,-2.5144,-2.4712,-2.3752,-2.4116,-2.4142,-2.3681,-2.3054,-2.2965,-2.3551,-2.0239,-1.8584,-1.8584,-1.4055,-1.1744,-1.1559,-0.9145,-0.7033,0.0,0.0,0.0,-0.3747,-0.3278,-0.2878,-0.2344,-0.1475,-0.0806,-0.0806,-0.0404,0.0067,0.0404,0.1208,0.1808,0.1808,0.1808,0.1475,0.0605,0.1208,0.2009,0.2611,0.348,0.435,0.5296,0.5428,0.5292,0.4954,0.435,0.4148,0.4417,0.4406,0.4397,0.4397,0.5515,0.5726,0.497,0.4134,0.3363,0.272,0.1947,0.1509,0.1267,0.0668,-0.0134,-0.1002,-0.1873,-0.3274,-0.5071,-0.6191,-0.6915,-0.7307,-0.8463,-0.9215,-0.9825,-1.0975,-1.1905,-1.2753,-1.3828,-1.4885,-1.585,-1.6631,-1.7688,-1.8768,-1.898,-1.9423,-1.9952,-2.0597,-2.1245,-2.1852,-2.2558,-2.3143,-2.3595,-2.3595,-2.3595,-2.3595,-2.3595,-2.3595,-2.3595,-2.3595,-2.4032,-2.4389,-2.4389,-2.4816,-2.5221,-2.5221,-2.5486,-2.5762,-2.5977,-2.6262,-2.6505,-2.6691,-2.6297,-2.5924,-2.5726,-2.5411,-2.5028,-2.4657,-2.4471,-2.4307,-2.4116,-2.358,-2.3537,-2.4116,-2.1746,-2.0077,-1.915,-1.4724,-1.2273,-1.1621,-0.9736,-0.7284,-0.5416,0.0,0.0,0.0,-0.4217,-0.388,-0.328,-0.241,-0.1742,-0.1742,-0.1342,-0.0807,-0.0471,0.0067,0.0536,0.0805,0.0873,0.0672,0.0067,0.0739,0.1541,0.2143,0.3278,0.4217,0.4888,0.5226,0.5428,0.5428,0.4821,0.4885,0.5815,0.5796,0.5952,0.6334,0.7565,0.7772,0.6852,0.6367,0.5628,0.4706,0.4034,0.3573,0.3312,0.2494,0.1517,0.033,-0.0533,-0.2072,-0.4082,-0.5269,-0.5997,-0.6334,-0.7242,-0.7872,-0.8489,-0.9666,-1.0607,-1.1512,-1.2907,-1.4049,-1.5041,-1.5813,-1.6946,-1.8004,-1.8286,-1.8874,-1.9515,-1.9965,-2.0693,-2.1486,-2.1941,-2.268,-2.329,-2.329,-2.3465,-2.3595,-2.3595,-2.3595,-2.3595,-2.3595,-2.4184,-2.4672,-2.4672,-2.5243,-2.5709,-2.5709,-2.6016,-2.6227,-2.6227,-2.6505,-2.6691,-2.6691,-2.6401,-2.6191,-2.6013,-2.5835,-2.547,-2.4973,-2.4792,-2.4511,-2.4158,-2.3794,-2.3837,-2.4389,-2.2581,-2.1213,-2.0479,-1.621,-1.3399,-1.2081,-1.0752,-0.8099,0.0,0.0,0.0,0.0,-0.4688,-0.4015,-0.4015,-0.3347,-0.2744,-0.2744,-0.2744,-0.241,-0.1541,-0.134,-0.1074,-0.0202,-0.0067,0.0,0.0,0.0739,0.1273,0.1273,0.2878,0.3949,0.3949,0.4755,0.5362,0.5359,0.5359,0.5749,0.6588,0.6719,0.7324,0.8566,0.8554,0.8434,0.8177,0.8119,0.7784,0.7111,0.634,0.5555,0.4702,0.4099,0.2819,0.116,0.0396,-0.1467,-0.388,-0.3949,-0.4553,-0.5425,-0.633,-0.6654,-0.685,-0.8613,-0.9755,-1.0551,-1.1447,-1.281,-1.4255,-1.5032,-1.5803,-1.6595,-1.7357,-1.8058,-1.8661,-1.8715,-1.9709,-2.0795,-2.0845,-2.1752,-2.2694,-2.2694,-2.3187,-2.3595,-2.3595,-2.3595,-2.3595,-2.3595,-2.4471,-2.5182,-2.5182,-2.6016,-2.6657,-2.6691,-2.6657,-2.6657,-2.6691,-2.6691,-2.6691,-2.6691,-2.6691,-2.6521,-2.6049,-2.6436,-2.6035,-2.4511,-2.491,-2.4752,-2.3681,-2.3638,-2.3879,-2.443,-2.2656,-2.1917,-2.2422,-1.8334,-1.5215,-1.3061,-1.2135,-0.9409,-0.5576,0.0,0.0,0.0,0.0,0.0,-0.5024,-0.4284,-0.3613,-0.3613,-0.3145,-0.2611,-0.2342,-0.2344,-0.221,-0.2011,-0.0874,0.0,0.0,0.0739,0.1273,0.1273,0.2342,0.3078,0.3078,0.328,0.368,0.435,0.4417,0.4818,0.5686,0.6985,0.8477,1.0301,1.0347,1.0165,0.9702,0.918,0.8508,0.7681,0.6423,0.5801,0.5623,0.4265,0.3458,0.2951,0.1424,0.0066,-0.1268,-0.3207,-0.4151,-0.4483,-0.5418,-0.5752,-0.5881,-0.6985,-0.7952,-0.8913,-1.0362,-1.1556,-1.2679,-1.4058,-1.5051,-1.5793,-1.6574,-1.7302,-1.8015,-1.8555,-1.9322,-2.0332,-2.1785,-2.2466,-2.2785,-2.3246,-2.3465,-2.3595,-2.3595,-2.3595,-2.3595,-2.3595,-2.4158,-2.4632,-2.4632,-2.5166,-2.5746,-2.6156,-2.5872,-2.5855,-2.6624,-2.6401,-2.6332,-2.6657,-2.6691,-2.6657,-2.6521,-2.6624,-2.6193,-2.5051,-2.5144,-2.4894,-2.4199,-2.4184,-2.4632,-2.554,-2.4658,-2.3804,-2.289,-1.9421,-1.6634,-1.4387,-1.0684,-0.7683,-0.5549,-0.543,-0.5428,-0.5428,0.0,0.0,-0.5428,-0.4957,-0.4553,-0.4553,-0.4151,-0.3682,-0.3345,-0.3211,-0.3145,-0.2744,-0.1811,-0.1008,-0.0605,-0.0134,0.0201,0.0201,0.1003,0.1604,0.1604,0.2274,0.3078,0.3949,0.4015,0.4746,0.6404,0.814,0.9737,1.131,1.1707,1.1431,1.0529,1.0068,0.916,0.7825,0.6662,0.5997,0.576,0.4601,0.3892,0.3589,0.2224,0.1233,0.0263,-0.2395,-0.368,-0.4082,-0.5024,-0.5428,-0.5491,-0.6396,-0.7242,-0.8215,-0.9558,-1.0822,-1.202,-1.3304,-1.4246,-1.4993,-1.5786,-1.6539,-1.7246,-1.7688,-1.8531,-1.9672,-2.1438,-2.2067,-2.2438,-2.3054,-2.3421,-2.3595,-2.3595,-2.3595,-2.3595,-2.3595,-2.4032,-2.4389,-2.4389,-2.4816,-2.5297,-2.5615,-2.5577,-2.5762,-2.6332,-2.6332,-2.6401,-2.6657,-2.6691,-2.6691,-2.6691,-2.6841,-2.6539,-2.5598,-2.566,-2.5422,-2.4736,-2.4736,-2.5128,-2.5961,-2.5486,-2.4682,-2.3618,-2.1203,-1.8482,-1.5439,-1.0977,-0.7835,-0.5663,-0.5634,-0.569,-0.5557,-0.5557,0.0,-0.5428,-0.5495,-0.5557,-0.5557,-0.5624,-0.5418,-0.448,-0.4278,-0.4013,-0.3145,-0.2945,-0.2544,-0.1608,-0.1474,-0.1474,-0.1474,-0.0802,-0.0267,-0.0267,0.127,0.2608,0.3478,0.3944,0.5266,0.7897,0.9603,1.0884,1.1696,1.2465,1.2209,1.0821,1.0813,0.9791,0.783,0.7074,0.6312,0.5601,0.505,0.432,0.3526,0.2808,0.1988,0.1032,-0.1587,-0.3145,-0.3949,-0.5024,-0.5428,-0.5491,-0.6268,-0.7177,-0.8091,-0.8877,-1.0268,-1.1834,-1.2696,-1.3485,-1.4204,-1.5118,-1.5864,-1.6425,-1.6595,-1.7677,-1.9125,-2.0534,-2.1342,-2.1993,-2.2634,-2.3187,-2.3595,-2.3595,-2.3595,-2.3595,-2.3595,-2.3991,-2.4307,-2.4307,-2.4712,-2.5028,-2.5089,-2.5449,-2.5815,-2.5977,-2.6332,-2.6573,-2.6691,-2.6691,-2.6691,-2.6624,-2.6987,-2.6872,-2.5961,-2.6266,-2.6094,-2.5335,-2.5297,-2.554,-2.6085,-2.5577,-2.5012,-2.4511,-2.2849,-2.0126,-1.6443,-1.2541,-0.9176,-0.6672,-0.7038,-0.7312,-0.6593,-0.6461,0.0,-0.5557,-0.5943,-0.6461,-0.6461,-0.6985,-0.7242,-0.6322,-0.6191,-0.5866,-0.502,-0.4217,-0.3413,-0.2544,-0.241,-0.241,-0.241,-0.2275,-0.214,-0.214,-0.1137,-0.0134,0.0734,0.346,0.592,0.7892,0.9603,1.0884,1.1696,1.2465,1.2209,1.0821,1.0813,1.0056,0.8586,0.783,0.7074,0.6367,0.5639,0.5012,0.4345,0.2867,0.2263,0.1997,-0.1321,-0.2811,-0.3145,-0.4755,-0.5428,-0.5428,-0.5624,-0.6662,-0.8027,-0.8221,-0.9384,-1.1045,-1.252,-1.313,-1.3494,-1.4932,-1.5526,-1.5853,-1.7024,-1.8412,-1.9813,-2.117,-2.2007,-2.2634,-2.3275,-2.3508,-2.3595,-2.3595,-2.3595,-2.3595,-2.3595,-2.3666,-2.3767,-2.3767,-2.3837,-2.4074,-2.4511,-2.4266,-2.4552,-2.5852,-2.5689,-2.5783,-2.6607,-2.6691,-2.6556,-2.6191,-2.6573,-2.6402,-2.5411,-2.5819,-2.6016,-2.5852,-2.5852,-2.6068,-2.6539,-2.6104,-2.5577,-2.5028,-2.1493,-1.9121,-1.7809,-1.4182,-1.0367,-0.6848,-0.7386,-0.7892,-0.7437,-0.7372,0.0,0.0,-0.7051,-0.7372,-0.7372,-0.7697,-0.7897,-0.7437,-0.7372,-0.7177,-0.6793,-0.6326,-0.5851,-0.5384,-0.4201,-0.3347,-0.3347,-0.3347,-0.3347,-0.3347,-0.2544,-0.127,0.0533,0.3131,0.5657,0.7892,0.9578,1.0934,1.2028,1.2966,1.2903,1.1679,1.1065,1.01,0.8771,0.8037,0.7122,0.6036,0.5651,0.5159,0.4532,0.337,0.2666,0.2144,-0.0328,-0.1872,-0.2878,-0.4686,-0.5428,-0.5428,-0.5428,-0.6207,-0.7437,-0.7827,-0.8871,-1.0225,-1.1896,-1.2389,-1.2696,-1.4323,-1.505,-1.5633,-1.6754,-1.8066,-1.9443,-2.0797,-2.1918,-2.283,-2.3465,-2.3595,-2.3595,-2.3595,-2.3595,-2.3595,-2.3595,-2.3595,-2.3595,-2.3595,-2.3595,-2.3794,-2.4307,-2.4389,-2.4792,-2.5852,-2.598,-2.6123,-2.6657,-2.647,-2.6262,-2.6013,-2.6386,-2.6318,-2.5652,-2.6247,-2.6539,-2.6367,-2.6367,-2.647,-2.6691,-2.6227,-2.5726,-2.5182,-2.219,-2.0465,-1.9848,-1.6731,-1.3403,-0.6968,-0.7697,-0.8479,-0.8285,-0.8221,-0.8221,0.0,0.0,0.0,-0.8221,-0.8415,-0.8479,-0.8285,-0.8221,-0.8221,-0.8027,-0.8027,-0.8027,-0.8027,-0.6117,-0.474,-0.474,-0.448,-0.4348,-0.4478,-0.3409,-0.167,0.0866,0.2869,0.5061,0.7623,0.9617,1.1167,1.2372,1.3599,1.3723,1.2624,1.1473,1.0288,0.9036,0.8268,0.7117,0.5706,0.574,0.5325,0.4521,0.392,0.3098,0.2116,0.0654,-0.1069,-0.2878,-0.4486,-0.5226,-0.5428,-0.5428,-0.6079,-0.7046,-0.7767,-0.8678,-0.9779,-1.1337,-1.2012,-1.2504,-1.3786,-1.4746,-1.5575,-1.6482,-1.762,-1.8887,-2.0278,-2.1574,-2.2634,-2.3275,-2.3421,-2.3465,-2.3551,-2.3595,-2.3595,-2.3595,-2.3595,-2.3638,-2.3767,-2.3752,-2.3964,-2.4471,-2.4934,-2.5373,-2.5924,-2.6245,-2.647,-2.6539,-2.6227,-2.5977,-2.5852,-2.6266,-2.637,-2.6033,-2.674,-2.7019,-2.6725,-2.6774,-2.6825,-2.6825,-2.6333,-2.5839,-2.5303,-2.3622,-2.2359,-2.1539,-1.8787,-1.6085,-0.7892,-0.9064,-1.0104,-0.9332,-0.9139,-0.8941,-0.8156,0.0,-0.9139,-0.9139,0.0,-1.004,-0.9268,0.0,0.0,-0.8156,-0.8027,-0.8027,-0.8027,-0.7762,-0.7562,-0.7562,-0.6203,-0.555,-0.6326,-0.4135,-0.1939,0.0,0.2528,0.4779,0.6677,0.9781,1.1798,1.2372,1.3931,1.4162,1.3023,1.1971,1.1035,1.0294,0.9185,0.7883,0.6485,0.6667,0.5967,0.4622,0.4041,0.3255,0.2308,0.066,-0.1069,-0.2811,-0.3749,-0.4686,-0.5428,-0.5428,-0.647,-0.7897,-0.7962,-0.9064,-1.0611,-1.1531,-1.2749,-1.3965,-1.4145,-1.4746,-1.569,-1.7079,-1.8001,-1.8964,-2.0395,-2.1293,-2.1993,-2.2634,-2.2785,-2.2965,-2.3465,-2.3595,-2.3595,-2.3595,-2.3595,-2.3752,-2.4241,-2.4307,-2.4511,-2.5028,-2.5182,-2.5373,-2.5924,-2.5652,-2.5561,-2.6033,-2.6049,-2.5815,-2.5335,-2.6142,-2.6488,-2.6049,-2.647,-2.6758,-2.6691,-2.7019,-2.7241,-2.7241,-2.6721,-2.6199,-2.5724,-2.4697,-2.3301,-2.1539,-1.8787,-1.6085,-0.8646,-0.9652,-1.0498,-1.0174,-1.0047,-0.9977,-0.9582,-0.9779,-1.0047,-1.0047,0.0,0.0,0.0,0.0,0.0,0.0,-0.9518,-0.9518,-0.9518,-0.9069,-0.8549,-0.8091,-0.7377,-0.6859,-0.6719,-0.5193,-0.3465,-0.1731,0.0466,0.2652,0.4944,0.7835,0.9981,1.1236,1.2672,1.3156,1.2706,1.1591,1.0624,0.9834,0.8996,0.7762,0.6227,0.6366,0.5817,0.4773,0.4091,0.3336,0.2383,0.066,-0.1069,-0.2811,-0.368,-0.4553,-0.5428,-0.5428,-0.5885,-0.6666,-0.7637,-0.8479,-0.932,-1.0661,-1.2205,-1.3485,-1.3485,-1.4392,-1.5642,-1.6641,-1.773,-1.8859,-1.9864,-2.0926,-2.1758,-2.2053,-2.2406,-2.2785,-2.3009,-2.3363,-2.3595,-2.3595,-2.3595,-2.3752,-2.4307,-2.4142,-2.4116,-2.4672,-2.4752,-2.4934,-2.5449,-2.5335,-2.5411,-2.5924,-2.5726,-2.5577,-2.5652,-2.6068,-2.6227,-2.6013,-2.6436,-2.6808,-2.7019,-2.721,-2.7303,-2.7303,-2.677,-2.6319,-2.5931,-2.5189,-2.4287,-2.3171,-2.0933,-1.8875,-0.9139,-0.9913,-1.0624,-1.0624,-1.0624,-1.0624,-1.0624,-1.0624,-1.0624,-1.0624,-1.0624,0.0,0.0,0.0,-1.0681,-1.0863,0.0,-1.0926,-1.0926,-1.0408,-0.964,-0.8801,-0.8479,-0.8086,-0.7418,-0.611,-0.4854,-0.3845,-0.1662,0.0597,0.2756,0.5549,0.8027,1.0071,1.1245,1.1988,1.2241,1.0828,0.9843,0.9193,0.844,0.7354,0.5996,0.6042,0.5643,0.4924,0.4165,0.3374,0.2408,0.0729,-0.1069,-0.2811,-0.368,-0.4553,-0.5428,-0.5428,-0.5557,-0.5947,-0.7507,-0.8285,-0.893,-1.0471,-1.1841,-1.307,-1.3252,-1.4332,-1.5584,-1.6539,-1.7533,-1.8513,-1.9453,-2.0432,-2.128,-2.1602,-2.2053,-2.2543,-2.2875,-2.3275,-2.3595,-2.3595,-2.3595,-2.3709,-2.4116,-2.3991,-2.3991,-2.4552,-2.4632,-2.4752,-2.5144,-2.5067,-2.5144,-2.554,-2.5335,-2.5373,-2.5742,-2.6033,-2.6191,-2.6191,-2.6505,-2.6873,-2.7286,-2.7426,-2.75,-2.7601,-2.7103,-2.6638,-2.6318,-2.566,-2.5112,-2.4576,-2.23,-2.0823,-0.9274,-0.9913,-1.0624,-1.0624,-1.0624,-1.0624,-1.0624,-1.0624,-1.0624,-1.0624,-1.0624,-1.0624,-1.0624,-1.0624,-1.0863,-1.1648,-1.1772,0.0,0.0,-1.1772,-1.1406,-1.0618,-0.9786,-0.925,-0.9122,-0.6807,-0.5643,-0.6412,-0.3245,-0.0861,0.0065,0.3378,0.6497,0.9046,1.0013,1.0843,1.1729,0.9762,0.878,0.8714,0.762,0.6768,0.6001,0.6104,0.5809,0.5068,0.429,0.3476,0.2539,0.0734,-0.1069,-0.2811,-0.368,-0.4553,-0.5428,-0.5428,-0.5947,-0.6785,-0.7697,-0.9128,-1.0681,-1.1469,-1.2328,-1.313,-1.3914,-1.4746,-1.569,-1.7191,-1.7578,-1.795,-1.9423,-1.985,-2.0181,-2.1411,-2.171,-2.2072,-2.3319,-2.361,-2.3595,-2.3595,-2.3595,-2.3595,-2.3638,-2.4032,-2.4552,-2.5105,-2.5182,-2.5182,-2.5221,-2.4752,-2.443,-2.4471,-2.4894,-2.5221,-2.5221,-2.6123,-2.6691,-2.6691,-2.6691,-2.6873,-2.7286,-2.7678,-2.802,-2.835,-2.7905,-2.7455,-2.7065,-2.6218,-2.5575,-2.5089,-2.186,-2.0777,-0.9977,-1.0364,-1.0624,-1.0624,-1.0624,-1.0624,-1.0624,-1.0624,-1.0624,-1.0624,-1.0624,-1.0744,-1.1288,-1.0989,-1.1052,-1.2389,-1.2143,-1.202,0.0,-1.2573,-1.2696,-1.2931,-1.2258,-1.1066,-0.943,-0.8954,-0.8168,-0.6767,-0.4979,-0.3317,-0.1849,0.0985,0.354,0.5628,0.7145,0.834,0.9273,0.8562,0.7947,0.7369,0.6999,0.6413,0.5592,0.5643,0.5209,0.4355,0.3465,0.2272,0.0801,-0.1069,-0.2473,-0.368,-0.4553,-0.509,-0.5428,-0.5428,-0.5943,-0.6915,-0.8355,-0.9652,-1.0744,-1.1531,-1.2328,-1.3122,-1.3965,-1.4746,-1.569,-1.718,-1.7578,-1.795,-1.9423,-2.0156,-2.0547,-2.1015,-2.1738,-2.2498,-2.292,-2.3334,-2.3595,-2.3595,-2.3595,-2.3595,-2.3595,-2.3752,-2.3906,-2.4116,-2.4158,-2.4158,-2.4158,-2.3991,-2.3991,-2.4348,-2.4855,-2.5335,-2.5689,-2.6332,-2.6691,-2.6691,-2.6971,-2.7272,-2.7678,-2.8047,-2.829,-2.8394,-2.8236,-2.7847,-2.7234,-2.6933,-2.6421,-2.5672,-2.3272,-2.2128,-1.0434,-1.0624,-1.0624,-1.0624,-1.0624,-1.0624,-1.0624,-1.0624,-1.0681,-1.0989,-1.1052,-1.1288,-1.2081,-1.1779,-1.1911,-1.3183,-1.2992,-1.281,0.0,-1.3433,-1.3485,-1.3734,-1.3312,-1.2504,-1.119,-1.0739,-0.9977,-0.8639,-0.7089,-0.5639,-0.4175,-0.1847,0.0527,0.2965,0.4159,0.5291,0.6563,0.6302,0.5847,0.5259,0.5259,0.5001,0.442,0.442,0.4082,0.348,0.2611,0.1337,-0.0134,-0.1939,-0.3211,-0.4082,-0.5024,-0.5428,-0.5428,-0.5428,-0.6141,-0.7372,-0.8812,-0.9849,-1.0807,-1.1903,-1.2573,-1.3191,-1.4332,-1.4991,-1.569,-1.718,-1.7578,-1.795,-1.9423,-2.0105,-2.0547,-2.1015,-2.1738,-2.2452,-2.292,-2.3334,-2.3595,-2.3595,-2.3595,-2.3595,-2.3595,-2.3595,-2.3595,-2.3595,-2.3595,-2.3595,-2.3595,-2.3752,-2.4032,-2.4348,-2.5067,-2.5689,-2.6227,-2.6521,-2.6758,-2.6906,-2.7147,-2.753,-2.8047,-2.829,-2.8471,-2.859,-2.8471,-2.8112,-2.75,-2.7348,-2.6937,-2.621,-2.4965,-2.4024]}]]